Wetterdaten: aktuell Samstag, 30.05.2020 13:13
Datum Zeit Temp. I. Temp 2m Temp 5cm Temp -10cm Feuchte I. Luftf 2m Luftdruck Regen Wind Richtung Richtung Sonnenschein ET UV Solar Taupunkt Windchill Windben Empfang
30.05.2020 13:13 18,8 C 12,8 C 8,9 C 14,4 C 63 % 77 % 1021,4 hPa 0,0 l/m 0,0 km/h (0 Bft) N 0 0 min 0,000 mm 0,0 UV-I 67 W/m 8,9 C 12,8 C 0,0 km/h (0 Bft) 91,30 %
30.05.2020 13:12 18,8 C 12,8 C 8,3 C 14,4 C 64 % 77 % 1021,4 hPa 0,0 l/m 0,0 km/h (0 Bft) N 0 0 min 0,000 mm 0,0 UV-I 70 W/m 8,9 C 12,8 C 0,0 km/h (0 Bft) 100,00 %
30.05.2020 13:11 18,8 C 12,8 C 8,3 C 14,4 C 63 % 77 % 1021,4 hPa 0,0 l/m 0,0 km/h (0 Bft) N 0 0 min 0,000 mm 0,0 UV-I 72 W/m 8,9 C 12,8 C 0,0 km/h (0 Bft) 86,96 %
30.05.2020 13:10 18,8 C 12,8 C 8,3 C 14,4 C 63 % 77 % 1021,4 hPa 0,0 l/m 0,0 km/h (0 Bft) N 0 0 min 0,000 mm 0,0 UV-I 76 W/m 8,9 C 12,8 C 0,0 km/h (0 Bft) 91,30 %
30.05.2020 13:09 18,8 C 12,8 C 8,3 C 14,4 C 63 % 77 % 1021,4 hPa 0,0 l/m 0,0 km/h (0 Bft) N 0 0 min 0,000 mm 0,0 UV-I 77 W/m 8,9 C 12,8 C 0,0 km/h (0 Bft) 91,30 %
30.05.2020 13:08 18,8 C 12,8 C 8,9 C 14,4 C 64 % 77 % 1021,4 hPa 0,0 l/m 0,0 km/h (0 Bft) N 0 0 min 0,000 mm 0,0 UV-I 83 W/m 8,9 C 12,8 C 0,0 km/h (0 Bft) 95,65 %
30.05.2020 13:07 18,8 C 12,8 C 8,3 C 14,4 C 63 % 77 % 1021,4 hPa 0,0 l/m 0,0 km/h (0 Bft) N 0 0 min 0,000 mm 0,0 UV-I 86 W/m 8,9 C 12,8 C 0,0 km/h (0 Bft) 91,30 %
30.05.2020 13:06 18,8 C 12,8 C 8,3 C 14,4 C 63 % 77 % 1021,4 hPa 0,0 l/m 0,0 km/h (0 Bft) N 0 0 min 0,000 mm 0,0 UV-I 88 W/m 8,9 C 12,8 C 0,0 km/h (0 Bft) 91,30 %
30.05.2020 13:05 18,8 C 12,8 C 8,9 C 14,4 C 64 % 76 % 1021,4 hPa 0,0 l/m 0,0 km/h (0 Bft) N 0 0 min 0,000 mm 0,0 UV-I 90 W/m 8,7 C 12,8 C 0,0 km/h (0 Bft) 100,00 %
30.05.2020 13:04 18,8 C 12,8 C 8,9 C 14,4 C 64 % 77 % 1021,4 hPa 0,0 l/m 0,0 km/h (0 Bft) N 0 0 min 0,000 mm 0,0 UV-I 91 W/m 8,9 C 12,8 C 0,0 km/h (0 Bft) 95,65 %
30.05.2020 13:03 18,8 C 12,8 C 8,9 C 14,4 C 63 % 77 % 1021,4 hPa 0,0 l/m 0,0 km/h (0 Bft) N 0 0 min 0,000 mm 0,8 UV-I 95 W/m 8,9 C 12,8 C 0,0 km/h (0 Bft) 95,65 %
30.05.2020 13:02 18,8 C 12,8 C 8,9 C 14,4 C 64 % 77 % 1021,4 hPa 0,0 l/m 0,0 km/h (0 Bft) N 0 0 min 0,000 mm 0,9 UV-I 100 W/m 8,9 C 12,8 C 0,0 km/h (0 Bft) 95,65 %
30.05.2020 13:01 18,8 C 12,8 C 7,8 C 14,4 C 64 % 77 % 1021,4 hPa 0,0 l/m 0,0 km/h (0 Bft) N 0 0 min 0,000 mm 1,0 UV-I 102 W/m 8,9 C 12,8 C 0,0 km/h (0 Bft) 95,65 %
30.05.2020 13:00 18,8 C 12,8 C 8,3 C 14,4 C 64 % 76 % 1021,4 hPa 0,0 l/m 0,0 km/h (0 Bft) N 0 0 min 0,102 mm 1,2 UV-I 105 W/m 8,7 C 12,8 C 0,0 km/h (0 Bft) 95,65 %
30.05.2020 12:59 18,8 C 12,8 C 8,9 C 14,4 C 64 % 77 % 1021,4 hPa 0,0 l/m 0,0 km/h (0 Bft) N 0 0 min 0,000 mm 1,3 UV-I 109 W/m 8,9 C 12,8 C 0,0 km/h (0 Bft) 95,65 %
30.05.2020 12:58 18,8 C 12,8 C 7,8 C 14,4 C 63 % 78 % 1021,4 hPa 0,0 l/m 0,0 km/h (0 Bft) N 0 0 min 0,000 mm 1,7 UV-I 111 W/m 9,1 C 12,8 C 0,0 km/h (0 Bft) 95,65 %
30.05.2020 12:57 18,8 C 12,7 C 9,4 C 14,4 C 63 % 78 % 1021,4 hPa 0,0 l/m 0,0 km/h (0 Bft) NW 315 0 min 0,000 mm 1,8 UV-I 114 W/m 9,0 C 12,7 C 1,6 km/h (1 Bft) 91,30 %
30.05.2020 12:56 18,8 C 12,7 C 10,6 C 14,4 C 63 % 79 % 1021,4 hPa 0,0 l/m 0,0 km/h (0 Bft) NW 315 0 min 0,000 mm 1,9 UV-I 121 W/m 9,2 C 12,7 C 1,6 km/h (1 Bft) 95,65 %
30.05.2020 12:55 18,8 C 12,7 C 11,1 C 14,4 C 63 % 79 % 1021,4 hPa 0,0 l/m 0,0 km/h (0 Bft) N 0 0 min 0,000 mm 2,1 UV-I 125 W/m 9,2 C 12,7 C 0,0 km/h (0 Bft) 91,30 %
30.05.2020 12:54 18,8 C 12,7 C 12,2 C 14,4 C 63 % 79 % 1021,4 hPa 0,0 l/m 0,0 km/h (0 Bft) N 0 0 min 0,000 mm 2,2 UV-I 130 W/m 9,2 C 12,7 C 0,0 km/h (0 Bft) 95,65 %
30.05.2020 12:53 18,8 C 12,7 C 13,3 C 14,4 C 64 % 79 % 1021,4 hPa 0,0 l/m 0,0 km/h (0 Bft) N 0 0 min 0,000 mm 2,2 UV-I 135 W/m 9,2 C 12,7 C 0,0 km/h (0 Bft) 100,00 %
30.05.2020 12:52 18,8 C 12,7 C 13,9 C 14,4 C 63 % 79 % 1021,4 hPa 0,0 l/m 0,0 km/h (0 Bft) N 0 0 min 0,000 mm 2,4 UV-I 139 W/m 9,2 C 12,7 C 0,0 km/h (0 Bft) 91,30 %
30.05.2020 12:51 18,8 C 12,7 C 15,0 C 14,4 C 63 % 80 % 1021,4 hPa 0,0 l/m 0,0 km/h (0 Bft) N 0 0 min 0,000 mm 2,4 UV-I 144 W/m 9,3 C 12,7 C 0,0 km/h (0 Bft) 91,30 %
30.05.2020 12:50 18,8 C 12,7 C 15,0 C 14,4 C 63 % 80 % 1021,4 hPa 0,0 l/m 0,0 km/h (0 Bft) N 0 1 min 0,000 mm 2,4 UV-I 156 W/m 9,3 C 12,7 C 0,0 km/h (0 Bft) 95,65 %
30.05.2020 12:49 18,8 C 12,6 C 15,0 C 14,4 C 64 % 81 % 1021,4 hPa 0,0 l/m 0,0 km/h (0 Bft) N 0 1 min 0,000 mm 2,5 UV-I 163 W/m 9,4 C 12,6 C 0,0 km/h (0 Bft) 91,30 %
30.05.2020 12:48 18,8 C 12,6 C 15,0 C 14,4 C 64 % 81 % 1021,4 hPa 0,0 l/m 0,0 km/h (0 Bft) N 0 1 min 0,000 mm 2,5 UV-I 171 W/m 9,4 C 12,6 C 0,0 km/h (0 Bft) 95,65 %
30.05.2020 12:47 18,8 C 12,6 C 15,0 C 14,4 C 64 % 81 % 1021,4 hPa 0,0 l/m 0,0 km/h (0 Bft) N 0 1 min 0,000 mm 2,5 UV-I 179 W/m 9,4 C 12,6 C 0,0 km/h (0 Bft) 95,65 %
30.05.2020 12:46 18,8 C 12,6 C 15,0 C 14,4 C 64 % 81 % 1021,4 hPa 0,0 l/m 0,0 km/h (0 Bft) N 0 1 min 0,000 mm 2,4 UV-I 190 W/m 9,4 C 12,6 C 0,0 km/h (0 Bft) 95,65 %
30.05.2020 12:45 18,8 C 12,6 C 10,6 C 14,4 C 63 % 81 % 1021,4 hPa 0,0 l/m 0,0 km/h (0 Bft) N 0 1 min 0,000 mm 2,4 UV-I 207 W/m 9,4 C 12,6 C 0,0 km/h (0 Bft) 91,30 %
30.05.2020 12:44 18,8 C 12,6 C 10,6 C 14,4 C 64 % 82 % 1021,4 hPa 0,0 l/m 0,0 km/h (0 Bft) NW 315 1 min 0,000 mm 2,4 UV-I 214 W/m 9,6 C 12,6 C 1,6 km/h (1 Bft) 100,00 %
30.05.2020 12:43 18,8 C 12,5 C 8,9 C 14,4 C 63 % 82 % 1021,4 hPa 0,0 l/m 0,0 km/h (0 Bft) N 0 1 min 0,000 mm 2,4 UV-I 223 W/m 9,5 C 12,5 C 0,0 km/h (0 Bft) 78,26 %
30.05.2020 12:42 18,8 C 12,5 C 5,6 C 14,4 C 64 % 83 % 1021,4 hPa 0,0 l/m 0,0 km/h (0 Bft) N 0 1 min 0,000 mm 2,4 UV-I 230 W/m 9,7 C 12,5 C 0,0 km/h (0 Bft) 95,65 %
30.05.2020 12:41 18,8 C 12,5 C 5,0 C 14,4 C 64 % 84 % 1021,4 hPa 0,0 l/m 0,0 km/h (0 Bft) NW 315 1 min 0,000 mm 2,4 UV-I 239 W/m 9,9 C 12,5 C 3,2 km/h (1 Bft) 91,30 %
30.05.2020 12:40 18,8 C 12,4 C 7,2 C 14,4 C 63 % 84 % 1021,4 hPa 0,0 l/m 0,0 km/h (0 Bft) N 0 1 min 0,000 mm 2,4 UV-I 246 W/m 9,8 C 12,4 C 0,0 km/h (0 Bft) 91,30 %
30.05.2020 12:39 18,8 C 12,4 C 15,6 C 14,4 C 64 % 83 % 1021,4 hPa 0,0 l/m 0,0 km/h (0 Bft) N 0 1 min 0,000 mm 2,4 UV-I 258 W/m 9,6 C 12,4 C 0,0 km/h (0 Bft) 95,65 %
30.05.2020 12:38 18,8 C 12,4 C -3,9 C 14,4 C 64 % 83 % 1021,4 hPa 0,0 l/m 0,0 km/h (0 Bft) N 0 1 min 0,000 mm 2,4 UV-I 262 W/m 9,6 C 12,4 C 0,0 km/h (0 Bft) 95,65 %
30.05.2020 12:37 18,8 C 12,4 C -4,4 C 14,4 C 63 % 84 % 1021,4 hPa 0,0 l/m 0,0 km/h (0 Bft) N 0 1 min 0,000 mm 2,4 UV-I 264 W/m 9,8 C 12,4 C 0,0 km/h (0 Bft) 95,65 %
30.05.2020 12:36 18,8 C 12,3 C 7,2 C 14,4 C 63 % 84 % 1021,4 hPa 0,0 l/m 0,0 km/h (0 Bft) N 0 1 min 0,000 mm 2,4 UV-I 262 W/m 9,7 C 12,3 C 0,0 km/h (0 Bft) 91,30 %
30.05.2020 12:35 18,8 C 12,3 C 15,0 C 14,4 C 63 % 83 % 1021,4 hPa 0,0 l/m 0,0 km/h (0 Bft) N 0 1 min 0,000 mm 2,4 UV-I 264 W/m 9,5 C 12,3 C 0,0 km/h (0 Bft) 95,65 %
30.05.2020 12:34 18,8 C 12,3 C 16,1 C 14,4 C 64 % 83 % 1021,4 hPa 0,0 l/m 0,0 km/h (0 Bft) N 0 1 min 0,000 mm 2,4 UV-I 265 W/m 9,5 C 12,3 C 0,0 km/h (0 Bft) 91,30 %
30.05.2020 12:33 18,8 C 12,3 C 16,1 C 14,4 C 63 % 84 % 1021,4 hPa 0,0 l/m 0,0 km/h (0 Bft) N 0 1 min 0,000 mm 2,4 UV-I 272 W/m 9,7 C 12,3 C 0,0 km/h (0 Bft) 91,30 %
30.05.2020 12:32 18,8 C 12,3 C 11,1 C 14,4 C 64 % 84 % 1021,4 hPa 0,0 l/m 0,0 km/h (0 Bft) N 0 1 min 0,000 mm 2,4 UV-I 279 W/m 9,7 C 12,3 C 0,0 km/h (0 Bft) 91,30 %
30.05.2020 12:31 18,8 C 12,3 C 6,7 C 14,4 C 64 % 84 % 1021,4 hPa 0,0 l/m 0,0 km/h (0 Bft) N 0 1 min 0,000 mm 2,4 UV-I 287 W/m 9,7 C 12,3 C 0,0 km/h (0 Bft) 95,65 %
30.05.2020 12:30 18,8 C 12,2 C 6,7 C 14,4 C 63 % 84 % 1021,4 hPa 0,0 l/m 0,0 km/h (0 Bft) N 0 1 min 0,000 mm 2,5 UV-I 290 W/m 9,6 C 12,2 C 0,0 km/h (0 Bft) 91,30 %
30.05.2020 12:29 18,8 C 12,2 C 10,6 C 14,4 C 64 % 84 % 1021,5 hPa 0,0 l/m 0,0 km/h (0 Bft) N 0 1 min 0,000 mm 2,4 UV-I 290 W/m 9,6 C 12,2 C 0,0 km/h (0 Bft) 95,65 %
30.05.2020 12:28 18,8 C 12,2 C 15,0 C 14,4 C 64 % 84 % 1021,5 hPa 0,0 l/m 0,0 km/h (0 Bft) N 0 1 min 0,000 mm 2,4 UV-I 283 W/m 9,6 C 12,2 C 0,0 km/h (0 Bft) 91,30 %
30.05.2020 12:27 18,8 C 12,2 C 15,0 C 14,4 C 64 % 85 % 1021,5 hPa 0,0 l/m 1,6 km/h (1 Bft) NW 315 1 min 0,000 mm 2,3 UV-I 271 W/m 9,8 C 12,2 C 4,8 km/h (1 Bft) 91,30 %
30.05.2020 12:26 18,8 C 12,2 C 15,0 C 14,4 C 64 % 86 % 1021,5 hPa 0,0 l/m 1,6 km/h (1 Bft) NW 315 1 min 0,000 mm 2,2 UV-I 239 W/m 9,9 C 12,2 C 4,8 km/h (1 Bft) 100,00 %
30.05.2020 12:25 18,8 C 12,1 C 14,4 C 14,4 C 64 % 86 % 1021,5 hPa 0,0 l/m 0,0 km/h (0 Bft) N 0 1 min 0,000 mm 2,2 UV-I 213 W/m 9,8 C 12,1 C 0,0 km/h (0 Bft) 95,65 %
30.05.2020 12:24 18,8 C 12,1 C 13,3 C 14,4 C 64 % 87 % 1021,5 hPa 0,0 l/m 0,0 km/h (0 Bft) N 0 1 min 0,000 mm 2,2 UV-I 213 W/m 10,0 C 12,1 C 0,0 km/h (0 Bft) 91,30 %
30.05.2020 12:23 18,8 C 12,1 C 13,3 C 14,4 C 64 % 87 % 1021,5 hPa 0,0 l/m 0,0 km/h (0 Bft) N 0 1 min 0,000 mm 2,1 UV-I 207 W/m 10,0 C 12,1 C 0,0 km/h (0 Bft) 100,00 %
30.05.2020 12:22 18,8 C 12,1 C 13,3 C 14,4 C 64 % 87 % 1021,5 hPa 0,0 l/m 0,0 km/h (0 Bft) N 0 1 min 0,000 mm 2,1 UV-I 206 W/m 10,0 C 12,1 C 0,0 km/h (0 Bft) 91,30 %
30.05.2020 12:21 18,8 C 12,1 C 13,9 C 14,4 C 64 % 87 % 1021,5 hPa 0,0 l/m 0,0 km/h (0 Bft) N 0 1 min 0,000 mm 2,1 UV-I 214 W/m 10,0 C 12,1 C 0,0 km/h (0 Bft) 95,65 %
30.05.2020 12:20 18,8 C 12,0 C 13,9 C 14,4 C 64 % 88 % 1021,5 hPa 0,0 l/m 0,0 km/h (0 Bft) N 0 1 min 0,000 mm 2,1 UV-I 223 W/m 10,1 C 12,0 C 0,0 km/h (0 Bft) 86,96 %
30.05.2020 12:19 18,8 C 12,0 C 13,9 C 14,4 C 63 % 88 % 1021,5 hPa 0,0 l/m 0,0 km/h (0 Bft) N 0 1 min 0,000 mm 2,1 UV-I 234 W/m 10,1 C 12,0 C 0,0 km/h (0 Bft) 100,00 %
30.05.2020 12:18 18,8 C 12,0 C 13,3 C 14,4 C 64 % 88 % 1021,5 hPa 0,0 l/m 0,0 km/h (0 Bft) N 0 1 min 0,000 mm 2,1 UV-I 244 W/m 10,1 C 12,0 C 0,0 km/h (0 Bft) 91,30 %
30.05.2020 12:17 18,8 C 12,0 C 13,3 C 14,4 C 64 % 88 % 1021,5 hPa 0,0 l/m 0,0 km/h (0 Bft) NO 45 1 min 0,000 mm 2,1 UV-I 251 W/m 10,1 C 12,0 C 1,6 km/h (1 Bft) 91,30 %
30.05.2020 12:16 18,8 C 12,0 C 13,3 C 14,4 C 64 % 88 % 1021,5 hPa 0,0 l/m 0,0 km/h (0 Bft) NO 45 1 min 0,000 mm 2,1 UV-I 253 W/m 10,1 C 12,0 C 3,2 km/h (1 Bft) 91,30 %
30.05.2020 12:15 18,8 C 11,9 C 13,3 C 14,4 C 64 % 89 % 1021,5 hPa 0,0 l/m 0,0 km/h (0 Bft) N 0 1 min 0,000 mm 2,1 UV-I 255 W/m 10,1 C 11,9 C 0,0 km/h (0 Bft) 91,30 %
30.05.2020 12:14 18,8 C 12,0 C 13,3 C 14,4 C 63 % 89 % 1021,5 hPa 0,0 l/m 0,0 km/h (0 Bft) N 0 1 min 0,000 mm 2,1 UV-I 253 W/m 10,2 C 12,0 C 0,0 km/h (0 Bft) 95,65 %
30.05.2020 12:13 18,8 C 11,9 C 12,8 C 14,4 C 64 % 89 % 1021,5 hPa 0,0 l/m 0,0 km/h (0 Bft) NO 45 1 min 0,000 mm 2,1 UV-I 250 W/m 10,1 C 11,9 C 3,2 km/h (1 Bft) 95,65 %
30.05.2020 12:12 18,8 C 11,9 C 12,8 C 14,4 C 64 % 90 % 1021,5 hPa 0,0 l/m 0,0 km/h (0 Bft) N 0 1 min 0,000 mm 2,0 UV-I 246 W/m 10,3 C 11,9 C 0,0 km/h (0 Bft) 95,65 %
30.05.2020 12:11 18,8 C 11,9 C 12,8 C 14,4 C 64 % 90 % 1021,5 hPa 0,0 l/m 0,0 km/h (0 Bft) N 0 1 min 0,000 mm 1,9 UV-I 239 W/m 10,3 C 11,9 C 0,0 km/h (0 Bft) 91,30 %
30.05.2020 12:10 18,8 C 11,9 C 12,2 C 14,4 C 63 % 90 % 1021,5 hPa 0,0 l/m 0,0 km/h (0 Bft) N 0 1 min 0,000 mm 1,9 UV-I 232 W/m 10,3 C 11,9 C 0,0 km/h (0 Bft) 100,00 %
30.05.2020 12:09 18,8 C 11,9 C 12,2 C 14,4 C 64 % 89 % 1021,5 hPa 0,0 l/m 0,0 km/h (0 Bft) N 0 1 min 0,000 mm 1,9 UV-I 214 W/m 10,1 C 11,9 C 0,0 km/h (0 Bft) 86,96 %
30.05.2020 12:08 18,8 C 11,9 C 12,2 C 14,4 C 63 % 89 % 1021,5 hPa 0,0 l/m 0,0 km/h (0 Bft) N 0 1 min 0,000 mm 1,8 UV-I 193 W/m 10,1 C 11,9 C 0,0 km/h (0 Bft) 95,65 %
30.05.2020 12:07 18,8 C 11,9 C 12,2 C 14,4 C 63 % 89 % 1021,5 hPa 0,0 l/m 0,0 km/h (0 Bft) N 0 1 min 0,000 mm 1,8 UV-I 193 W/m 10,1 C 11,9 C 0,0 km/h (0 Bft) 95,65 %
30.05.2020 12:06 18,8 C 11,9 C 12,2 C 14,4 C 64 % 90 % 1021,5 hPa 0,0 l/m 0,0 km/h (0 Bft) N 0 1 min 0,000 mm 1,7 UV-I 183 W/m 10,3 C 11,9 C 0,0 km/h (0 Bft) 95,65 %
30.05.2020 12:05 18,8 C 11,8 C 11,7 C 14,4 C 64 % 89 % 1021,5 hPa 0,0 l/m 0,0 km/h (0 Bft) N 0 1 min 0,000 mm 1,7 UV-I 172 W/m 10,0 C 11,8 C 0,0 km/h (0 Bft) 91,30 %
30.05.2020 12:04 18,8 C 11,8 C 11,7 C 14,4 C 63 % 89 % 1021,5 hPa 0,0 l/m 0,0 km/h (0 Bft) N 360 1 min 0,000 mm 1,6 UV-I 162 W/m 10,0 C 11,8 C 1,6 km/h (1 Bft) 100,00 %
30.05.2020 12:03 18,8 C 11,8 C 11,7 C 14,4 C 63 % 89 % 1021,5 hPa 0,0 l/m 0,0 km/h (0 Bft) N 0 0 min 0,000 mm 1,6 UV-I 146 W/m 10,0 C 11,8 C 0,0 km/h (0 Bft) 86,96 %
30.05.2020 12:02 18,8 C 11,8 C 11,7 C 14,4 C 64 % 89 % 1021,5 hPa 0,0 l/m 0,0 km/h (0 Bft) N 0 0 min 0,000 mm 1,6 UV-I 141 W/m 10,0 C 11,8 C 0,0 km/h (0 Bft) 91,30 %
30.05.2020 12:01 18,8 C 11,8 C 11,7 C 14,4 C 64 % 89 % 1021,5 hPa 0,0 l/m 0,0 km/h (0 Bft) N 0 0 min 0,000 mm 1,5 UV-I 134 W/m 10,0 C 11,8 C 0,0 km/h (0 Bft) 91,30 %
30.05.2020 12:00 18,8 C 11,8 C 11,7 C 14,4 C 64 % 89 % 1021,5 hPa 0,0 l/m 0,0 km/h (0 Bft) N 0 0 min 0,051 mm 1,5 UV-I 128 W/m 10,0 C 11,8 C 0,0 km/h (0 Bft) 91,30 %
30.05.2020 11:59 18,8 C 11,8 C 11,1 C 14,4 C 64 % 89 % 1021,5 hPa 0,0 l/m 0,0 km/h (0 Bft) N 0 0 min 0,000 mm 1,5 UV-I 123 W/m 10,0 C 11,8 C 0,0 km/h (0 Bft) 95,65 %
30.05.2020 11:58 18,8 C 11,8 C 11,1 C 13,9 C 64 % 89 % 1021,5 hPa 0,0 l/m 0,0 km/h (0 Bft) N 0 0 min 0,000 mm 1,4 UV-I 118 W/m 10,0 C 11,8 C 0,0 km/h (0 Bft) 95,65 %
30.05.2020 11:57 18,8 C 11,7 C 11,1 C 13,9 C 64 % 89 % 1021,5 hPa 0,0 l/m 0,0 km/h (0 Bft) N 360 0 min 0,000 mm 1,3 UV-I 113 W/m 9,9 C 11,7 C 3,2 km/h (1 Bft) 95,65 %
30.05.2020 11:56 18,8 C 11,7 C 11,1 C 13,9 C 63 % 89 % 1021,5 hPa 0,0 l/m 0,0 km/h (0 Bft) N 0 0 min 0,000 mm 1,3 UV-I 111 W/m 9,9 C 11,7 C 0,0 km/h (0 Bft) 86,96 %
30.05.2020 11:55 18,8 C 11,7 C 11,1 C 13,9 C 64 % 89 % 1021,5 hPa 0,0 l/m 0,0 km/h (0 Bft) N 0 0 min 0,000 mm 1,3 UV-I 109 W/m 9,9 C 11,7 C 0,0 km/h (0 Bft) 100,00 %
30.05.2020 11:54 18,8 C 11,7 C 11,1 C 13,9 C 64 % 89 % 1021,5 hPa 0,0 l/m 0,0 km/h (0 Bft) N 0 0 min 0,000 mm 1,3 UV-I 107 W/m 9,9 C 11,7 C 0,0 km/h (0 Bft) 91,30 %
30.05.2020 11:53 18,8 C 11,7 C 11,1 C 13,9 C 64 % 89 % 1021,5 hPa 0,0 l/m 0,0 km/h (0 Bft) N 0 0 min 0,000 mm 1,3 UV-I 107 W/m 9,9 C 11,7 C 0,0 km/h (0 Bft) 91,30 %
30.05.2020 11:52 18,8 C 11,7 C 10,6 C 13,9 C 64 % 89 % 1021,5 hPa 0,0 l/m 0,0 km/h (0 Bft) N 0 0 min 0,000 mm 1,2 UV-I 105 W/m 9,9 C 11,7 C 0,0 km/h (0 Bft) 86,96 %
30.05.2020 11:51 18,8 C 11,7 C 10,6 C 13,9 C 64 % 89 % 1021,5 hPa 0,0 l/m 0,0 km/h (0 Bft) N 0 0 min 0,000 mm 1,2 UV-I 104 W/m 9,9 C 11,7 C 0,0 km/h (0 Bft) 95,65 %
30.05.2020 11:50 18,8 C 11,7 C 10,6 C 13,9 C 64 % 89 % 1021,5 hPa 0,0 l/m 0,0 km/h (0 Bft) N 0 0 min 0,000 mm 1,2 UV-I 104 W/m 9,9 C 11,7 C 0,0 km/h (0 Bft) 91,30 %
30.05.2020 11:49 18,8 C 11,7 C 10,6 C 13,9 C 64 % 89 % 1021,5 hPa 0,0 l/m 0,0 km/h (0 Bft) N 0 0 min 0,000 mm 1,2 UV-I 104 W/m 9,9 C 11,7 C 0,0 km/h (0 Bft) 100,00 %
30.05.2020 11:48 18,8 C 11,7 C 10,6 C 13,9 C 64 % 89 % 1021,5 hPa 0,0 l/m 0,0 km/h (0 Bft) N 0 0 min 0,000 mm 1,1 UV-I 102 W/m 9,9 C 11,7 C 0,0 km/h (0 Bft) 86,96 %
30.05.2020 11:47 18,8 C 11,7 C 10,6 C 13,9 C 63 % 89 % 1021,5 hPa 0,0 l/m 0,0 km/h (0 Bft) N 0 0 min 0,000 mm 1,1 UV-I 102 W/m 9,9 C 11,7 C 0,0 km/h (0 Bft) 91,30 %
30.05.2020 11:46 18,8 C 11,7 C 10,6 C 13,9 C 64 % 89 % 1021,5 hPa 0,0 l/m 0,0 km/h (0 Bft) N 0 0 min 0,000 mm 1,1 UV-I 102 W/m 9,9 C 11,7 C 0,0 km/h (0 Bft) 95,65 %
30.05.2020 11:45 18,8 C 11,7 C 10,6 C 13,9 C 64 % 89 % 1021,5 hPa 0,0 l/m 0,0 km/h (0 Bft) N 0 0 min 0,000 mm 1,1 UV-I 100 W/m 9,9 C 11,7 C 0,0 km/h (0 Bft) 95,65 %
30.05.2020 11:44 18,8 C 11,7 C 10,6 C 13,9 C 63 % 89 % 1021,4 hPa 0,0 l/m 0,0 km/h (0 Bft) N 0 0 min 0,000 mm 1,1 UV-I 98 W/m 9,9 C 11,7 C 0,0 km/h (0 Bft) 91,30 %
30.05.2020 11:43 18,8 C 11,7 C 10,6 C 13,9 C 63 % 89 % 1021,4 hPa 0,0 l/m 0,0 km/h (0 Bft) N 0 0 min 0,000 mm 1,0 UV-I 97 W/m 9,9 C 11,7 C 0,0 km/h (0 Bft) 86,96 %
30.05.2020 11:42 18,8 C 11,7 C 10,6 C 13,9 C 64 % 89 % 1021,4 hPa 0,0 l/m 0,0 km/h (0 Bft) N 0 0 min 0,000 mm 0,9 UV-I 93 W/m 9,9 C 11,7 C 0,0 km/h (0 Bft) 95,65 %
30.05.2020 11:41 18,8 C 11,7 C 10,6 C 13,9 C 64 % 89 % 1021,4 hPa 0,0 l/m 0,0 km/h (0 Bft) N 0 0 min 0,000 mm 0,8 UV-I 90 W/m 9,9 C 11,7 C 0,0 km/h (0 Bft) 86,96 %
30.05.2020 11:40 18,8 C 11,7 C 10,0 C 13,9 C 63 % 89 % 1021,4 hPa 0,0 l/m 0,0 km/h (0 Bft) N 360 0 min 0,000 mm 0,8 UV-I 90 W/m 9,9 C 11,7 C 1,6 km/h (1 Bft) 95,65 %
30.05.2020 11:39 18,8 C 11,7 C 10,6 C 13,9 C 64 % 88 % 1021,4 hPa 0,0 l/m 1,6 km/h (1 Bft) N 360 0 min 0,000 mm 0,8 UV-I 91 W/m 9,8 C 11,7 C 4,8 km/h (1 Bft) 91,30 %
30.05.2020 11:38 18,8 C 11,7 C 10,6 C 13,9 C 64 % 88 % 1021,4 hPa 0,0 l/m 0,0 km/h (0 Bft) N 0 0 min 0,000 mm 0,9 UV-I 93 W/m 9,8 C 11,7 C 0,0 km/h (0 Bft) 95,65 %
30.05.2020 11:37 18,8 C 11,7 C 10,6 C 13,9 C 64 % 88 % 1021,4 hPa 0,0 l/m 0,0 km/h (0 Bft) N 0 0 min 0,000 mm 1,0 UV-I 97 W/m 9,8 C 11,7 C 0,0 km/h (0 Bft) 95,65 %
30.05.2020 11:36 18,8 C 11,7 C 10,6 C 13,9 C 64 % 88 % 1021,4 hPa 0,0 l/m 0,0 km/h (0 Bft) N 360 0 min 0,000 mm 1,1 UV-I 98 W/m 9,8 C 11,7 C 1,6 km/h (1 Bft) 95,65 %
30.05.2020 11:35 18,8 C 11,7 C 10,6 C 13,9 C 63 % 88 % 1021,4 hPa 0,0 l/m 0,0 km/h (0 Bft) N 0 0 min 0,000 mm 1,1 UV-I 98 W/m 9,8 C 11,7 C 0,0 km/h (0 Bft) 91,30 %
30.05.2020 11:34 18,8 C 11,7 C 10,6 C 13,9 C 64 % 88 % 1021,4 hPa 0,0 l/m 0,0 km/h (0 Bft) N 360 0 min 0,000 mm 1,1 UV-I 98 W/m 9,8 C 11,7 C 1,6 km/h (1 Bft) 100,00 %
30.05.2020 11:33 18,8 C 11,7 C 10,6 C 13,9 C 63 % 89 % 1021,4 hPa 0,0 l/m 0,0 km/h (0 Bft) N 0 0 min 0,000 mm 1,1 UV-I 98 W/m 9,9 C 11,7 C 0,0 km/h (0 Bft) 86,96 %
30.05.2020 11:32 18,8 C 11,7 C 10,6 C 13,9 C 64 % 88 % 1021,4 hPa 0,0 l/m 0,0 km/h (0 Bft) N 0 0 min 0,000 mm 1,1 UV-I 98 W/m 9,8 C 11,7 C 0,0 km/h (0 Bft) 91,30 %
30.05.2020 11:31 18,8 C 11,7 C 10,6 C 13,9 C 64 % 88 % 1021,4 hPa 0,0 l/m 0,0 km/h (0 Bft) N 0 0 min 0,000 mm 1,1 UV-I 97 W/m 9,8 C 11,7 C 0,0 km/h (0 Bft) 91,30 %
30.05.2020 11:30 18,8 C 11,7 C 10,0 C 13,9 C 63 % 88 % 1021,4 hPa 0,0 l/m 0,0 km/h (0 Bft) N 0 0 min 0,000 mm 1,0 UV-I 95 W/m 9,8 C 11,7 C 0,0 km/h (0 Bft) 100,00 %
30.05.2020 11:29 18,8 C 11,7 C 10,0 C 13,9 C 64 % 88 % 1021,4 hPa 0,0 l/m 0,0 km/h (0 Bft) N 0 0 min 0,000 mm 0,9 UV-I 95 W/m 9,8 C 11,7 C 0,0 km/h (0 Bft) 91,30 %
30.05.2020 11:28 18,8 C 11,7 C 10,6 C 13,9 C 64 % 88 % 1021,4 hPa 0,0 l/m 0,0 km/h (0 Bft) N 360 0 min 0,000 mm 0,7 UV-I 90 W/m 9,8 C 11,7 C 3,2 km/h (1 Bft) 91,30 %
30.05.2020 11:27 18,8 C 11,7 C 10,6 C 13,9 C 63 % 88 % 1021,4 hPa 0,0 l/m 0,0 km/h (0 Bft) N 360 0 min 0,000 mm 0,0 UV-I 86 W/m 9,8 C 11,7 C 3,2 km/h (1 Bft) 100,00 %
30.05.2020 11:26 18,8 C 11,7 C 10,6 C 13,9 C 63 % 88 % 1021,4 hPa 0,0 l/m 0,0 km/h (0 Bft) N 360 0 min 0,000 mm 0,0 UV-I 81 W/m 9,8 C 11,7 C 3,2 km/h (1 Bft) 91,30 %
30.05.2020 11:25 18,8 C 11,7 C 10,6 C 13,9 C 63 % 88 % 1021,4 hPa 0,0 l/m 3,2 km/h (1 Bft) N 360 0 min 0,000 mm 0,0 UV-I 74 W/m 9,8 C 11,7 C 4,8 km/h (1 Bft) 91,30 %
30.05.2020 11:24 18,8 C 11,7 C 10,6 C 13,9 C 64 % 88 % 1021,4 hPa 0,0 l/m 0,0 km/h (0 Bft) N 360 0 min 0,000 mm 0,0 UV-I 69 W/m 9,8 C 11,7 C 1,6 km/h (1 Bft) 95,65 %
30.05.2020 11:23 18,8 C 11,7 C 11,1 C 13,9 C 64 % 88 % 1021,4 hPa 0,0 l/m 0,0 km/h (0 Bft) N 0 0 min 0,000 mm 0,0 UV-I 63 W/m 9,8 C 11,7 C 0,0 km/h (0 Bft) 91,30 %
30.05.2020 11:22 18,8 C 11,7 C 11,1 C 13,9 C 64 % 88 % 1021,4 hPa 0,0 l/m 0,0 km/h (0 Bft) N-NW 337 0 min 0,000 mm 0,0 UV-I 60 W/m 9,8 C 11,7 C 3,2 km/h (1 Bft) 86,96 %
30.05.2020 11:21 18,8 C 11,7 C 11,1 C 13,9 C 63 % 88 % 1021,4 hPa 0,0 l/m 1,6 km/h (1 Bft) N-NW 337 0 min 0,000 mm 0,0 UV-I 62 W/m 9,8 C 11,7 C 4,8 km/h (1 Bft) 95,65 %
30.05.2020 11:20 18,8 C 11,7 C 11,1 C 13,9 C 64 % 88 % 1021,4 hPa 0,0 l/m 0,0 km/h (0 Bft) N 0 0 min 0,000 mm 0,0 UV-I 63 W/m 9,8 C 11,7 C 0,0 km/h (0 Bft) 86,96 %
30.05.2020 11:19 18,8 C 11,7 C 11,1 C 13,9 C 63 % 88 % 1021,4 hPa 0,0 l/m 0,0 km/h (0 Bft) N 0 0 min 0,000 mm 0,0 UV-I 67 W/m 9,8 C 11,7 C 0,0 km/h (0 Bft) 95,65 %
30.05.2020 11:18 18,8 C 11,7 C 11,1 C 13,9 C 63 % 88 % 1021,4 hPa 0,0 l/m 0,0 km/h (0 Bft) N 0 0 min 0,000 mm 0,0 UV-I 69 W/m 9,8 C 11,7 C 0,0 km/h (0 Bft) 91,30 %
30.05.2020 11:17 18,8 C 11,7 C 11,1 C 13,9 C 64 % 88 % 1021,4 hPa 0,0 l/m 0,0 km/h (0 Bft) N 0 0 min 0,000 mm 0,0 UV-I 74 W/m 9,8 C 11,7 C 0,0 km/h (0 Bft) 91,30 %
30.05.2020 11:16 18,8 C 11,7 C 11,1 C 13,9 C 64 % 88 % 1021,4 hPa 0,0 l/m 0,0 km/h (0 Bft) N 0 0 min 0,000 mm 0,0 UV-I 76 W/m 9,8 C 11,7 C 0,0 km/h (0 Bft) 86,96 %
30.05.2020 11:15 18,8 C 11,7 C 11,1 C 13,9 C 64 % 89 % 1021,4 hPa 0,0 l/m 0,0 km/h (0 Bft) W-NW 292 0 min 0,000 mm 0,0 UV-I 77 W/m 9,9 C 11,7 C 1,6 km/h (1 Bft) 95,65 %
30.05.2020 11:14 18,8 C 11,7 C 11,1 C 13,9 C 63 % 89 % 1021,4 hPa 0,0 l/m 0,0 km/h (0 Bft) N 0 0 min 0,000 mm 0,0 UV-I 79 W/m 9,9 C 11,7 C 0,0 km/h (0 Bft) 86,96 %
30.05.2020 11:13 18,8 C 11,7 C 11,1 C 13,9 C 63 % 89 % 1021,4 hPa 0,0 l/m 0,0 km/h (0 Bft) N 0 0 min 0,000 mm 0,0 UV-I 81 W/m 9,9 C 11,7 C 0,0 km/h (0 Bft) 95,65 %
30.05.2020 11:12 18,8 C 11,7 C 11,1 C 13,9 C 64 % 89 % 1021,4 hPa 0,0 l/m 0,0 km/h (0 Bft) N 0 0 min 0,000 mm 0,0 UV-I 83 W/m 9,9 C 11,7 C 0,0 km/h (0 Bft) 86,96 %
30.05.2020 11:11 18,8 C 11,7 C 11,7 C 13,9 C 63 % 89 % 1021,4 hPa 0,0 l/m 0,0 km/h (0 Bft) N 0 0 min 0,000 mm 0,0 UV-I 86 W/m 9,9 C 11,7 C 0,0 km/h (0 Bft) 86,96 %
30.05.2020 11:10 18,8 C 11,7 C 11,7 C 13,9 C 64 % 89 % 1021,4 hPa 0,0 l/m 0,0 km/h (0 Bft) N 0 0 min 0,000 mm 0,0 UV-I 88 W/m 9,9 C 11,7 C 0,0 km/h (0 Bft) 86,96 %
30.05.2020 11:09 18,8 C 11,7 C 11,7 C 13,9 C 64 % 89 % 1021,4 hPa 0,0 l/m 0,0 km/h (0 Bft) N 0 0 min 0,000 mm 0,0 UV-I 90 W/m 9,9 C 11,7 C 0,0 km/h (0 Bft) 91,30 %
30.05.2020 11:08 18,8 C 11,7 C 11,7 C 13,9 C 64 % 89 % 1021,4 hPa 0,0 l/m 0,0 km/h (0 Bft) N 0 0 min 0,000 mm 0,0 UV-I 93 W/m 9,9 C 11,7 C 0,0 km/h (0 Bft) 95,65 %
30.05.2020 11:07 18,8 C 11,7 C 11,7 C 13,9 C 64 % 90 % 1021,4 hPa 0,0 l/m 0,0 km/h (0 Bft) N 0 0 min 0,000 mm 0,0 UV-I 95 W/m 10,1 C 11,7 C 0,0 km/h (0 Bft) 91,30 %
30.05.2020 11:06 18,8 C 11,7 C 11,7 C 13,9 C 64 % 89 % 1021,4 hPa 0,0 l/m 0,0 km/h (0 Bft) N 0 0 min 0,000 mm 0,5 UV-I 98 W/m 9,9 C 11,7 C 0,0 km/h (0 Bft) 100,00 %
30.05.2020 11:05 18,8 C 11,7 C 11,7 C 13,9 C 64 % 90 % 1021,4 hPa 0,0 l/m 0,0 km/h (0 Bft) N 0 0 min 0,000 mm 0,7 UV-I 102 W/m 10,1 C 11,7 C 0,0 km/h (0 Bft) 82,61 %
30.05.2020 11:04 18,8 C 11,7 C 11,7 C 13,9 C 64 % 90 % 1021,4 hPa 0,0 l/m 0,0 km/h (0 Bft) N 0 0 min 0,000 mm 0,8 UV-I 105 W/m 10,1 C 11,7 C 0,0 km/h (0 Bft) 95,65 %
30.05.2020 11:03 18,8 C 11,7 C 11,7 C 13,9 C 64 % 90 % 1021,4 hPa 0,0 l/m 0,0 km/h (0 Bft) N 0 0 min 0,000 mm 1,0 UV-I 109 W/m 10,1 C 11,7 C 0,0 km/h (0 Bft) 91,30 %
30.05.2020 11:02 18,8 C 11,7 C 11,7 C 13,9 C 63 % 90 % 1021,4 hPa 0,0 l/m 0,0 km/h (0 Bft) N 0 0 min 0,000 mm 1,2 UV-I 114 W/m 10,1 C 11,7 C 0,0 km/h (0 Bft) 91,30 %
30.05.2020 11:01 18,8 C 11,7 C 11,7 C 13,9 C 64 % 90 % 1021,4 hPa 0,0 l/m 0,0 km/h (0 Bft) N 0 0 min 0,000 mm 1,3 UV-I 118 W/m 10,1 C 11,7 C 0,0 km/h (0 Bft) 86,96 %
30.05.2020 11:00 18,8 C 11,6 C 11,7 C 13,9 C 64 % 90 % 1021,4 hPa 0,0 l/m 0,0 km/h (0 Bft) N 0 0 min 0,127 mm 1,5 UV-I 121 W/m 10,0 C 11,6 C 0,0 km/h (0 Bft) 91,30 %
30.05.2020 10:59 18,8 C 11,6 C 11,7 C 13,9 C 64 % 90 % 1021,4 hPa 0,0 l/m 0,0 km/h (0 Bft) N 0 0 min 0,000 mm 1,6 UV-I 128 W/m 10,0 C 11,6 C 0,0 km/h (0 Bft) 86,96 %
30.05.2020 10:58 18,8 C 11,6 C 12,2 C 13,9 C 63 % 90 % 1021,4 hPa 0,0 l/m 0,0 km/h (0 Bft) N 0 0 min 0,000 mm 1,7 UV-I 134 W/m 10,0 C 11,6 C 0,0 km/h (0 Bft) 91,30 %
30.05.2020 10:57 18,8 C 11,6 C 12,2 C 13,9 C 64 % 91 % 1021,4 hPa 0,0 l/m 0,0 km/h (0 Bft) N 0 0 min 0,000 mm 1,8 UV-I 139 W/m 10,2 C 11,6 C 0,0 km/h (0 Bft) 95,65 %
30.05.2020 10:56 18,8 C 11,6 C 12,2 C 13,9 C 64 % 91 % 1021,4 hPa 0,0 l/m 0,0 km/h (0 Bft) N 0 0 min 0,000 mm 1,9 UV-I 142 W/m 10,2 C 11,6 C 0,0 km/h (0 Bft) 82,61 %
30.05.2020 10:55 18,8 C 11,6 C 12,8 C 13,9 C 63 % 91 % 1021,4 hPa 0,0 l/m 0,0 km/h (0 Bft) N 0 0 min 0,000 mm 2,0 UV-I 146 W/m 10,2 C 11,6 C 0,0 km/h (0 Bft) 86,96 %
30.05.2020 10:54 18,8 C 11,6 C 13,3 C 13,9 C 63 % 92 % 1021,4 hPa 0,0 l/m 0,0 km/h (0 Bft) N 0 0 min 0,000 mm 2,1 UV-I 151 W/m 10,3 C 11,6 C 0,0 km/h (0 Bft) 91,30 %
30.05.2020 10:53 18,8 C 11,5 C 13,9 C 13,9 C 64 % 92 % 1021,4 hPa 0,0 l/m 0,0 km/h (0 Bft) W-NW 292 1 min 0,000 mm 2,1 UV-I 158 W/m 10,2 C 11,5 C 1,6 km/h (1 Bft) 95,65 %
30.05.2020 10:52 18,8 C 11,5 C 13,3 C 13,9 C 64 % 92 % 1021,4 hPa 0,0 l/m 0,0 km/h (0 Bft) N 0 1 min 0,000 mm 2,2 UV-I 163 W/m 10,2 C 11,5 C 0,0 km/h (0 Bft) 91,30 %
30.05.2020 10:51 18,8 C 11,4 C 13,9 C 13,9 C 64 % 92 % 1021,4 hPa 0,0 l/m 0,0 km/h (0 Bft) N 0 1 min 0,000 mm 2,2 UV-I 167 W/m 10,1 C 11,4 C 0,0 km/h (0 Bft) 100,00 %
30.05.2020 10:50 18,8 C 11,4 C 13,3 C 13,9 C 63 % 92 % 1021,4 hPa 0,0 l/m 0,0 km/h (0 Bft) N 0 1 min 0,000 mm 2,3 UV-I 172 W/m 10,1 C 11,4 C 0,0 km/h (0 Bft) 86,96 %
30.05.2020 10:49 18,8 C 11,4 C 13,9 C 13,9 C 64 % 92 % 1021,4 hPa 0,0 l/m 0,0 km/h (0 Bft) N 0 1 min 0,000 mm 2,4 UV-I 178 W/m 10,1 C 11,4 C 0,0 km/h (0 Bft) 95,65 %
30.05.2020 10:48 18,8 C 11,4 C 13,9 C 13,9 C 63 % 92 % 1021,4 hPa 0,0 l/m 0,0 km/h (0 Bft) N 0 1 min 0,000 mm 2,4 UV-I 188 W/m 10,1 C 11,4 C 0,0 km/h (0 Bft) 95,65 %
30.05.2020 10:47 18,8 C 11,4 C 14,4 C 13,9 C 64 % 93 % 1021,4 hPa 0,0 l/m 0,0 km/h (0 Bft) N 0 1 min 0,000 mm 2,4 UV-I 199 W/m 10,3 C 11,4 C 0,0 km/h (0 Bft) 95,65 %
30.05.2020 10:46 18,8 C 11,4 C 14,4 C 13,9 C 64 % 93 % 1021,4 hPa 0,0 l/m 0,0 km/h (0 Bft) N 0 1 min 0,000 mm 2,5 UV-I 199 W/m 10,3 C 11,4 C 0,0 km/h (0 Bft) 91,30 %
30.05.2020 10:45 18,8 C 11,3 C 15,0 C 13,9 C 64 % 93 % 1021,4 hPa 0,0 l/m 1,6 km/h (1 Bft) W-NW 292 1 min 0,000 mm 2,5 UV-I 206 W/m 10,2 C 11,3 C 3,2 km/h (1 Bft) 100,00 %
30.05.2020 10:44 18,8 C 11,3 C 15,0 C 13,9 C 63 % 93 % 1021,5 hPa 0,0 l/m 0,0 km/h (0 Bft) W-NW 292 1 min 0,000 mm 2,5 UV-I 213 W/m 10,2 C 11,3 C 3,2 km/h (1 Bft) 91,30 %
30.05.2020 10:43 18,8 C 11,3 C 13,3 C 13,9 C 64 % 94 % 1021,5 hPa 0,0 l/m 0,0 km/h (0 Bft) W-NW 292 1 min 0,000 mm 2,6 UV-I 221 W/m 10,4 C 11,3 C 1,6 km/h (1 Bft) 95,65 %
30.05.2020 10:42 18,8 C 11,3 C 5,0 C 13,9 C 64 % 94 % 1021,5 hPa 0,0 l/m 0,0 km/h (0 Bft) W-NW 292 1 min 0,000 mm 2,6 UV-I 241 W/m 10,4 C 11,3 C 3,2 km/h (1 Bft) 91,30 %
30.05.2020 10:41 18,8 C 11,3 C 5,0 C 13,9 C 64 % 94 % 1021,5 hPa 0,0 l/m 1,6 km/h (1 Bft) W-NW 292 1 min 0,000 mm 2,6 UV-I 251 W/m 10,4 C 11,3 C 4,8 km/h (1 Bft) 91,30 %
30.05.2020 10:40 18,8 C 11,2 C 5,0 C 13,9 C 64 % 94 % 1021,5 hPa 0,0 l/m 0,0 km/h (0 Bft) N 0 1 min 0,000 mm 2,6 UV-I 264 W/m 10,3 C 11,2 C 0,0 km/h (0 Bft) 91,30 %
30.05.2020 10:39 18,8 C 11,2 C 5,0 C 13,9 C 64 % 94 % 1021,5 hPa 0,0 l/m 0,0 km/h (0 Bft) N 0 1 min 0,000 mm 2,7 UV-I 276 W/m 10,3 C 11,2 C 0,0 km/h (0 Bft) 91,30 %
30.05.2020 10:38 18,8 C 11,2 C 5,6 C 13,9 C 63 % 95 % 1021,5 hPa 0,0 l/m 0,0 km/h (0 Bft) N 0 1 min 0,000 mm 2,7 UV-I 292 W/m 10,4 C 11,2 C 0,0 km/h (0 Bft) 100,00 %
30.05.2020 10:37 18,8 C 11,2 C 5,6 C 13,9 C 63 % 95 % 1021,5 hPa 0,0 l/m 3,2 km/h (1 Bft) W-NW 292 1 min 0,000 mm 2,7 UV-I 308 W/m 10,4 C 11,2 C 6,4 km/h (2 Bft) 86,96 %
30.05.2020 10:36 18,8 C 11,1 C 5,6 C 13,9 C 64 % 95 % 1021,5 hPa 0,0 l/m 3,2 km/h (1 Bft) W-NW 292 1 min 0,000 mm 2,7 UV-I 348 W/m 10,3 C 11,1 C 6,4 km/h (2 Bft) 91,30 %
30.05.2020 10:35 18,8 C 11,1 C 0,0 C 13,9 C 63 % 95 % 1021,5 hPa 0,0 l/m 0,0 km/h (0 Bft) W-NW 292 1 min 0,000 mm 2,7 UV-I 376 W/m 10,3 C 11,1 C 3,2 km/h (1 Bft) 95,65 %
30.05.2020 10:34 18,8 C 11,0 C 0,0 C 13,9 C 64 % 95 % 1021,5 hPa 0,0 l/m 0,0 km/h (0 Bft) N 0 1 min 0,000 mm 2,8 UV-I 425 W/m 10,2 C 11,0 C 0,0 km/h (0 Bft) 95,65 %
30.05.2020 10:33 18,8 C 11,0 C -1,1 C 13,9 C 64 % 95 % 1021,5 hPa 0,0 l/m 1,6 km/h (1 Bft) W-NW 292 1 min 0,000 mm 3,0 UV-I 480 W/m 10,2 C 11,0 C 4,8 km/h (1 Bft) 91,30 %
30.05.2020 10:32 18,8 C 10,9 C -1,1 C 13,9 C 64 % 95 % 1021,5 hPa 0,0 l/m 0,0 km/h (0 Bft) W-NW 292 1 min 0,000 mm 3,1 UV-I 548 W/m 10,1 C 10,9 C 4,8 km/h (1 Bft) 100,00 %
30.05.2020 10:31 18,8 C 10,9 C -0,6 C 13,9 C 64 % 95 % 1021,5 hPa 0,0 l/m 1,6 km/h (1 Bft) W-NW 292 1 min 0,000 mm 3,1 UV-I 520 W/m 10,1 C 10,9 C 4,8 km/h (1 Bft) 91,30 %
30.05.2020 10:30 18,8 C 10,9 C -1,7 C 13,9 C 64 % 96 % 1021,5 hPa 0,0 l/m 1,6 km/h (1 Bft) W-NW 292 1 min 0,000 mm 3,0 UV-I 520 W/m 10,3 C 10,9 C 4,8 km/h (1 Bft) 91,30 %
30.05.2020 10:29 18,8 C 10,8 C 3,9 C 13,9 C 64 % 95 % 1021,4 hPa 0,0 l/m 1,6 km/h (1 Bft) W-NW 292 1 min 0,000 mm 3,0 UV-I 510 W/m 10,0 C 10,8 C 4,8 km/h (1 Bft) 95,65 %
30.05.2020 10:28 18,8 C 10,8 C 17,8 C 13,9 C 63 % 96 % 1021,4 hPa 0,0 l/m 3,2 km/h (1 Bft) W-NW 292 1 min 0,000 mm 2,9 UV-I 503 W/m 10,2 C 10,8 C 4,8 km/h (1 Bft) 95,65 %
30.05.2020 10:27 18,8 C 10,7 C 3,3 C 13,9 C 64 % 96 % 1021,4 hPa 0,0 l/m 0,0 km/h (0 Bft) W-NW 292 1 min 0,000 mm 2,8 UV-I 455 W/m 10,1 C 10,7 C 1,6 km/h (1 Bft) 91,30 %
30.05.2020 10:26 18,8 C 10,7 C 9,4 C 13,9 C 64 % 96 % 1021,4 hPa 0,0 l/m 1,6 km/h (1 Bft) W-NW 292 1 min 0,000 mm 2,7 UV-I 445 W/m 10,1 C 10,7 C 4,8 km/h (1 Bft) 100,00 %
30.05.2020 10:25 18,8 C 10,6 C 5,0 C 13,9 C 64 % 96 % 1021,4 hPa 0,0 l/m 0,0 km/h (0 Bft) W-NW 292 1 min 0,000 mm 2,6 UV-I 446 W/m 10,0 C 10,6 C 1,6 km/h (1 Bft) 86,96 %
30.05.2020 10:24 18,8 C 10,6 C 2,8 C 13,9 C 64 % 96 % 1021,4 hPa 0,0 l/m 3,2 km/h (1 Bft) W-NW 292 1 min 0,000 mm 2,5 UV-I 450 W/m 10,0 C 10,6 C 4,8 km/h (1 Bft) 86,96 %
30.05.2020 10:23 18,8 C 10,6 C 2,8 C 13,9 C 63 % 96 % 1021,4 hPa 0,0 l/m 3,2 km/h (1 Bft) W-NW 292 1 min 0,000 mm 2,5 UV-I 425 W/m 10,0 C 10,6 C 4,8 km/h (1 Bft) 95,65 %
30.05.2020 10:22 18,8 C 10,5 C 2,8 C 13,9 C 63 % 96 % 1021,4 hPa 0,2 l/m 3,2 km/h (1 Bft) W-NW 292 1 min 0,000 mm 2,4 UV-I 406 W/m 9,9 C 10,5 C 4,8 km/h (1 Bft) 91,30 %
30.05.2020 10:21 18,8 C 10,4 C 2,8 C 13,9 C 63 % 96 % 1021,4 hPa 0,0 l/m 4,8 km/h (1 Bft) W-NW 292 1 min 0,000 mm 2,3 UV-I 387 W/m 9,8 C 10,4 C 6,4 km/h (2 Bft) 95,65 %
30.05.2020 10:20 18,8 C 10,4 C -0,6 C 13,9 C 64 % 96 % 1021,4 hPa 0,0 l/m 1,6 km/h (1 Bft) NW 315 1 min 0,000 mm 2,2 UV-I 376 W/m 9,8 C 10,4 C 4,8 km/h (1 Bft) 95,65 %
30.05.2020 10:19 18,8 C 10,4 C 2,8 C 13,9 C 64 % 96 % 1021,4 hPa 0,0 l/m 0,0 km/h (0 Bft) NW 315 1 min 0,000 mm 2,2 UV-I 367 W/m 9,8 C 10,4 C 1,6 km/h (1 Bft) 95,65 %
30.05.2020 10:18 18,8 C 10,3 C 13,9 C 13,9 C 64 % 96 % 1021,4 hPa 0,0 l/m 1,6 km/h (1 Bft) NW 315 1 min 0,000 mm 2,1 UV-I 360 W/m 9,7 C 10,3 C 3,2 km/h (1 Bft) 91,30 %
30.05.2020 10:17 18,8 C 10,3 C -3,9 C 13,9 C 64 % 96 % 1021,4 hPa 0,0 l/m 1,6 km/h (1 Bft) NW 315 1 min 0,000 mm 2,1 UV-I 346 W/m 9,7 C 10,3 C 4,8 km/h (1 Bft) 100,00 %
30.05.2020 10:16 18,8 C 10,2 C -3,9 C 13,9 C 64 % 96 % 1021,4 hPa 0,0 l/m 3,2 km/h (1 Bft) W-NW 292 1 min 0,000 mm 2,0 UV-I 339 W/m 9,6 C 10,2 C 4,8 km/h (1 Bft) 86,96 %
30.05.2020 10:15 18,8 C 10,2 C -3,3 C 13,9 C 64 % 96 % 1021,4 hPa 0,0 l/m 3,2 km/h (1 Bft) W-NW 292 1 min 0,000 mm 2,0 UV-I 330 W/m 9,6 C 10,2 C 6,4 km/h (2 Bft) 95,65 %
30.05.2020 10:14 18,8 C 10,2 C 9,4 C 13,9 C 64 % 96 % 1021,5 hPa 0,0 l/m 0,0 km/h (0 Bft) W-NW 292 1 min 0,000 mm 1,9 UV-I 323 W/m 9,6 C 10,2 C 1,6 km/h (1 Bft) 95,65 %
30.05.2020 10:13 18,8 C 10,1 C 3,9 C 13,9 C 64 % 96 % 1021,5 hPa 0,0 l/m 3,2 km/h (1 Bft) W-NW 292 1 min 0,000 mm 1,8 UV-I 309 W/m 9,5 C 10,1 C 6,4 km/h (2 Bft) 95,65 %
30.05.2020 10:12 18,8 C 10,1 C 1,7 C 13,9 C 64 % 96 % 1021,5 hPa 0,0 l/m 1,6 km/h (1 Bft) W-NW 292 1 min 0,000 mm 1,8 UV-I 309 W/m 9,5 C 10,1 C 4,8 km/h (1 Bft) 91,30 %
30.05.2020 10:11 18,8 C 10,0 C 5,0 C 13,9 C 64 % 96 % 1021,5 hPa 0,0 l/m 0,0 km/h (0 Bft) N 0 1 min 0,000 mm 1,8 UV-I 299 W/m 9,4 C 10,0 C 0,0 km/h (0 Bft) 100,00 %
30.05.2020 10:10 18,8 C 10,0 C 5,0 C 13,9 C 64 % 96 % 1021,5 hPa 0,0 l/m 1,6 km/h (1 Bft) W-NW 292 1 min 0,000 mm 1,7 UV-I 292 W/m 9,4 C 10,0 C 3,2 km/h (1 Bft) 91,30 %
30.05.2020 10:09 18,8 C 9,9 C 6,1 C 13,9 C 64 % 96 % 1021,5 hPa 0,0 l/m 1,6 km/h (1 Bft) W-NW 292 1 min 0,000 mm 1,7 UV-I 283 W/m 9,3 C 9,9 C 3,2 km/h (1 Bft) 91,30 %
30.05.2020 10:08 18,8 C 9,9 C 6,7 C 13,9 C 64 % 96 % 1021,5 hPa 0,0 l/m 3,2 km/h (1 Bft) W-NW 292 1 min 0,000 mm 1,6 UV-I 276 W/m 9,3 C 9,9 C 4,8 km/h (1 Bft) 100,00 %
30.05.2020 10:07 18,8 C 9,9 C 9,4 C 13,9 C 64 % 96 % 1021,5 hPa 0,0 l/m 4,8 km/h (1 Bft) W-NW 292 1 min 0,000 mm 1,6 UV-I 267 W/m 9,3 C 9,9 C 6,4 km/h (2 Bft) 91,30 %
30.05.2020 10:06 18,8 C 9,9 C 9,4 C 13,9 C 64 % 96 % 1021,5 hPa 0,0 l/m 1,6 km/h (1 Bft) W-NW 292 1 min 0,000 mm 1,5 UV-I 251 W/m 9,3 C 9,9 C 3,2 km/h (1 Bft) 95,65 %
30.05.2020 10:05 18,8 C 9,8 C 8,9 C 13,9 C 64 % 96 % 1021,5 hPa 0,0 l/m 1,6 km/h (1 Bft) W-NW 292 1 min 0,000 mm 1,5 UV-I 244 W/m 9,2 C 9,8 C 4,8 km/h (1 Bft) 91,30 %
30.05.2020 10:04 18,8 C 9,8 C 8,3 C 13,9 C 64 % 96 % 1021,5 hPa 0,0 l/m 0,0 km/h (0 Bft) N 0 1 min 0,000 mm 1,4 UV-I 236 W/m 9,2 C 9,8 C 0,0 km/h (0 Bft) 95,65 %
30.05.2020 10:03 18,8 C 9,8 C 8,9 C 13,9 C 64 % 96 % 1021,5 hPa 0,0 l/m 0,0 km/h (0 Bft) W-NW 292 1 min 0,000 mm 1,4 UV-I 227 W/m 9,2 C 9,8 C 1,6 km/h (1 Bft) 91,30 %
30.05.2020 10:02 18,8 C 9,8 C 8,9 C 13,9 C 64 % 96 % 1021,5 hPa 0,0 l/m 0,0 km/h (0 Bft) N 0 1 min 0,000 mm 1,4 UV-I 220 W/m 9,2 C 9,8 C 0,0 km/h (0 Bft) 95,65 %
30.05.2020 10:01 18,8 C 9,8 C 8,9 C 13,9 C 64 % 96 % 1021,5 hPa 0,0 l/m 0,0 km/h (0 Bft) W-NW 292 1 min 0,000 mm 1,3 UV-I 202 W/m 9,2 C 9,8 C 1,6 km/h (1 Bft) 86,96 %
30.05.2020 10:00 18,8 C 9,7 C 8,9 C 13,9 C 64 % 96 % 1021,5 hPa 0,0 l/m 1,6 km/h (1 Bft) W-NW 292 1 min 0,051 mm 1,3 UV-I 195 W/m 9,1 C 9,7 C 3,2 km/h (1 Bft) 95,65 %
30.05.2020 09:59 18,8 C 9,7 C 7,8 C 13,9 C 64 % 96 % 1021,4 hPa 0,0 l/m 3,2 km/h (1 Bft) W-NW 292 1 min 0,000 mm 1,3 UV-I 188 W/m 9,1 C 9,7 C 4,8 km/h (1 Bft) 95,65 %
30.05.2020 09:58 18,8 C 9,7 C 7,8 C 13,9 C 64 % 96 % 1021,4 hPa 0,0 l/m 1,6 km/h (1 Bft) W-NW 292 1 min 0,000 mm 1,3 UV-I 181 W/m 9,1 C 9,7 C 6,4 km/h (2 Bft) 91,30 %
30.05.2020 09:57 18,8 C 9,7 C 6,7 C 13,9 C 64 % 96 % 1021,4 hPa 0,0 l/m 1,6 km/h (1 Bft) W-NW 292 1 min 0,000 mm 1,3 UV-I 176 W/m 9,1 C 9,7 C 3,2 km/h (1 Bft) 91,30 %
30.05.2020 09:56 18,8 C 9,7 C 3,3 C 13,9 C 64 % 96 % 1021,4 hPa 0,0 l/m 1,6 km/h (1 Bft) W-NW 292 1 min 0,000 mm 1,2 UV-I 172 W/m 9,1 C 9,7 C 4,8 km/h (1 Bft) 91,30 %
30.05.2020 09:55 18,8 C 9,7 C 3,3 C 13,9 C 64 % 96 % 1021,4 hPa 0,0 l/m 4,8 km/h (1 Bft) W-NW 292 1 min 0,000 mm 1,2 UV-I 163 W/m 9,1 C 9,7 C 6,4 km/h (2 Bft) 91,30 %
30.05.2020 09:54 18,8 C 9,7 C -10,0 C 13,9 C 64 % 96 % 1021,4 hPa 0,0 l/m 0,0 km/h (0 Bft) W-NW 292 1 min 0,000 mm 1,2 UV-I 160 W/m 9,1 C 9,7 C 3,2 km/h (1 Bft) 91,30 %
30.05.2020 09:53 18,8 C 9,7 C -8,9 C 13,9 C 64 % 96 % 1021,4 hPa 0,0 l/m 0,0 km/h (0 Bft) N 0 1 min 0,000 mm 1,1 UV-I 156 W/m 9,1 C 9,7 C 0,0 km/h (0 Bft) 91,30 %
30.05.2020 09:52 18,8 C 9,7 C -9,4 C 13,9 C 64 % 96 % 1021,4 hPa 0,0 l/m 0,0 km/h (0 Bft) N 0 1 min 0,000 mm 1,1 UV-I 153 W/m 9,1 C 9,7 C 0,0 km/h (0 Bft) 91,30 %
30.05.2020 09:51 18,8 C 9,6 C -6,7 C 13,9 C 64 % 96 % 1021,4 hPa 0,0 l/m 0,0 km/h (0 Bft) N 0 0 min 0,000 mm 1,1 UV-I 149 W/m 9,0 C 9,6 C 0,0 km/h (0 Bft) 91,30 %
30.05.2020 09:50 18,8 C 9,6 C -3,3 C 13,9 C 64 % 96 % 1021,4 hPa 0,0 l/m 0,0 km/h (0 Bft) N 0 0 min 0,000 mm 1,1 UV-I 148 W/m 9,0 C 9,6 C 0,0 km/h (0 Bft) 91,30 %
30.05.2020 09:49 18,8 C 9,6 C -6,1 C 13,9 C 64 % 96 % 1021,4 hPa 0,0 l/m 1,6 km/h (1 Bft) W-NW 292 0 min 0,000 mm 1,1 UV-I 146 W/m 9,0 C 9,6 C 3,2 km/h (1 Bft) 95,65 %
30.05.2020 09:48 18,8 C 9,6 C -6,1 C 13,9 C 64 % 96 % 1021,4 hPa 0,0 l/m 1,6 km/h (1 Bft) W-NW 292 0 min 0,000 mm 1,0 UV-I 142 W/m 9,0 C 9,6 C 3,2 km/h (1 Bft) 91,30 %
30.05.2020 09:47 18,8 C 9,6 C -5,6 C 13,9 C 64 % 96 % 1021,4 hPa 0,0 l/m 3,2 km/h (1 Bft) W-NW 292 0 min 0,000 mm 1,0 UV-I 141 W/m 9,0 C 9,6 C 4,8 km/h (1 Bft) 78,26 %
30.05.2020 09:46 18,8 C 9,6 C -6,7 C 13,9 C 64 % 96 % 1021,4 hPa 0,0 l/m 4,8 km/h (1 Bft) W-NW 292 0 min 0,000 mm 1,0 UV-I 141 W/m 9,0 C 9,6 C 8,0 km/h (2 Bft) 95,65 %
30.05.2020 09:45 18,8 C 9,6 C -6,1 C 13,9 C 64 % 96 % 1021,4 hPa 0,0 l/m 1,6 km/h (1 Bft) W-NW 292 0 min 0,000 mm 1,0 UV-I 139 W/m 9,0 C 9,6 C 4,8 km/h (1 Bft) 91,30 %
30.05.2020 09:44 18,8 C 9,5 C -6,1 C 13,9 C 64 % 96 % 1021,6 hPa 0,0 l/m 0,0 km/h (0 Bft) N 0 0 min 0,000 mm 1,0 UV-I 139 W/m 8,9 C 9,5 C 0,0 km/h (0 Bft) 91,30 %
30.05.2020 09:43 18,8 C 9,5 C -6,1 C 13,9 C 64 % 96 % 1021,6 hPa 0,0 l/m 0,0 km/h (0 Bft) N 0 0 min 0,000 mm 1,0 UV-I 139 W/m 8,9 C 9,5 C 0,0 km/h (0 Bft) 91,30 %
30.05.2020 09:42 18,8 C 9,5 C -6,1 C 13,9 C 64 % 96 % 1021,6 hPa 0,0 l/m 1,6 km/h (1 Bft) W-NW 292 0 min 0,000 mm 1,0 UV-I 139 W/m 8,9 C 9,5 C 4,8 km/h (1 Bft) 95,65 %
30.05.2020 09:41 18,8 C 9,5 C -5,6 C 13,9 C 64 % 96 % 1021,6 hPa 0,0 l/m 3,2 km/h (1 Bft) W-NW 292 0 min 0,000 mm 1,0 UV-I 139 W/m 8,9 C 9,5 C 4,8 km/h (1 Bft) 91,30 %
30.05.2020 09:40 18,8 C 9,5 C -5,6 C 13,9 C 64 % 96 % 1021,6 hPa 0,0 l/m 0,0 km/h (0 Bft) N 0 0 min 0,000 mm 1,0 UV-I 139 W/m 8,9 C 9,5 C 0,0 km/h (0 Bft) 91,30 %
30.05.2020 09:39 18,8 C 9,5 C -5,0 C 13,9 C 64 % 96 % 1021,6 hPa 0,0 l/m 0,0 km/h (0 Bft) N 0 0 min 0,000 mm 1,0 UV-I 139 W/m 8,9 C 9,5 C 0,0 km/h (0 Bft) 95,65 %
30.05.2020 09:38 18,8 C 9,5 C -4,4 C 13,9 C 64 % 96 % 1021,6 hPa 0,0 l/m 0,0 km/h (0 Bft) W-NW 292 0 min 0,000 mm 1,0 UV-I 139 W/m 8,9 C 9,5 C 1,6 km/h (1 Bft) 91,30 %
30.05.2020 09:37 18,8 C 9,5 C -3,9 C 13,9 C 64 % 96 % 1021,6 hPa 0,0 l/m 0,0 km/h (0 Bft) W-NW 292 0 min 0,000 mm 1,0 UV-I 141 W/m 8,9 C 9,5 C 1,6 km/h (1 Bft) 100,00 %
30.05.2020 09:36 18,8 C 9,4 C -4,4 C 13,9 C 64 % 96 % 1021,6 hPa 0,0 l/m 1,6 km/h (1 Bft) W-NW 292 0 min 0,000 mm 1,0 UV-I 141 W/m 8,8 C 9,4 C 4,8 km/h (1 Bft) 86,96 %
30.05.2020 09:35 18,8 C 9,4 C -4,4 C 13,9 C 64 % 96 % 1021,6 hPa 0,0 l/m 1,6 km/h (1 Bft) W-NW 292 0 min 0,000 mm 1,0 UV-I 142 W/m 8,8 C 9,4 C 4,8 km/h (1 Bft) 95,65 %
30.05.2020 09:34 18,8 C 9,4 C -3,3 C 13,9 C 64 % 96 % 1021,6 hPa 0,0 l/m 3,2 km/h (1 Bft) W-NW 292 0 min 0,000 mm 1,0 UV-I 142 W/m 8,8 C 9,4 C 4,8 km/h (1 Bft) 95,65 %
30.05.2020 09:33 18,8 C 9,4 C -1,7 C 13,9 C 64 % 96 % 1021,6 hPa 0,0 l/m 0,0 km/h (0 Bft) W-NW 292 0 min 0,000 mm 1,0 UV-I 142 W/m 8,8 C 9,4 C 1,6 km/h (1 Bft) 95,65 %
30.05.2020 09:32 18,8 C 9,4 C -2,2 C 13,9 C 64 % 96 % 1021,6 hPa 0,0 l/m 1,6 km/h (1 Bft) W-NW 292 0 min 0,000 mm 1,0 UV-I 142 W/m 8,8 C 9,4 C 3,2 km/h (1 Bft) 91,30 %
30.05.2020 09:31 18,8 C 9,4 C -1,7 C 13,9 C 64 % 96 % 1021,6 hPa 0,0 l/m 0,0 km/h (0 Bft) W-NW 292 0 min 0,000 mm 1,0 UV-I 142 W/m 8,8 C 9,4 C 1,6 km/h (1 Bft) 100,00 %
30.05.2020 09:30 18,8 C 9,4 C -1,7 C 13,9 C 64 % 96 % 1021,6 hPa 0,0 l/m 3,2 km/h (1 Bft) W-NW 292 0 min 0,000 mm 0,9 UV-I 141 W/m 8,8 C 9,4 C 4,8 km/h (1 Bft) 95,65 %
30.05.2020 09:29 18,8 C 9,3 C -1,1 C 13,9 C 64 % 96 % 1021,7 hPa 0,0 l/m 1,6 km/h (1 Bft) W-NW 292 0 min 0,000 mm 0,9 UV-I 139 W/m 8,7 C 9,3 C 4,8 km/h (1 Bft) 91,30 %
30.05.2020 09:28 18,8 C 9,3 C -2,2 C 13,9 C 64 % 96 % 1021,7 hPa 0,0 l/m 0,0 km/h (0 Bft) N 0 0 min 0,000 mm 0,9 UV-I 139 W/m 8,7 C 9,3 C 0,0 km/h (0 Bft) 100,00 %
30.05.2020 09:27 18,8 C 9,3 C -1,1 C 13,9 C 64 % 96 % 1021,7 hPa 0,0 l/m 0,0 km/h (0 Bft) N 0 0 min 0,000 mm 0,9 UV-I 139 W/m 8,7 C 9,3 C 0,0 km/h (0 Bft) 95,65 %
30.05.2020 09:26 18,8 C 9,3 C 0,0 C 13,9 C 64 % 96 % 1021,7 hPa 0,0 l/m 1,6 km/h (1 Bft) W-NW 292 0 min 0,000 mm 0,9 UV-I 137 W/m 8,7 C 9,3 C 3,2 km/h (1 Bft) 95,65 %
30.05.2020 09:25 18,8 C 9,3 C 0,0 C 13,9 C 64 % 96 % 1021,7 hPa 0,0 l/m 0,0 km/h (0 Bft) W-NW 292 0 min 0,000 mm 0,9 UV-I 134 W/m 8,7 C 9,3 C 3,2 km/h (1 Bft) 95,65 %
30.05.2020 09:24 18,8 C 9,3 C -0,6 C 13,9 C 64 % 96 % 1021,7 hPa 0,0 l/m 1,6 km/h (1 Bft) W-NW 292 0 min 0,000 mm 0,8 UV-I 134 W/m 8,7 C 9,3 C 4,8 km/h (1 Bft) 91,30 %
30.05.2020 09:23 18,8 C 9,3 C 2,8 C 13,9 C 64 % 96 % 1021,7 hPa 0,0 l/m 0,0 km/h (0 Bft) N 0 0 min 0,000 mm 0,8 UV-I 132 W/m 8,7 C 9,3 C 0,0 km/h (0 Bft) 95,65 %
30.05.2020 09:22 18,8 C 9,2 C 1,1 C 13,9 C 64 % 96 % 1021,7 hPa 0,0 l/m 0,0 km/h (0 Bft) N 0 0 min 0,000 mm 0,8 UV-I 130 W/m 8,6 C 9,2 C 0,0 km/h (0 Bft) 100,00 %
30.05.2020 09:21 18,8 C 9,2 C -5,0 C 13,9 C 64 % 96 % 1021,7 hPa 0,0 l/m 0,0 km/h (0 Bft) W-NW 292 0 min 0,000 mm 0,8 UV-I 130 W/m 8,6 C 9,2 C 3,2 km/h (1 Bft) 86,96 %
30.05.2020 09:20 18,8 C 9,2 C -2,2 C 13,9 C 64 % 96 % 1021,7 hPa 0,0 l/m 1,6 km/h (1 Bft) W-NW 292 0 min 0,000 mm 0,8 UV-I 132 W/m 8,6 C 9,2 C 4,8 km/h (1 Bft) 95,65 %
30.05.2020 09:19 18,8 C 9,2 C -0,6 C 13,9 C 64 % 96 % 1021,7 hPa 0,0 l/m 3,2 km/h (1 Bft) W-NW 292 0 min 0,000 mm 0,8 UV-I 130 W/m 8,6 C 9,2 C 4,8 km/h (1 Bft) 100,00 %
30.05.2020 09:18 18,8 C 9,2 C 2,8 C 13,9 C 64 % 96 % 1021,7 hPa 0,0 l/m 3,2 km/h (1 Bft) W 270 0 min 0,000 mm 0,8 UV-I 128 W/m 8,6 C 9,2 C 4,8 km/h (1 Bft) 95,65 %
30.05.2020 09:17 18,8 C 9,2 C 2,8 C 13,9 C 64 % 96 % 1021,7 hPa 0,0 l/m 0,0 km/h (0 Bft) N 0 0 min 0,000 mm 0,8 UV-I 128 W/m 8,6 C 9,2 C 0,0 km/h (0 Bft) 91,30 %
30.05.2020 09:16 18,8 C 9,2 C 2,8 C 13,9 C 64 % 96 % 1021,7 hPa 0,0 l/m 3,2 km/h (1 Bft) W 270 0 min 0,000 mm 0,7 UV-I 127 W/m 8,6 C 9,2 C 4,8 km/h (1 Bft) 100,00 %
30.05.2020 09:15 18,8 C 9,2 C 2,8 C 13,9 C 64 % 96 % 1021,7 hPa 0,0 l/m 4,8 km/h (1 Bft) W 270 0 min 0,000 mm 0,7 UV-I 121 W/m 8,6 C 9,2 C 8,0 km/h (2 Bft) 95,65 %
30.05.2020 09:14 18,8 C 9,1 C 2,2 C 13,9 C 64 % 96 % 1021,9 hPa 0,0 l/m 1,6 km/h (1 Bft) W-NW 292 0 min 0,000 mm 0,5 UV-I 118 W/m 8,5 C 9,1 C 6,4 km/h (2 Bft) 95,65 %
30.05.2020 09:13 18,8 C 9,1 C 2,2 C 13,9 C 64 % 96 % 1021,9 hPa 0,0 l/m 1,6 km/h (1 Bft) W-NW 292 0 min 0,000 mm 0,0 UV-I 105 W/m 8,5 C 9,1 C 4,8 km/h (1 Bft) 100,00 %
30.05.2020 09:12 18,8 C 9,1 C 1,7 C 13,9 C 64 % 96 % 1021,9 hPa 0,0 l/m 1,6 km/h (1 Bft) W-NW 292 0 min 0,000 mm 0,0 UV-I 100 W/m 8,5 C 9,1 C 4,8 km/h (1 Bft) 82,61 %
30.05.2020 09:11 18,8 C 9,1 C 1,7 C 13,9 C 64 % 96 % 1021,9 hPa 0,0 l/m 1,6 km/h (1 Bft) W-NW 292 0 min 0,000 mm 0,0 UV-I 97 W/m 8,5 C 9,1 C 4,8 km/h (1 Bft) 95,65 %
30.05.2020 09:10 18,8 C 9,0 C 1,7 C 13,9 C 64 % 96 % 1021,9 hPa 0,0 l/m 0,0 km/h (0 Bft) N 0 0 min 0,000 mm 0,0 UV-I 93 W/m 8,4 C 9,0 C 0,0 km/h (0 Bft) 100,00 %
30.05.2020 09:09 18,8 C 9,0 C 1,7 C 13,9 C 64 % 96 % 1021,9 hPa 0,0 l/m 0,0 km/h (0 Bft) N 0 0 min 0,000 mm 0,0 UV-I 90 W/m 8,4 C 9,0 C 0,0 km/h (0 Bft) 95,65 %
30.05.2020 09:08 18,8 C 9,0 C 1,7 C 13,9 C 64 % 96 % 1021,9 hPa 0,0 l/m 0,0 km/h (0 Bft) W-NW 292 0 min 0,000 mm 0,0 UV-I 88 W/m 8,4 C 9,0 C 1,6 km/h (1 Bft) 91,30 %
30.05.2020 09:07 18,8 C 9,0 C 1,7 C 13,9 C 64 % 96 % 1021,9 hPa 0,0 l/m 0,0 km/h (0 Bft) N 0 0 min 0,000 mm 0,0 UV-I 86 W/m 8,4 C 9,0 C 0,0 km/h (0 Bft) 95,65 %
30.05.2020 09:06 18,8 C 8,9 C 1,7 C 13,9 C 64 % 96 % 1021,9 hPa 0,0 l/m 0,0 km/h (0 Bft) N 0 0 min 0,000 mm 0,0 UV-I 86 W/m 8,3 C 8,9 C 0,0 km/h (0 Bft) 95,65 %
30.05.2020 09:05 18,8 C 8,9 C 1,7 C 13,9 C 64 % 96 % 1021,9 hPa 0,0 l/m 1,6 km/h (1 Bft) W-NW 292 0 min 0,000 mm 0,0 UV-I 88 W/m 8,3 C 8,9 C 3,2 km/h (1 Bft) 86,96 %
30.05.2020 09:04 18,8 C 8,9 C 1,7 C 13,9 C 64 % 96 % 1021,9 hPa 0,0 l/m 0,0 km/h (0 Bft) W-NW 292 0 min 0,000 mm 0,0 UV-I 90 W/m 8,3 C 8,9 C 1,6 km/h (1 Bft) 95,65 %
30.05.2020 09:03 18,8 C 8,9 C 1,1 C 13,9 C 64 % 96 % 1021,9 hPa 0,0 l/m 1,6 km/h (1 Bft) W-NW 292 0 min 0,000 mm 0,0 UV-I 91 W/m 8,3 C 8,9 C 4,8 km/h (1 Bft) 100,00 %
30.05.2020 09:02 18,8 C 8,9 C 1,1 C 13,9 C 64 % 96 % 1021,9 hPa 0,0 l/m 3,2 km/h (1 Bft) W-NW 292 0 min 0,000 mm 0,0 UV-I 95 W/m 8,3 C 8,9 C 4,8 km/h (1 Bft) 95,65 %
30.05.2020 09:01 18,8 C 8,9 C 1,1 C 13,9 C 64 % 96 % 1021,9 hPa 0,0 l/m 4,8 km/h (1 Bft) W-NW 292 0 min 0,000 mm 0,0 UV-I 95 W/m 8,3 C 8,9 C 6,4 km/h (2 Bft) 95,65 %
30.05.2020 09:00 18,8 C 8,9 C 1,1 C 13,9 C 64 % 96 % 1021,9 hPa 0,0 l/m 4,8 km/h (1 Bft) W-NW 292 0 min 0,051 mm 0,0 UV-I 98 W/m 8,3 C 8,9 C 4,8 km/h (1 Bft) 100,00 %
30.05.2020 08:59 18,8 C 8,9 C 1,1 C 13,9 C 64 % 96 % 1021,9 hPa 0,0 l/m 1,6 km/h (1 Bft) W-NW 292 0 min 0,000 mm 0,0 UV-I 102 W/m 8,3 C 8,9 C 6,4 km/h (2 Bft) 91,30 %
30.05.2020 08:58 18,8 C 8,9 C 1,1 C 13,9 C 64 % 96 % 1021,9 hPa 0,0 l/m 0,0 km/h (0 Bft) N 0 0 min 0,000 mm 0,0 UV-I 104 W/m 8,3 C 8,9 C 0,0 km/h (0 Bft) 95,65 %
30.05.2020 08:57 18,8 C 8,8 C 1,1 C 13,9 C 64 % 96 % 1021,9 hPa 0,0 l/m 0,0 km/h (0 Bft) W-NW 292 0 min 0,000 mm 0,0 UV-I 105 W/m 8,2 C 8,8 C 1,6 km/h (1 Bft) 100,00 %
30.05.2020 08:56 18,8 C 8,8 C 1,1 C 13,9 C 64 % 96 % 1021,9 hPa 0,0 l/m 0,0 km/h (0 Bft) W-NW 292 0 min 0,000 mm 0,0 UV-I 105 W/m 8,2 C 8,8 C 3,2 km/h (1 Bft) 95,65 %
30.05.2020 08:55 18,8 C 8,8 C 1,1 C 13,9 C 64 % 96 % 1021,9 hPa 0,0 l/m 1,6 km/h (1 Bft) W-NW 292 0 min 0,000 mm 0,0 UV-I 105 W/m 8,2 C 8,8 C 3,2 km/h (1 Bft) 91,30 %
30.05.2020 08:54 18,8 C 8,8 C 1,1 C 13,9 C 64 % 96 % 1021,9 hPa 0,0 l/m 0,0 km/h (0 Bft) W-NW 292 0 min 0,000 mm 0,0 UV-I 105 W/m 8,2 C 8,8 C 1,6 km/h (1 Bft) 100,00 %
30.05.2020 08:53 18,8 C 8,8 C 1,1 C 13,9 C 64 % 96 % 1021,9 hPa 0,0 l/m 1,6 km/h (1 Bft) W-NW 292 0 min 0,000 mm 0,0 UV-I 105 W/m 8,2 C 8,8 C 4,8 km/h (1 Bft) 91,30 %
30.05.2020 08:52 18,8 C 8,8 C 1,1 C 13,9 C 64 % 96 % 1021,9 hPa 0,0 l/m 0,0 km/h (0 Bft) W-NW 292 0 min 0,000 mm 0,0 UV-I 105 W/m 8,2 C 8,8 C 1,6 km/h (1 Bft) 91,30 %
30.05.2020 08:51 18,8 C 8,8 C 1,1 C 13,9 C 64 % 96 % 1021,9 hPa 0,0 l/m 1,6 km/h (1 Bft) W-NW 292 0 min 0,000 mm 0,0 UV-I 105 W/m 8,2 C 8,8 C 3,2 km/h (1 Bft) 100,00 %
30.05.2020 08:50 18,8 C 8,8 C 1,1 C 13,9 C 64 % 96 % 1021,9 hPa 0,0 l/m 0,0 km/h (0 Bft) W-NW 292 0 min 0,000 mm 0,0 UV-I 105 W/m 8,2 C 8,8 C 3,2 km/h (1 Bft) 91,30 %
30.05.2020 08:49 18,8 C 8,8 C 1,1 C 13,9 C 64 % 96 % 1021,9 hPa 0,0 l/m 3,2 km/h (1 Bft) W-NW 292 0 min 0,000 mm 0,0 UV-I 105 W/m 8,2 C 8,8 C 4,8 km/h (1 Bft) 95,65 %
30.05.2020 08:48 18,8 C 8,8 C 1,1 C 13,9 C 64 % 96 % 1021,9 hPa 0,0 l/m 4,8 km/h (1 Bft) W-NW 292 0 min 0,000 mm 0,0 UV-I 105 W/m 8,2 C 8,8 C 6,4 km/h (2 Bft) 100,00 %
30.05.2020 08:47 18,8 C 8,7 C 1,1 C 13,9 C 64 % 96 % 1021,9 hPa 0,0 l/m 4,8 km/h (1 Bft) W-NW 292 0 min 0,000 mm 0,0 UV-I 105 W/m 8,1 C 8,7 C 6,4 km/h (2 Bft) 95,65 %
30.05.2020 08:46 18,8 C 8,7 C 1,1 C 13,9 C 64 % 96 % 1021,9 hPa 0,0 l/m 3,2 km/h (1 Bft) W-NW 292 0 min 0,000 mm 0,0 UV-I 107 W/m 8,1 C 8,7 C 6,4 km/h (2 Bft) 95,65 %
30.05.2020 08:45 18,8 C 8,7 C 1,1 C 13,9 C 64 % 96 % 1021,9 hPa 0,0 l/m 1,6 km/h (1 Bft) NW 315 0 min 0,000 mm 0,0 UV-I 111 W/m 8,1 C 8,7 C 4,8 km/h (1 Bft) 100,00 %
30.05.2020 08:44 18,8 C 8,7 C 1,1 C 13,9 C 64 % 96 % 1021,9 hPa 0,0 l/m 1,6 km/h (1 Bft) NW 315 0 min 0,000 mm 0,0 UV-I 113 W/m 8,1 C 8,7 C 4,8 km/h (1 Bft) 95,65 %
30.05.2020 08:43 18,8 C 8,7 C 1,1 C 13,9 C 64 % 96 % 1021,9 hPa 0,0 l/m 0,0 km/h (0 Bft) NW 315 0 min 0,000 mm 0,0 UV-I 118 W/m 8,1 C 8,7 C 4,8 km/h (1 Bft) 95,65 %
30.05.2020 08:42 18,8 C 8,6 C 1,1 C 13,9 C 64 % 96 % 1021,9 hPa 0,0 l/m 0,0 km/h (0 Bft) N 0 0 min 0,000 mm 0,0 UV-I 121 W/m 8,0 C 8,6 C 0,0 km/h (0 Bft) 100,00 %
30.05.2020 08:41 18,8 C 8,6 C 1,1 C 13,9 C 64 % 96 % 1021,9 hPa 0,0 l/m 0,0 km/h (0 Bft) N 0 0 min 0,000 mm 0,5 UV-I 123 W/m 8,0 C 8,6 C 0,0 km/h (0 Bft) 95,65 %
30.05.2020 08:40 18,8 C 8,6 C 1,1 C 13,9 C 64 % 96 % 1021,9 hPa 0,0 l/m 0,0 km/h (0 Bft) N 0 0 min 0,000 mm 0,5 UV-I 125 W/m 8,0 C 8,6 C 0,0 km/h (0 Bft) 95,65 %
30.05.2020 08:39 18,8 C 8,6 C 1,1 C 13,9 C 64 % 96 % 1021,9 hPa 0,0 l/m 0,0 km/h (0 Bft) N 0 0 min 0,000 mm 0,5 UV-I 127 W/m 8,0 C 8,6 C 0,0 km/h (0 Bft) 100,00 %
30.05.2020 08:38 18,8 C 8,5 C 1,1 C 13,9 C 64 % 96 % 1021,9 hPa 0,0 l/m 0,0 km/h (0 Bft) N 0 0 min 0,000 mm 0,5 UV-I 128 W/m 7,9 C 8,5 C 0,0 km/h (0 Bft) 91,30 %
30.05.2020 08:37 18,8 C 8,5 C 1,1 C 13,9 C 64 % 96 % 1021,9 hPa 0,0 l/m 0,0 km/h (0 Bft) NW 315 0 min 0,000 mm 0,5 UV-I 130 W/m 7,9 C 8,5 C 1,6 km/h (1 Bft) 95,65 %
30.05.2020 08:36 18,8 C 8,4 C 1,1 C 13,9 C 64 % 96 % 1021,9 hPa 0,0 l/m 0,0 km/h (0 Bft) N 0 0 min 0,000 mm 0,5 UV-I 132 W/m 7,8 C 8,4 C 0,0 km/h (0 Bft) 95,65 %
30.05.2020 08:35 18,8 C 8,4 C 1,1 C 13,9 C 64 % 96 % 1021,9 hPa 0,0 l/m 0,0 km/h (0 Bft) N 0 0 min 0,000 mm 0,5 UV-I 132 W/m 7,8 C 8,4 C 0,0 km/h (0 Bft) 91,30 %
30.05.2020 08:34 18,8 C 8,4 C 1,1 C 13,9 C 64 % 96 % 1021,9 hPa 0,0 l/m 0,0 km/h (0 Bft) N 0 0 min 0,000 mm 0,5 UV-I 128 W/m 7,8 C 8,4 C 0,0 km/h (0 Bft) 95,65 %
30.05.2020 08:33 18,8 C 8,4 C 1,1 C 13,9 C 64 % 96 % 1021,9 hPa 0,0 l/m 0,0 km/h (0 Bft) N 0 0 min 0,000 mm 0,0 UV-I 127 W/m 7,8 C 8,4 C 0,0 km/h (0 Bft) 100,00 %
30.05.2020 08:32 18,8 C 8,4 C 1,1 C 13,9 C 64 % 96 % 1021,9 hPa 0,0 l/m 0,0 km/h (0 Bft) N 0 0 min 0,000 mm 0,0 UV-I 127 W/m 7,8 C 8,4 C 0,0 km/h (0 Bft) 91,30 %
30.05.2020 08:31 18,8 C 8,4 C 0,6 C 13,9 C 64 % 96 % 1021,9 hPa 0,0 l/m 0,0 km/h (0 Bft) NW 315 0 min 0,000 mm 0,5 UV-I 130 W/m 7,8 C 8,4 C 1,6 km/h (1 Bft) 91,30 %
30.05.2020 08:30 18,8 C 8,4 C 1,1 C 13,9 C 64 % 96 % 1021,9 hPa 0,0 l/m 1,6 km/h (1 Bft) NW 315 0 min 0,000 mm 0,5 UV-I 134 W/m 7,8 C 8,4 C 4,8 km/h (1 Bft) 100,00 %
30.05.2020 08:29 18,8 C 8,3 C 0,6 C 13,9 C 64 % 96 % 1022,0 hPa 0,0 l/m 0,0 km/h (0 Bft) NW 315 0 min 0,000 mm 0,5 UV-I 135 W/m 7,7 C 8,3 C 3,2 km/h (1 Bft) 86,96 %
30.05.2020 08:28 18,8 C 8,3 C 0,6 C 13,9 C 64 % 96 % 1022,0 hPa 0,0 l/m 1,6 km/h (1 Bft) NW 315 0 min 0,000 mm 0,5 UV-I 132 W/m 7,7 C 8,3 C 4,8 km/h (1 Bft) 95,65 %
30.05.2020 08:27 18,8 C 8,3 C 0,6 C 13,9 C 64 % 96 % 1022,0 hPa 0,0 l/m 0,0 km/h (0 Bft) N 0 0 min 0,000 mm 0,5 UV-I 132 W/m 7,7 C 8,3 C 0,0 km/h (0 Bft) 95,65 %
30.05.2020 08:26 18,8 C 8,3 C -0,6 C 13,9 C 64 % 96 % 1022,0 hPa 0,0 l/m 1,6 km/h (1 Bft) NW 315 0 min 0,000 mm 0,5 UV-I 139 W/m 7,7 C 8,3 C 4,8 km/h (1 Bft) 95,65 %
30.05.2020 08:25 18,8 C 8,3 C -1,7 C 13,9 C 64 % 96 % 1022,0 hPa 0,0 l/m 1,6 km/h (1 Bft) NW 315 0 min 0,000 mm 0,5 UV-I 139 W/m 7,7 C 8,3 C 4,8 km/h (1 Bft) 91,30 %
30.05.2020 08:24 18,8 C 8,3 C -1,7 C 13,9 C 64 % 96 % 1022,0 hPa 0,0 l/m 0,0 km/h (0 Bft) NW 315 0 min 0,000 mm 0,5 UV-I 135 W/m 7,7 C 8,3 C 3,2 km/h (1 Bft) 91,30 %
30.05.2020 08:23 18,8 C 8,3 C -1,1 C 13,9 C 64 % 96 % 1022,0 hPa 0,0 l/m 4,8 km/h (1 Bft) NW 315 0 min 0,000 mm 0,5 UV-I 137 W/m 7,7 C 8,3 C 4,8 km/h (1 Bft) 86,96 %
30.05.2020 08:22 18,8 C 8,3 C -1,7 C 13,9 C 64 % 96 % 1022,0 hPa 0,0 l/m 0,0 km/h (0 Bft) NW 315 0 min 0,000 mm 0,5 UV-I 135 W/m 7,7 C 8,3 C 1,6 km/h (1 Bft) 91,30 %
30.05.2020 08:21 18,8 C 8,3 C -1,7 C 13,9 C 64 % 96 % 1022,0 hPa 0,0 l/m 1,6 km/h (1 Bft) NW 315 0 min 0,000 mm 0,5 UV-I 141 W/m 7,7 C 8,3 C 3,2 km/h (1 Bft) 95,65 %
30.05.2020 08:20 18,8 C 8,2 C -1,7 C 13,9 C 64 % 96 % 1022,0 hPa 0,0 l/m 1,6 km/h (1 Bft) NW 315 0 min 0,000 mm 0,5 UV-I 144 W/m 7,6 C 8,2 C 4,8 km/h (1 Bft) 86,96 %
30.05.2020 08:19 18,8 C 8,2 C -1,7 C 13,9 C 64 % 96 % 1022,0 hPa 0,0 l/m 3,2 km/h (1 Bft) NW 315 0 min 0,000 mm 0,5 UV-I 142 W/m 7,6 C 8,2 C 4,8 km/h (1 Bft) 91,30 %
30.05.2020 08:18 18,8 C 8,2 C -1,7 C 13,9 C 64 % 96 % 1022,0 hPa 0,0 l/m 3,2 km/h (1 Bft) N-NW 337 0 min 0,000 mm 0,0 UV-I 139 W/m 7,6 C 8,2 C 4,8 km/h (1 Bft) 91,30 %
30.05.2020 08:17 18,8 C 8,2 C -2,2 C 13,9 C 64 % 96 % 1022,0 hPa 0,0 l/m 0,0 km/h (0 Bft) N-NW 337 0 min 0,000 mm 0,0 UV-I 130 W/m 7,6 C 8,2 C 3,2 km/h (1 Bft) 100,00 %
30.05.2020 08:16 18,8 C 8,2 C -2,2 C 13,9 C 64 % 96 % 1022,0 hPa 0,0 l/m 0,0 km/h (0 Bft) N-NW 337 0 min 0,000 mm 0,0 UV-I 123 W/m 7,6 C 8,2 C 3,2 km/h (1 Bft) 91,30 %
30.05.2020 08:15 18,8 C 8,2 C -1,7 C 13,9 C 64 % 96 % 1022,0 hPa 0,0 l/m 4,8 km/h (1 Bft) N-NW 337 0 min 0,000 mm 0,0 UV-I 120 W/m 7,6 C 8,2 C 8,0 km/h (2 Bft) 91,30 %
30.05.2020 08:14 18,9 C 8,2 C -2,2 C 13,9 C 64 % 96 % 1021,9 hPa 0,0 l/m 3,2 km/h (1 Bft) N-NW 337 0 min 0,000 mm 0,0 UV-I 104 W/m 7,6 C 8,2 C 4,8 km/h (1 Bft) 95,65 %
30.05.2020 08:13 18,9 C 8,2 C -2,2 C 13,9 C 64 % 96 % 1021,9 hPa 0,0 l/m 1,6 km/h (1 Bft) N-NW 337 0 min 0,000 mm 0,0 UV-I 100 W/m 7,6 C 8,2 C 4,8 km/h (1 Bft) 95,65 %
30.05.2020 08:12 18,8 C 8,2 C -2,2 C 13,9 C 64 % 96 % 1021,9 hPa 0,0 l/m 1,6 km/h (1 Bft) N-NW 337 0 min 0,000 mm 0,0 UV-I 97 W/m 7,6 C 8,2 C 4,8 km/h (1 Bft) 91,30 %
30.05.2020 08:11 18,9 C 8,1 C -2,2 C 13,9 C 64 % 96 % 1021,9 hPa 0,0 l/m 3,2 km/h (1 Bft) N-NW 337 0 min 0,000 mm 0,0 UV-I 97 W/m 7,5 C 8,1 C 6,4 km/h (2 Bft) 95,65 %
30.05.2020 08:10 18,9 C 8,1 C -2,2 C 13,9 C 64 % 96 % 1021,9 hPa 0,0 l/m 0,0 km/h (0 Bft) W-NW 292 0 min 0,000 mm 0,0 UV-I 98 W/m 7,5 C 8,1 C 1,6 km/h (1 Bft) 91,30 %
30.05.2020 08:09 18,9 C 8,1 C -2,2 C 13,9 C 64 % 96 % 1021,9 hPa 0,0 l/m 0,0 km/h (0 Bft) W-NW 292 0 min 0,000 mm 0,0 UV-I 100 W/m 7,5 C 8,1 C 3,2 km/h (1 Bft) 91,30 %
30.05.2020 08:08 18,9 C 8,1 C -2,2 C 13,9 C 64 % 96 % 1021,9 hPa 0,0 l/m 1,6 km/h (1 Bft) W-NW 292 0 min 0,000 mm 0,0 UV-I 95 W/m 7,5 C 8,1 C 3,2 km/h (1 Bft) 100,00 %
30.05.2020 08:07 18,9 C 8,1 C -2,2 C 13,9 C 64 % 96 % 1021,9 hPa 0,0 l/m 0,0 km/h (0 Bft) N 0 0 min 0,000 mm 0,0 UV-I 93 W/m 7,5 C 8,1 C 0,0 km/h (0 Bft) 91,30 %
30.05.2020 08:06 18,9 C 8,1 C -2,8 C 13,9 C 64 % 96 % 1021,9 hPa 0,0 l/m 0,0 km/h (0 Bft) N 0 0 min 0,000 mm 0,0 UV-I 91 W/m 7,5 C 8,1 C 0,0 km/h (0 Bft) 95,65 %
30.05.2020 08:05 18,9 C 8,1 C -2,8 C 13,9 C 64 % 96 % 1021,9 hPa 0,0 l/m 3,2 km/h (1 Bft) W-NW 292 0 min 0,000 mm 0,0 UV-I 93 W/m 7,5 C 8,1 C 4,8 km/h (1 Bft) 95,65 %
30.05.2020 08:04 18,9 C 8,1 C -2,8 C 13,9 C 64 % 96 % 1021,9 hPa 0,0 l/m 4,8 km/h (1 Bft) W-NW 292 0 min 0,000 mm 0,0 UV-I 93 W/m 7,5 C 8,1 C 4,8 km/h (1 Bft) 95,65 %
30.05.2020 08:03 18,9 C 8,1 C -2,8 C 13,9 C 64 % 96 % 1021,9 hPa 0,0 l/m 1,6 km/h (1 Bft) W-NW 292 0 min 0,000 mm 0,0 UV-I 90 W/m 7,5 C 8,1 C 4,8 km/h (1 Bft) 95,65 %
30.05.2020 08:02 18,9 C 8,1 C -2,8 C 13,9 C 64 % 96 % 1021,9 hPa 0,0 l/m 0,0 km/h (0 Bft) N 0 0 min 0,000 mm 0,0 UV-I 88 W/m 7,5 C 8,1 C 0,0 km/h (0 Bft) 100,00 %
30.05.2020 08:01 18,9 C 8,0 C -2,2 C 13,9 C 64 % 96 % 1021,9 hPa 0,0 l/m 0,0 km/h (0 Bft) W-NW 292 0 min 0,000 mm 0,0 UV-I 86 W/m 7,4 C 8,0 C 3,2 km/h (1 Bft) 95,65 %
30.05.2020 08:00 18,9 C 8,0 C -1,7 C 13,9 C 64 % 96 % 1021,9 hPa 0,0 l/m 0,0 km/h (0 Bft) W-NW 292 0 min 0,025 mm 0,0 UV-I 83 W/m 7,4 C 8,0 C 3,2 km/h (1 Bft) 95,65 %
30.05.2020 07:59 18,9 C 8,0 C 0,0 C 13,9 C 64 % 96 % 1021,9 hPa 0,0 l/m 1,6 km/h (1 Bft) W-NW 292 0 min 0,000 mm 0,0 UV-I 81 W/m 7,4 C 8,0 C 4,8 km/h (1 Bft) 100,00 %
30.05.2020 07:58 18,9 C 8,0 C 0,0 C 13,9 C 64 % 96 % 1021,9 hPa 0,0 l/m 1,6 km/h (1 Bft) W-NW 292 0 min 0,000 mm 0,0 UV-I 79 W/m 7,4 C 8,0 C 3,2 km/h (1 Bft) 95,65 %
30.05.2020 07:57 18,9 C 8,0 C 0,0 C 13,9 C 64 % 96 % 1021,9 hPa 0,0 l/m 0,0 km/h (0 Bft) N 0 0 min 0,000 mm 0,0 UV-I 76 W/m 7,4 C 8,0 C 0,0 km/h (0 Bft) 95,65 %
30.05.2020 07:56 18,9 C 7,9 C 0,0 C 13,9 C 64 % 96 % 1021,9 hPa 0,0 l/m 0,0 km/h (0 Bft) N 0 0 min 0,000 mm 0,0 UV-I 76 W/m 7,3 C 7,9 C 0,0 km/h (0 Bft) 100,00 %
30.05.2020 07:55 18,9 C 7,9 C 0,0 C 13,9 C 64 % 96 % 1021,9 hPa 0,0 l/m 0,0 km/h (0 Bft) N 0 0 min 0,000 mm 0,0 UV-I 76 W/m 7,3 C 7,9 C 0,0 km/h (0 Bft) 91,30 %
30.05.2020 07:54 18,9 C 7,9 C 0,0 C 13,9 C 64 % 96 % 1021,9 hPa 0,0 l/m 1,6 km/h (1 Bft) W-NW 292 0 min 0,000 mm 0,0 UV-I 77 W/m 7,3 C 7,9 C 3,2 km/h (1 Bft) 95,65 %
30.05.2020 07:53 18,9 C 7,9 C 0,0 C 13,9 C 64 % 96 % 1021,9 hPa 0,0 l/m 1,6 km/h (1 Bft) W-NW 292 0 min 0,000 mm 0,0 UV-I 76 W/m 7,3 C 7,9 C 3,2 km/h (1 Bft) 95,65 %
30.05.2020 07:52 18,9 C 7,9 C 0,0 C 13,9 C 64 % 96 % 1021,9 hPa 0,0 l/m 0,0 km/h (0 Bft) N 0 0 min 0,000 mm 0,0 UV-I 76 W/m 7,3 C 7,9 C 0,0 km/h (0 Bft) 95,65 %
30.05.2020 07:51 18,9 C 7,9 C 0,0 C 13,9 C 64 % 96 % 1021,9 hPa 0,0 l/m 0,0 km/h (0 Bft) W-NW 292 0 min 0,000 mm 0,0 UV-I 72 W/m 7,3 C 7,9 C 1,6 km/h (1 Bft) 91,30 %
30.05.2020 07:50 18,9 C 7,8 C 0,0 C 13,9 C 64 % 96 % 1021,9 hPa 0,0 l/m 1,6 km/h (1 Bft) W-NW 292 0 min 0,000 mm 0,0 UV-I 72 W/m 7,2 C 7,8 C 4,8 km/h (1 Bft) 100,00 %
30.05.2020 07:49 18,9 C 7,8 C 0,0 C 13,9 C 64 % 96 % 1021,9 hPa 0,0 l/m 3,2 km/h (1 Bft) W-NW 292 0 min 0,000 mm 0,0 UV-I 74 W/m 7,2 C 7,8 C 4,8 km/h (1 Bft) 95,65 %
30.05.2020 07:48 18,9 C 7,8 C 0,0 C 13,9 C 64 % 96 % 1021,9 hPa 0,0 l/m 0,0 km/h (0 Bft) W-NW 292 0 min 0,000 mm 0,0 UV-I 72 W/m 7,2 C 7,8 C 1,6 km/h (1 Bft) 91,30 %
30.05.2020 07:47 18,9 C 7,8 C 0,0 C 13,9 C 64 % 96 % 1021,9 hPa 0,0 l/m 0,0 km/h (0 Bft) N 0 0 min 0,000 mm 0,0 UV-I 72 W/m 7,2 C 7,8 C 0,0 km/h (0 Bft) 95,65 %
30.05.2020 07:46 18,9 C 7,8 C -0,6 C 13,9 C 64 % 96 % 1021,9 hPa 0,0 l/m 0,0 km/h (0 Bft) W-NW 292 0 min 0,000 mm 0,0 UV-I 70 W/m 7,2 C 7,8 C 1,6 km/h (1 Bft) 91,30 %
30.05.2020 07:45 18,9 C 7,8 C -0,6 C 13,9 C 64 % 96 % 1021,9 hPa 0,0 l/m 0,0 km/h (0 Bft) W-NW 292 0 min 0,000 mm 0,0 UV-I 67 W/m 7,2 C 7,8 C 3,2 km/h (1 Bft) 95,65 %
30.05.2020 07:44 18,9 C 7,8 C -0,6 C 13,9 C 64 % 96 % 1021,9 hPa 0,0 l/m 0,0 km/h (0 Bft) N 0 0 min 0,000 mm 0,0 UV-I 63 W/m 7,2 C 7,8 C 0,0 km/h (0 Bft) 100,00 %
30.05.2020 07:43 18,9 C 7,7 C -0,6 C 13,9 C 64 % 96 % 1021,9 hPa 0,0 l/m 1,6 km/h (1 Bft) W-NW 292 0 min 0,000 mm 0,0 UV-I 63 W/m 7,1 C 7,7 C 3,2 km/h (1 Bft) 91,30 %
30.05.2020 07:42 18,9 C 7,7 C -0,6 C 13,9 C 64 % 96 % 1021,9 hPa 0,0 l/m 0,0 km/h (0 Bft) N 0 0 min 0,000 mm 0,0 UV-I 62 W/m 7,1 C 7,7 C 0,0 km/h (0 Bft) 91,30 %
30.05.2020 07:41 18,9 C 7,7 C -0,6 C 13,9 C 64 % 96 % 1021,9 hPa 0,0 l/m 1,6 km/h (1 Bft) W-NW 292 0 min 0,000 mm 0,0 UV-I 62 W/m 7,1 C 7,7 C 3,2 km/h (1 Bft) 95,65 %
30.05.2020 07:40 18,9 C 7,7 C -0,6 C 13,9 C 64 % 96 % 1021,9 hPa 0,0 l/m 1,6 km/h (1 Bft) W-NW 292 0 min 0,000 mm 0,0 UV-I 63 W/m 7,1 C 7,7 C 4,8 km/h (1 Bft) 91,30 %
30.05.2020 07:39 18,9 C 7,7 C -0,6 C 13,9 C 64 % 96 % 1021,9 hPa 0,0 l/m 0,0 km/h (0 Bft) W-NW 292 0 min 0,000 mm 0,0 UV-I 63 W/m 7,1 C 7,7 C 1,6 km/h (1 Bft) 91,30 %
30.05.2020 07:38 18,9 C 7,6 C -0,6 C 13,9 C 64 % 96 % 1021,9 hPa 0,0 l/m 1,6 km/h (1 Bft) W-NW 292 0 min 0,000 mm 0,0 UV-I 65 W/m 7,0 C 7,6 C 3,2 km/h (1 Bft) 95,65 %
30.05.2020 07:37 18,9 C 7,6 C -0,6 C 13,9 C 64 % 96 % 1021,9 hPa 0,0 l/m 0,0 km/h (0 Bft) N 0 0 min 0,000 mm 0,0 UV-I 65 W/m 7,0 C 7,6 C 0,0 km/h (0 Bft) 95,65 %
30.05.2020 07:36 18,9 C 7,6 C -0,6 C 13,9 C 64 % 96 % 1021,9 hPa 0,0 l/m 0,0 km/h (0 Bft) W-NW 292 0 min 0,000 mm 0,0 UV-I 65 W/m 7,0 C 7,6 C 1,6 km/h (1 Bft) 95,65 %
30.05.2020 07:35 18,9 C 7,6 C -0,6 C 13,9 C 64 % 96 % 1021,9 hPa 0,0 l/m 3,2 km/h (1 Bft) W-NW 292 0 min 0,000 mm 0,0 UV-I 63 W/m 7,0 C 7,6 C 4,8 km/h (1 Bft) 100,00 %
30.05.2020 07:34 18,9 C 7,6 C -0,6 C 13,9 C 64 % 96 % 1021,9 hPa 0,0 l/m 1,6 km/h (1 Bft) W-NW 292 0 min 0,000 mm 0,0 UV-I 62 W/m 7,0 C 7,6 C 3,2 km/h (1 Bft) 95,65 %
30.05.2020 07:33 18,9 C 7,6 C -1,1 C 13,9 C 64 % 96 % 1021,9 hPa 0,0 l/m 0,0 km/h (0 Bft) W-NW 292 0 min 0,000 mm 0,0 UV-I 58 W/m 7,0 C 7,6 C 1,6 km/h (1 Bft) 91,30 %
30.05.2020 07:32 18,9 C 7,6 C -1,1 C 13,9 C 64 % 96 % 1021,9 hPa 0,0 l/m 1,6 km/h (1 Bft) W-NW 292 0 min 0,000 mm 0,0 UV-I 56 W/m 7,0 C 7,6 C 3,2 km/h (1 Bft) 95,65 %
30.05.2020 07:31 18,9 C 7,5 C -1,1 C 13,9 C 64 % 96 % 1021,9 hPa 0,0 l/m 4,8 km/h (1 Bft) W-NW 292 0 min 0,000 mm 0,0 UV-I 56 W/m 6,9 C 7,5 C 6,4 km/h (2 Bft) 95,65 %
30.05.2020 07:30 18,9 C 7,5 C -1,1 C 13,9 C 64 % 96 % 1021,9 hPa 0,0 l/m 4,8 km/h (1 Bft) W-NW 292 0 min 0,000 mm 0,0 UV-I 56 W/m 6,9 C 7,5 C 4,8 km/h (1 Bft) 91,30 %
30.05.2020 07:29 18,9 C 7,5 C -1,1 C 13,9 C 64 % 96 % 1021,9 hPa 0,0 l/m 3,2 km/h (1 Bft) W-NW 292 0 min 0,000 mm 0,0 UV-I 56 W/m 6,9 C 7,5 C 4,8 km/h (1 Bft) 95,65 %
30.05.2020 07:28 18,9 C 7,5 C -1,1 C 13,9 C 64 % 96 % 1021,9 hPa 0,0 l/m 0,0 km/h (0 Bft) W-NW 292 0 min 0,000 mm 0,0 UV-I 53 W/m 6,9 C 7,5 C 4,8 km/h (1 Bft) 100,00 %
30.05.2020 07:27 18,9 C 7,5 C -1,1 C 13,9 C 64 % 96 % 1021,9 hPa 0,0 l/m 3,2 km/h (1 Bft) W-NW 292 0 min 0,000 mm 0,0 UV-I 51 W/m 6,9 C 7,5 C 4,8 km/h (1 Bft) 95,65 %
30.05.2020 07:26 18,9 C 7,4 C -1,1 C 13,9 C 64 % 96 % 1021,9 hPa 0,0 l/m 3,2 km/h (1 Bft) W-NW 292 0 min 0,000 mm 0,0 UV-I 51 W/m 6,8 C 7,4 C 3,2 km/h (1 Bft) 95,65 %
30.05.2020 07:25 18,9 C 7,4 C -1,1 C 13,9 C 64 % 96 % 1021,9 hPa 0,0 l/m 0,0 km/h (0 Bft) W-NW 292 0 min 0,000 mm 0,0 UV-I 51 W/m 6,8 C 7,4 C 3,2 km/h (1 Bft) 91,30 %
30.05.2020 07:24 18,9 C 7,4 C -1,1 C 13,9 C 64 % 96 % 1021,9 hPa 0,0 l/m 0,0 km/h (0 Bft) W-NW 292 0 min 0,000 mm 0,0 UV-I 51 W/m 6,8 C 7,4 C 3,2 km/h (1 Bft) 95,65 %
30.05.2020 07:23 18,9 C 7,4 C -1,1 C 13,9 C 64 % 96 % 1021,9 hPa 0,0 l/m 0,0 km/h (0 Bft) N 0 0 min 0,000 mm 0,0 UV-I 49 W/m 6,8 C 7,4 C 0,0 km/h (0 Bft) 95,65 %
30.05.2020 07:22 18,9 C 7,4 C -1,1 C 13,9 C 64 % 96 % 1021,9 hPa 0,0 l/m 1,6 km/h (1 Bft) W-NW 292 0 min 0,000 mm 0,0 UV-I 49 W/m 6,8 C 7,4 C 3,2 km/h (1 Bft) 91,30 %
30.05.2020 07:21 18,9 C 7,4 C -1,1 C 13,9 C 64 % 96 % 1021,9 hPa 0,0 l/m 0,0 km/h (0 Bft) W-NW 292 0 min 0,000 mm 0,0 UV-I 49 W/m 6,8 C 7,4 C 3,2 km/h (1 Bft) 95,65 %
30.05.2020 07:20 18,9 C 7,4 C -1,1 C 13,9 C 64 % 96 % 1021,9 hPa 0,0 l/m 1,6 km/h (1 Bft) W-NW 292 0 min 0,000 mm 0,0 UV-I 49 W/m 6,8 C 7,4 C 4,8 km/h (1 Bft) 86,96 %
30.05.2020 07:19 18,9 C 7,4 C -1,1 C 13,9 C 64 % 96 % 1021,9 hPa 0,0 l/m 1,6 km/h (1 Bft) W-NW 292 0 min 0,000 mm 0,0 UV-I 49 W/m 6,8 C 7,4 C 3,2 km/h (1 Bft) 100,00 %
30.05.2020 07:18 18,9 C 7,4 C -1,1 C 13,9 C 64 % 96 % 1021,9 hPa 0,0 l/m 3,2 km/h (1 Bft) W-NW 292 0 min 0,000 mm 0,0 UV-I 47 W/m 6,8 C 7,4 C 4,8 km/h (1 Bft) 95,65 %
30.05.2020 07:17 18,9 C 7,4 C -1,1 C 13,9 C 64 % 96 % 1021,9 hPa 0,0 l/m 3,2 km/h (1 Bft) W 270 0 min 0,000 mm 0,0 UV-I 47 W/m 6,8 C 7,4 C 4,8 km/h (1 Bft) 95,65 %
30.05.2020 07:16 18,9 C 7,4 C -1,1 C 13,9 C 64 % 96 % 1021,9 hPa 0,0 l/m 3,2 km/h (1 Bft) W 270 0 min 0,000 mm 0,0 UV-I 49 W/m 6,8 C 7,4 C 4,8 km/h (1 Bft) 100,00 %
30.05.2020 07:15 18,9 C 7,4 C -1,1 C 13,9 C 64 % 96 % 1021,9 hPa 0,0 l/m 1,6 km/h (1 Bft) W 270 0 min 0,000 mm 0,0 UV-I 49 W/m 6,8 C 7,4 C 4,8 km/h (1 Bft) 91,30 %
30.05.2020 07:14 18,9 C 7,4 C -1,1 C 13,9 C 64 % 96 % 1021,9 hPa 0,0 l/m 3,2 km/h (1 Bft) W 270 0 min 0,000 mm 0,0 UV-I 49 W/m 6,8 C 7,4 C 6,4 km/h (2 Bft) 95,65 %
30.05.2020 07:13 18,9 C 7,3 C -1,1 C 13,9 C 64 % 95 % 1021,9 hPa 0,0 l/m 3,2 km/h (1 Bft) W 270 0 min 0,000 mm 0,0 UV-I 49 W/m 6,6 C 7,3 C 4,8 km/h (1 Bft) 100,00 %
30.05.2020 07:12 18,9 C 7,3 C -1,1 C 13,9 C 64 % 95 % 1021,9 hPa 0,0 l/m 3,2 km/h (1 Bft) W 270 0 min 0,000 mm 0,0 UV-I 49 W/m 6,6 C 7,3 C 3,2 km/h (1 Bft) 95,65 %
30.05.2020 07:11 18,9 C 7,3 C -1,1 C 13,9 C 64 % 95 % 1021,9 hPa 0,0 l/m 3,2 km/h (1 Bft) W 270 0 min 0,000 mm 0,0 UV-I 49 W/m 6,6 C 7,3 C 4,8 km/h (1 Bft) 95,65 %
30.05.2020 07:10 18,9 C 7,3 C -1,1 C 13,9 C 64 % 95 % 1021,9 hPa 0,0 l/m 4,8 km/h (1 Bft) W 270 0 min 0,000 mm 0,0 UV-I 49 W/m 6,6 C 7,3 C 8,0 km/h (2 Bft) 100,00 %
30.05.2020 07:09 18,9 C 7,3 C -1,1 C 13,9 C 64 % 95 % 1021,9 hPa 0,0 l/m 4,8 km/h (1 Bft) W 270 0 min 0,000 mm 0,0 UV-I 49 W/m 6,6 C 7,3 C 8,0 km/h (2 Bft) 91,30 %
30.05.2020 07:08 18,9 C 7,3 C -1,1 C 13,9 C 64 % 95 % 1021,9 hPa 0,0 l/m 4,8 km/h (1 Bft) W 270 0 min 0,000 mm 0,0 UV-I 51 W/m 6,6 C 7,3 C 6,4 km/h (2 Bft) 95,65 %
30.05.2020 07:07 18,9 C 7,3 C -1,1 C 13,9 C 64 % 95 % 1021,9 hPa 0,0 l/m 3,2 km/h (1 Bft) W-NW 292 0 min 0,000 mm 0,0 UV-I 51 W/m 6,6 C 7,3 C 8,0 km/h (2 Bft) 95,65 %
30.05.2020 07:06 18,9 C 7,3 C -1,1 C 13,9 C 64 % 95 % 1021,9 hPa 0,0 l/m 3,2 km/h (1 Bft) W-NW 292 0 min 0,000 mm 0,0 UV-I 51 W/m 6,6 C 7,3 C 4,8 km/h (1 Bft) 95,65 %
30.05.2020 07:05 18,9 C 7,3 C -1,1 C 13,9 C 64 % 95 % 1021,9 hPa 0,0 l/m 3,2 km/h (1 Bft) W-NW 292 0 min 0,000 mm 0,0 UV-I 51 W/m 6,6 C 7,3 C 4,8 km/h (1 Bft) 91,30 %
30.05.2020 07:04 18,9 C 7,3 C -1,1 C 13,9 C 64 % 95 % 1021,9 hPa 0,0 l/m 3,2 km/h (1 Bft) W-NW 292 0 min 0,000 mm 0,0 UV-I 51 W/m 6,6 C 7,3 C 6,4 km/h (2 Bft) 95,65 %
30.05.2020 07:03 18,9 C 7,3 C -1,1 C 13,9 C 64 % 95 % 1021,9 hPa 0,0 l/m 3,2 km/h (1 Bft) W-NW 292 0 min 0,000 mm 0,0 UV-I 51 W/m 6,6 C 7,3 C 4,8 km/h (1 Bft) 95,65 %
30.05.2020 07:02 18,9 C 7,3 C -1,1 C 13,9 C 64 % 95 % 1021,9 hPa 0,0 l/m 4,8 km/h (1 Bft) W-NW 292 0 min 0,000 mm 0,0 UV-I 51 W/m 6,6 C 7,3 C 6,4 km/h (2 Bft) 91,30 %
30.05.2020 07:01 18,9 C 7,3 C -1,1 C 13,9 C 64 % 95 % 1021,9 hPa 0,0 l/m 3,2 km/h (1 Bft) W-NW 292 0 min 0,000 mm 0,0 UV-I 51 W/m 6,6 C 7,3 C 4,8 km/h (1 Bft) 95,65 %
30.05.2020 07:00 18,9 C 7,3 C -1,1 C 13,9 C 64 % 95 % 1021,9 hPa 0,0 l/m 3,2 km/h (1 Bft) W-NW 292 0 min 0,025 mm 0,0 UV-I 51 W/m 6,6 C 7,3 C 4,8 km/h (1 Bft) 86,96 %
30.05.2020 06:59 18,9 C 7,3 C -1,1 C 13,9 C 64 % 95 % 1022,0 hPa 0,0 l/m 3,2 km/h (1 Bft) W-NW 292 0 min 0,000 mm 0,0 UV-I 51 W/m 6,6 C 7,3 C 4,8 km/h (1 Bft) 95,65 %
30.05.2020 06:58 18,9 C 7,3 C -1,1 C 13,9 C 64 % 95 % 1022,0 hPa 0,0 l/m 3,2 km/h (1 Bft) W-NW 292 0 min 0,000 mm 0,0 UV-I 51 W/m 6,6 C 7,3 C 3,2 km/h (1 Bft) 95,65 %
30.05.2020 06:57 18,9 C 7,3 C -1,1 C 13,9 C 64 % 95 % 1022,0 hPa 0,0 l/m 3,2 km/h (1 Bft) W-NW 292 0 min 0,000 mm 0,0 UV-I 49 W/m 6,6 C 7,3 C 4,8 km/h (1 Bft) 95,65 %
30.05.2020 06:56 18,9 C 7,3 C -1,1 C 13,9 C 64 % 95 % 1022,0 hPa 0,0 l/m 1,6 km/h (1 Bft) W-NW 292 0 min 0,000 mm 0,0 UV-I 49 W/m 6,6 C 7,3 C 4,8 km/h (1 Bft) 91,30 %
30.05.2020 06:55 18,9 C 7,3 C -1,1 C 13,9 C 64 % 95 % 1022,0 hPa 0,0 l/m 4,8 km/h (1 Bft) W-NW 292 0 min 0,000 mm 0,0 UV-I 49 W/m 6,6 C 7,3 C 6,4 km/h (2 Bft) 100,00 %
30.05.2020 06:54 18,9 C 7,3 C -1,1 C 13,9 C 64 % 95 % 1022,0 hPa 0,0 l/m 0,0 km/h (0 Bft) W-NW 292 0 min 0,000 mm 0,0 UV-I 49 W/m 6,6 C 7,3 C 3,2 km/h (1 Bft) 91,30 %
30.05.2020 06:53 18,9 C 7,3 C -1,1 C 13,9 C 64 % 95 % 1022,0 hPa 0,0 l/m 1,6 km/h (1 Bft) W-NW 292 0 min 0,000 mm 0,0 UV-I 49 W/m 6,6 C 7,3 C 4,8 km/h (1 Bft) 91,30 %
30.05.2020 06:52 18,9 C 7,2 C -1,1 C 13,9 C 64 % 95 % 1022,0 hPa 0,0 l/m 1,6 km/h (1 Bft) W-NW 292 0 min 0,000 mm 0,0 UV-I 49 W/m 6,5 C 7,2 C 4,8 km/h (1 Bft) 95,65 %
30.05.2020 06:51 18,9 C 7,2 C -1,1 C 13,9 C 64 % 95 % 1022,0 hPa 0,0 l/m 0,0 km/h (0 Bft) W-NW 292 0 min 0,000 mm 0,0 UV-I 49 W/m 6,5 C 7,2 C 1,6 km/h (1 Bft) 91,30 %
30.05.2020 06:50 18,9 C 7,2 C -1,1 C 13,9 C 64 % 95 % 1022,0 hPa 0,0 l/m 0,0 km/h (0 Bft) N 0 0 min 0,000 mm 0,0 UV-I 47 W/m 6,5 C 7,2 C 0,0 km/h (0 Bft) 91,30 %
30.05.2020 06:49 18,9 C 7,2 C -1,1 C 13,9 C 64 % 95 % 1022,0 hPa 0,0 l/m 3,2 km/h (1 Bft) W-NW 292 0 min 0,000 mm 0,0 UV-I 47 W/m 6,5 C 7,2 C 6,4 km/h (2 Bft) 95,65 %
30.05.2020 06:48 18,9 C 7,2 C -1,1 C 13,9 C 64 % 95 % 1022,0 hPa 0,0 l/m 1,6 km/h (1 Bft) W-NW 292 0 min 0,000 mm 0,0 UV-I 47 W/m 6,5 C 7,2 C 4,8 km/h (1 Bft) 95,65 %
30.05.2020 06:47 18,9 C 7,2 C -1,1 C 13,9 C 64 % 95 % 1022,0 hPa 0,0 l/m 0,0 km/h (0 Bft) N 0 0 min 0,000 mm 0,0 UV-I 46 W/m 6,5 C 7,2 C 0,0 km/h (0 Bft) 91,30 %
30.05.2020 06:46 18,9 C 7,2 C -1,1 C 13,9 C 64 % 95 % 1022,0 hPa 0,0 l/m 0,0 km/h (0 Bft) N 0 0 min 0,000 mm 0,0 UV-I 44 W/m 6,5 C 7,2 C 0,0 km/h (0 Bft) 100,00 %
30.05.2020 06:45 18,9 C 7,2 C -1,1 C 13,9 C 64 % 95 % 1022,0 hPa 0,0 l/m 0,0 km/h (0 Bft) N 0 0 min 0,000 mm 0,0 UV-I 44 W/m 6,5 C 7,2 C 0,0 km/h (0 Bft) 86,96 %
30.05.2020 06:44 18,9 C 7,2 C -1,1 C 13,9 C 64 % 95 % 1022,0 hPa 0,0 l/m 0,0 km/h (0 Bft) N 0 0 min 0,000 mm 0,0 UV-I 46 W/m 6,5 C 7,2 C 0,0 km/h (0 Bft) 95,65 %
30.05.2020 06:43 18,9 C 7,2 C -1,1 C 13,9 C 64 % 95 % 1022,0 hPa 0,0 l/m 0,0 km/h (0 Bft) N 0 0 min 0,000 mm 0,0 UV-I 46 W/m 6,5 C 7,2 C 0,0 km/h (0 Bft) 95,65 %
30.05.2020 06:42 18,9 C 7,2 C -1,1 C 13,9 C 64 % 95 % 1022,0 hPa 0,0 l/m 0,0 km/h (0 Bft) N 0 0 min 0,000 mm 0,0 UV-I 46 W/m 6,5 C 7,2 C 0,0 km/h (0 Bft) 91,30 %
30.05.2020 06:41 18,9 C 7,2 C -1,1 C 13,9 C 64 % 95 % 1022,0 hPa 0,0 l/m 0,0 km/h (0 Bft) N 0 0 min 0,000 mm 0,0 UV-I 44 W/m 6,5 C 7,2 C 0,0 km/h (0 Bft) 91,30 %
30.05.2020 06:40 18,9 C 7,2 C -1,1 C 13,9 C 64 % 95 % 1022,0 hPa 0,0 l/m 0,0 km/h (0 Bft) N 0 0 min 0,000 mm 0,0 UV-I 44 W/m 6,5 C 7,2 C 0,0 km/h (0 Bft) 91,30 %
30.05.2020 06:39 18,9 C 7,2 C -1,1 C 13,9 C 64 % 95 % 1022,0 hPa 0,0 l/m 0,0 km/h (0 Bft) N 0 0 min 0,000 mm 0,0 UV-I 46 W/m 6,5 C 7,2 C 0,0 km/h (0 Bft) 100,00 %
30.05.2020 06:38 18,9 C 7,2 C -1,1 C 13,9 C 64 % 95 % 1022,0 hPa 0,0 l/m 0,0 km/h (0 Bft) N 0 0 min 0,000 mm 0,0 UV-I 46 W/m 6,5 C 7,2 C 0,0 km/h (0 Bft) 95,65 %
30.05.2020 06:37 18,9 C 7,1 C -1,1 C 13,9 C 64 % 95 % 1022,0 hPa 0,0 l/m 0,0 km/h (0 Bft) N 0 0 min 0,000 mm 0,0 UV-I 46 W/m 6,4 C 7,1 C 0,0 km/h (0 Bft) 95,65 %
30.05.2020 06:36 18,9 C 7,1 C -1,1 C 13,9 C 64 % 95 % 1022,0 hPa 0,0 l/m 0,0 km/h (0 Bft) N 0 0 min 0,000 mm 0,0 UV-I 44 W/m 6,4 C 7,1 C 0,0 km/h (0 Bft) 91,30 %
30.05.2020 06:35 18,9 C 7,1 C -1,1 C 13,9 C 64 % 95 % 1022,0 hPa 0,0 l/m 0,0 km/h (0 Bft) N 0 0 min 0,000 mm 0,0 UV-I 42 W/m 6,4 C 7,1 C 0,0 km/h (0 Bft) 95,65 %
30.05.2020 06:34 18,9 C 7,1 C -1,1 C 13,9 C 64 % 95 % 1022,0 hPa 0,0 l/m 0,0 km/h (0 Bft) W-NW 292 0 min 0,000 mm 0,0 UV-I 42 W/m 6,4 C 7,1 C 1,6 km/h (1 Bft) 91,30 %
30.05.2020 06:33 18,9 C 7,1 C -1,7 C 13,9 C 64 % 95 % 1022,0 hPa 0,0 l/m 0,0 km/h (0 Bft) W-NW 292 0 min 0,000 mm 0,0 UV-I 40 W/m 6,4 C 7,1 C 3,2 km/h (1 Bft) 100,00 %
30.05.2020 06:32 18,9 C 7,1 C -1,1 C 13,9 C 64 % 95 % 1022,0 hPa 0,0 l/m 1,6 km/h (1 Bft) W-NW 292 0 min 0,000 mm 0,0 UV-I 39 W/m 6,4 C 7,1 C 4,8 km/h (1 Bft) 95,65 %
30.05.2020 06:31 18,9 C 7,1 C -1,1 C 13,9 C 64 % 95 % 1022,0 hPa 0,0 l/m 0,0 km/h (0 Bft) W-NW 292 0 min 0,000 mm 0,0 UV-I 39 W/m 6,4 C 7,1 C 3,2 km/h (1 Bft) 91,30 %
30.05.2020 06:30 18,9 C 7,1 C -1,7 C 13,9 C 64 % 95 % 1022,0 hPa 0,0 l/m 3,2 km/h (1 Bft) W-NW 292 0 min 0,000 mm 0,0 UV-I 37 W/m 6,4 C 7,1 C 4,8 km/h (1 Bft) 100,00 %
30.05.2020 06:29 18,9 C 7,1 C -1,7 C 13,9 C 64 % 95 % 1022,1 hPa 0,0 l/m 0,0 km/h (0 Bft) W-NW 292 0 min 0,000 mm 0,0 UV-I 37 W/m 6,4 C 7,1 C 3,2 km/h (1 Bft) 95,65 %
30.05.2020 06:28 18,9 C 7,1 C -1,1 C 13,9 C 64 % 95 % 1022,1 hPa 0,0 l/m 1,6 km/h (1 Bft) W-NW 292 0 min 0,000 mm 0,0 UV-I 37 W/m 6,4 C 7,1 C 4,8 km/h (1 Bft) 95,65 %
30.05.2020 06:27 18,9 C 7,1 C -1,1 C 13,9 C 64 % 95 % 1022,1 hPa 0,0 l/m 0,0 km/h (0 Bft) W-NW 292 0 min 0,000 mm 0,0 UV-I 39 W/m 6,4 C 7,1 C 1,6 km/h (1 Bft) 95,65 %
30.05.2020 06:26 18,9 C 7,1 C -1,1 C 13,9 C 64 % 95 % 1022,1 hPa 0,0 l/m 0,0 km/h (0 Bft) W-NW 292 0 min 0,000 mm 0,0 UV-I 37 W/m 6,4 C 7,1 C 3,2 km/h (1 Bft) 91,30 %
30.05.2020 06:25 18,9 C 7,1 C -1,1 C 13,9 C 64 % 95 % 1022,1 hPa 0,0 l/m 3,2 km/h (1 Bft) W-NW 292 0 min 0,000 mm 0,0 UV-I 37 W/m 6,4 C 7,1 C 4,8 km/h (1 Bft) 95,65 %
30.05.2020 06:24 18,9 C 7,1 C -1,1 C 13,9 C 64 % 95 % 1022,1 hPa 0,0 l/m 0,0 km/h (0 Bft) W-NW 292 0 min 0,000 mm 0,0 UV-I 37 W/m 6,4 C 7,1 C 3,2 km/h (1 Bft) 100,00 %
30.05.2020 06:23 18,9 C 7,0 C -1,1 C 13,9 C 64 % 95 % 1022,1 hPa 0,0 l/m 3,2 km/h (1 Bft) W-NW 292 0 min 0,000 mm 0,0 UV-I 37 W/m 6,3 C 7,0 C 6,4 km/h (2 Bft) 95,65 %
30.05.2020 06:22 18,9 C 7,0 C -1,1 C 13,9 C 64 % 95 % 1022,1 hPa 0,0 l/m 1,6 km/h (1 Bft) W-NW 292 0 min 0,000 mm 0,0 UV-I 37 W/m 6,3 C 7,0 C 4,8 km/h (1 Bft) 91,30 %
30.05.2020 06:21 18,9 C 7,0 C -1,1 C 13,9 C 64 % 95 % 1022,1 hPa 0,0 l/m 0,0 km/h (0 Bft) N 0 0 min 0,000 mm 0,0 UV-I 37 W/m 6,3 C 7,0 C 0,0 km/h (0 Bft) 100,00 %
30.05.2020 06:20 18,9 C 7,0 C -1,1 C 14,4 C 64 % 95 % 1022,1 hPa 0,0 l/m 0,0 km/h (0 Bft) N 0 0 min 0,000 mm 0,0 UV-I 35 W/m 6,3 C 7,0 C 0,0 km/h (0 Bft) 95,65 %
30.05.2020 06:19 18,9 C 7,0 C -1,1 C 14,4 C 64 % 95 % 1022,1 hPa 0,0 l/m 0,0 km/h (0 Bft) W-NW 292 0 min 0,000 mm 0,0 UV-I 33 W/m 6,3 C 7,0 C 3,2 km/h (1 Bft) 91,30 %
30.05.2020 06:18 18,9 C 7,0 C -1,1 C 14,4 C 64 % 95 % 1022,1 hPa 0,0 l/m 1,6 km/h (1 Bft) W-NW 292 0 min 0,000 mm 0,0 UV-I 33 W/m 6,3 C 7,0 C 3,2 km/h (1 Bft) 100,00 %
30.05.2020 06:17 18,9 C 7,0 C -1,1 C 14,4 C 65 % 95 % 1022,1 hPa 0,0 l/m 1,6 km/h (1 Bft) W-NW 292 0 min 0,000 mm 0,0 UV-I 32 W/m 6,3 C 7,0 C 3,2 km/h (1 Bft) 86,96 %
30.05.2020 06:16 18,9 C 7,0 C -1,1 C 14,4 C 64 % 95 % 1022,1 hPa 0,0 l/m 1,6 km/h (1 Bft) W-NW 292 0 min 0,000 mm 0,0 UV-I 32 W/m 6,3 C 7,0 C 3,2 km/h (1 Bft) 95,65 %
30.05.2020 06:15 18,9 C 7,0 C -1,1 C 14,4 C 64 % 95 % 1022,1 hPa 0,0 l/m 3,2 km/h (1 Bft) W-NW 292 0 min 0,000 mm 0,0 UV-I 30 W/m 6,3 C 7,0 C 4,8 km/h (1 Bft) 100,00 %
30.05.2020 06:14 18,9 C 7,0 C -1,1 C 14,4 C 64 % 95 % 1022,4 hPa 0,0 l/m 3,2 km/h (1 Bft) W-NW 292 0 min 0,000 mm 0,0 UV-I 30 W/m 6,3 C 7,0 C 4,8 km/h (1 Bft) 95,65 %
30.05.2020 06:13 18,9 C 7,0 C -1,1 C 14,4 C 64 % 95 % 1022,4 hPa 0,0 l/m 1,6 km/h (1 Bft) W-NW 292 0 min 0,000 mm 0,0 UV-I 30 W/m 6,3 C 7,0 C 3,2 km/h (1 Bft) 95,65 %
30.05.2020 06:12 18,9 C 7,0 C -1,1 C 14,4 C 64 % 95 % 1022,4 hPa 0,0 l/m 0,0 km/h (0 Bft) N 0 0 min 0,000 mm 0,0 UV-I 30 W/m 6,3 C 7,0 C 0,0 km/h (0 Bft) 100,00 %
30.05.2020 06:11 18,9 C 7,0 C -1,1 C 14,4 C 64 % 95 % 1022,4 hPa 0,0 l/m 0,0 km/h (0 Bft) N 0 0 min 0,000 mm 0,0 UV-I 26 W/m 6,3 C 7,0 C 0,0 km/h (0 Bft) 95,65 %
30.05.2020 06:10 18,9 C 7,0 C -1,1 C 14,4 C 64 % 95 % 1022,4 hPa 0,0 l/m 0,0 km/h (0 Bft) N 0 0 min 0,000 mm 0,0 UV-I 26 W/m 6,3 C 7,0 C 0,0 km/h (0 Bft) 95,65 %
30.05.2020 06:09 18,9 C 7,0 C -1,1 C 14,4 C 64 % 95 % 1022,4 hPa 0,0 l/m 0,0 km/h (0 Bft) N 0 0 min 0,000 mm 0,0 UV-I 25 W/m 6,3 C 7,0 C 0,0 km/h (0 Bft) 91,30 %
30.05.2020 06:08 18,9 C 7,0 C -1,1 C 14,4 C 64 % 95 % 1022,4 hPa 0,0 l/m 0,0 km/h (0 Bft) W-NW 292 0 min 0,000 mm 0,0 UV-I 25 W/m 6,3 C 7,0 C 1,6 km/h (1 Bft) 91,30 %
30.05.2020 06:07 18,9 C 7,0 C -1,1 C 14,4 C 64 % 95 % 1022,4 hPa 0,0 l/m 0,0 km/h (0 Bft) N 0 0 min 0,000 mm 0,0 UV-I 23 W/m 6,3 C 7,0 C 0,0 km/h (0 Bft) 95,65 %
30.05.2020 06:06 18,9 C 7,1 C -1,1 C 14,4 C 64 % 95 % 1022,4 hPa 0,0 l/m 0,0 km/h (0 Bft) N 0 0 min 0,000 mm 0,0 UV-I 23 W/m 6,4 C 7,1 C 0,0 km/h (0 Bft) 100,00 %
30.05.2020 06:05 18,9 C 7,1 C -1,1 C 14,4 C 64 % 95 % 1022,4 hPa 0,0 l/m 0,0 km/h (0 Bft) N 0 0 min 0,000 mm 0,0 UV-I 21 W/m 6,4 C 7,1 C 0,0 km/h (0 Bft) 95,65 %
30.05.2020 06:04 18,9 C 7,1 C -1,1 C 14,4 C 64 % 95 % 1022,4 hPa 0,0 l/m 0,0 km/h (0 Bft) N 0 0 min 0,000 mm 0,0 UV-I 19 W/m 6,4 C 7,1 C 0,0 km/h (0 Bft) 95,65 %
30.05.2020 06:03 18,9 C 7,1 C -1,1 C 14,4 C 64 % 95 % 1022,4 hPa 0,0 l/m 0,0 km/h (0 Bft) N 0 0 min 0,000 mm 0,0 UV-I 19 W/m 6,4 C 7,1 C 0,0 km/h (0 Bft) 100,00 %
30.05.2020 06:02 19,0 C 7,1 C -1,1 C 14,4 C 64 % 95 % 1022,4 hPa 0,0 l/m 0,0 km/h (0 Bft) N 0 0 min 0,000 mm 0,0 UV-I 18 W/m 6,4 C 7,1 C 0,0 km/h (0 Bft) 95,65 %
30.05.2020 06:01 19,0 C 7,1 C -1,1 C 14,4 C 64 % 95 % 1022,4 hPa 0,0 l/m 0,0 km/h (0 Bft) N 0 0 min 0,000 mm 0,0 UV-I 18 W/m 6,4 C 7,1 C 0,0 km/h (0 Bft) 95,65 %
30.05.2020 06:00 19,0 C 7,1 C -1,1 C 14,4 C 64 % 95 % 1022,4 hPa 0,0 l/m 0,0 km/h (0 Bft) N 0 0 min 0,000 mm 0,0 UV-I 16 W/m 6,4 C 7,1 C 0,0 km/h (0 Bft) 100,00 %
30.05.2020 05:59 19,0 C 7,1 C -1,1 C 14,4 C 64 % 95 % 1022,3 hPa 0,0 l/m 0,0 km/h (0 Bft) N 0 0 min 0,000 mm 0,0 UV-I 16 W/m 6,4 C 7,1 C 0,0 km/h (0 Bft) 95,65 %
30.05.2020 05:58 19,0 C 7,1 C -1,1 C 14,4 C 64 % 95 % 1022,3 hPa 0,0 l/m 0,0 km/h (0 Bft) N 0 0 min 0,000 mm 0,0 UV-I 16 W/m 6,4 C 7,1 C 0,0 km/h (0 Bft) 95,65 %
30.05.2020 05:57 19,0 C 7,1 C -1,1 C 14,4 C 64 % 95 % 1022,3 hPa 0,0 l/m 0,0 km/h (0 Bft) N 0 0 min 0,000 mm 0,0 UV-I 14 W/m 6,4 C 7,1 C 0,0 km/h (0 Bft) 95,65 %
30.05.2020 05:56 19,0 C 7,1 C -1,1 C 14,4 C 64 % 95 % 1022,3 hPa 0,0 l/m 0,0 km/h (0 Bft) W-NW 292 0 min 0,000 mm 0,0 UV-I 14 W/m 6,4 C 7,1 C 1,6 km/h (1 Bft) 95,65 %
30.05.2020 05:55 19,0 C 7,2 C -1,1 C 14,4 C 64 % 95 % 1022,3 hPa 0,0 l/m 0,0 km/h (0 Bft) N 0 0 min 0,000 mm 0,0 UV-I 14 W/m 6,5 C 7,2 C 0,0 km/h (0 Bft) 95,65 %
30.05.2020 05:54 19,0 C 7,2 C -1,1 C 14,4 C 64 % 95 % 1022,3 hPa 0,0 l/m 0,0 km/h (0 Bft) N 0 0 min 0,000 mm 0,0 UV-I 14 W/m 6,5 C 7,2 C 0,0 km/h (0 Bft) 95,65 %
30.05.2020 05:53 19,0 C 7,2 C -1,1 C 14,4 C 64 % 95 % 1022,3 hPa 0,0 l/m 0,0 km/h (0 Bft) N 0 0 min 0,000 mm 0,0 UV-I 12 W/m 6,5 C 7,2 C 0,0 km/h (0 Bft) 100,00 %
30.05.2020 05:52 19,0 C 7,2 C -1,1 C 14,4 C 64 % 95 % 1022,3 hPa 0,0 l/m 0,0 km/h (0 Bft) N 0 0 min 0,000 mm 0,0 UV-I 12 W/m 6,5 C 7,2 C 0,0 km/h (0 Bft) 95,65 %
30.05.2020 05:51 19,0 C 7,2 C -1,1 C 14,4 C 64 % 95 % 1022,3 hPa 0,0 l/m 0,0 km/h (0 Bft) N 0 0 min 0,000 mm 0,0 UV-I 12 W/m 6,5 C 7,2 C 0,0 km/h (0 Bft) 95,65 %
30.05.2020 05:50 19,0 C 7,2 C -1,1 C 14,4 C 64 % 95 % 1022,3 hPa 0,0 l/m 0,0 km/h (0 Bft) N 0 0 min 0,000 mm 0,0 UV-I 11 W/m 6,5 C 7,2 C 0,0 km/h (0 Bft) 100,00 %
30.05.2020 05:49 19,0 C 7,2 C -1,1 C 14,4 C 64 % 95 % 1022,3 hPa 0,0 l/m 0,0 km/h (0 Bft) N 0 0 min 0,000 mm 0,0 UV-I 11 W/m 6,5 C 7,2 C 0,0 km/h (0 Bft) 95,65 %
30.05.2020 05:48 19,0 C 7,2 C -1,1 C 14,4 C 64 % 95 % 1022,3 hPa 0,0 l/m 0,0 km/h (0 Bft) N 0 0 min 0,000 mm 0,0 UV-I 9 W/m 6,5 C 7,2 C 0,0 km/h (0 Bft) 95,65 %
30.05.2020 05:47 19,0 C 7,2 C -1,1 C 14,4 C 64 % 95 % 1022,3 hPa 0,0 l/m 0,0 km/h (0 Bft) W-NW 292 0 min 0,000 mm 0,0 UV-I 9 W/m 6,5 C 7,2 C 1,6 km/h (1 Bft) 95,65 %
30.05.2020 05:46 19,0 C 7,2 C -1,1 C 14,4 C 64 % 95 % 1022,3 hPa 0,0 l/m 0,0 km/h (0 Bft) N 0 0 min 0,000 mm 0,0 UV-I 9 W/m 6,5 C 7,2 C 0,0 km/h (0 Bft) 95,65 %
30.05.2020 05:45 19,0 C 7,3 C -1,1 C 14,4 C 64 % 95 % 1022,3 hPa 0,0 l/m 0,0 km/h (0 Bft) N 0 0 min 0,000 mm 0,0 UV-I 9 W/m 6,6 C 7,3 C 0,0 km/h (0 Bft) 95,65 %
30.05.2020 05:44 19,0 C 7,3 C -1,1 C 14,4 C 64 % 95 % 1022,4 hPa 0,0 l/m 0,0 km/h (0 Bft) N 0 0 min 0,000 mm 0,0 UV-I 9 W/m 6,6 C 7,3 C 0,0 km/h (0 Bft) 100,00 %
30.05.2020 05:43 19,0 C 7,3 C -1,1 C 14,4 C 64 % 95 % 1022,4 hPa 0,0 l/m 0,0 km/h (0 Bft) N 0 0 min 0,000 mm 0,0 UV-I 9 W/m 6,6 C 7,3 C 0,0 km/h (0 Bft) 95,65 %
30.05.2020 05:42 19,0 C 7,3 C -1,1 C 14,4 C 64 % 95 % 1022,4 hPa 0,0 l/m 1,6 km/h (1 Bft) W-NW 292 0 min 0,000 mm 0,0 UV-I 9 W/m 6,6 C 7,3 C 3,2 km/h (1 Bft) 95,65 %
30.05.2020 05:41 19,0 C 7,3 C -1,7 C 14,4 C 64 % 95 % 1022,4 hPa 0,0 l/m 0,0 km/h (0 Bft) W-NW 292 0 min 0,000 mm 0,0 UV-I 9 W/m 6,6 C 7,3 C 1,6 km/h (1 Bft) 95,65 %
30.05.2020 05:40 19,0 C 7,3 C -1,7 C 14,4 C 64 % 95 % 1022,4 hPa 0,0 l/m 1,6 km/h (1 Bft) W-NW 292 0 min 0,000 mm 0,0 UV-I 7 W/m 6,6 C 7,3 C 3,2 km/h (1 Bft) 95,65 %
30.05.2020 05:39 19,0 C 7,3 C -1,1 C 14,4 C 64 % 95 % 1022,4 hPa 0,0 l/m 3,2 km/h (1 Bft) W-NW 292 0 min 0,000 mm 0,0 UV-I 7 W/m 6,6 C 7,3 C 4,8 km/h (1 Bft) 95,65 %
30.05.2020 05:38 19,0 C 7,4 C -1,7 C 14,4 C 64 % 95 % 1022,4 hPa 0,0 l/m 3,2 km/h (1 Bft) W-NW 292 0 min 0,000 mm 0,0 UV-I 7 W/m 6,7 C 7,4 C 4,8 km/h (1 Bft) 95,65 %
30.05.2020 05:37 19,0 C 7,4 C -1,1 C 14,4 C 64 % 95 % 1022,4 hPa 0,0 l/m 3,2 km/h (1 Bft) W-NW 292 0 min 0,000 mm 0,0 UV-I 7 W/m 6,7 C 7,4 C 4,8 km/h (1 Bft) 91,30 %
30.05.2020 05:36 19,0 C 7,4 C -1,1 C 14,4 C 65 % 95 % 1022,4 hPa 0,0 l/m 3,2 km/h (1 Bft) W-NW 292 0 min 0,000 mm 0,0 UV-I 7 W/m 6,7 C 7,4 C 4,8 km/h (1 Bft) 91,30 %
30.05.2020 05:35 19,0 C 7,4 C -1,1 C 14,4 C 64 % 95 % 1022,4 hPa 0,0 l/m 3,2 km/h (1 Bft) W-NW 292 0 min 0,000 mm 0,0 UV-I 7 W/m 6,7 C 7,4 C 3,2 km/h (1 Bft) 95,65 %
30.05.2020 05:34 19,0 C 7,4 C -1,7 C 14,4 C 64 % 95 % 1022,4 hPa 0,0 l/m 0,0 km/h (0 Bft) W-NW 292 0 min 0,000 mm 0,0 UV-I 7 W/m 6,7 C 7,4 C 1,6 km/h (1 Bft) 91,30 %
30.05.2020 05:33 19,0 C 7,4 C -1,7 C 14,4 C 64 % 95 % 1022,4 hPa 0,0 l/m 0,0 km/h (0 Bft) N 0 0 min 0,000 mm 0,0 UV-I 7 W/m 6,7 C 7,4 C 0,0 km/h (0 Bft) 91,30 %
30.05.2020 05:32 19,0 C 7,4 C -1,7 C 14,4 C 64 % 95 % 1022,4 hPa 0,0 l/m 1,6 km/h (1 Bft) W-NW 292 0 min 0,000 mm 0,0 UV-I 7 W/m 6,7 C 7,4 C 3,2 km/h (1 Bft) 100,00 %
30.05.2020 05:31 19,0 C 7,4 C -1,1 C 14,4 C 64 % 95 % 1022,4 hPa 0,0 l/m 0,0 km/h (0 Bft) N 0 0 min 0,000 mm 0,0 UV-I 7 W/m 6,7 C 7,4 C 0,0 km/h (0 Bft) 91,30 %
30.05.2020 05:30 19,0 C 7,5 C -1,1 C 14,4 C 64 % 95 % 1022,4 hPa 0,0 l/m 0,0 km/h (0 Bft) W-NW 292 0 min 0,000 mm 0,0 UV-I 7 W/m 6,8 C 7,5 C 1,6 km/h (1 Bft) 95,65 %
30.05.2020 05:29 19,0 C 7,5 C -1,7 C 14,4 C 64 % 95 % 1022,4 hPa 0,0 l/m 3,2 km/h (1 Bft) W-NW 292 0 min 0,000 mm 0,0 UV-I 7 W/m 6,8 C 7,5 C 4,8 km/h (1 Bft) 95,65 %
30.05.2020 05:28 19,0 C 7,5 C -1,7 C 14,4 C 64 % 95 % 1022,4 hPa 0,0 l/m 3,2 km/h (1 Bft) W-NW 292 0 min 0,000 mm 0,0 UV-I 7 W/m 6,8 C 7,5 C 6,4 km/h (2 Bft) 95,65 %
30.05.2020 05:27 19,0 C 7,5 C -1,7 C 14,4 C 64 % 95 % 1022,4 hPa 0,0 l/m 4,8 km/h (1 Bft) W-NW 292 0 min 0,000 mm 0,0 UV-I 5 W/m 6,8 C 7,5 C 6,4 km/h (2 Bft) 86,96 %
30.05.2020 05:26 19,0 C 7,6 C -1,1 C 14,4 C 64 % 95 % 1022,4 hPa 0,0 l/m 6,4 km/h (2 Bft) NW 315 0 min 0,000 mm 0,0 UV-I 5 W/m 6,9 C 7,6 C 8,0 km/h (2 Bft) 100,00 %
30.05.2020 05:25 19,0 C 7,6 C -1,1 C 14,4 C 64 % 95 % 1022,4 hPa 0,0 l/m 3,2 km/h (1 Bft) NW 315 0 min 0,000 mm 0,0 UV-I 5 W/m 6,9 C 7,6 C 8,0 km/h (2 Bft) 86,96 %
30.05.2020 05:24 19,0 C 7,6 C -1,1 C 14,4 C 64 % 95 % 1022,4 hPa 0,0 l/m 3,2 km/h (1 Bft) NW 315 0 min 0,000 mm 0,0 UV-I 5 W/m 6,9 C 7,6 C 4,8 km/h (1 Bft) 91,30 %
30.05.2020 05:23 19,0 C 7,6 C -1,1 C 14,4 C 64 % 95 % 1022,4 hPa 0,0 l/m 3,2 km/h (1 Bft) NW 315 0 min 0,000 mm 0,0 UV-I 5 W/m 6,9 C 7,6 C 4,8 km/h (1 Bft) 100,00 %
30.05.2020 05:22 19,0 C 7,6 C -1,1 C 14,4 C 64 % 95 % 1022,4 hPa 0,0 l/m 4,8 km/h (1 Bft) NW 315 0 min 0,000 mm 0,0 UV-I 5 W/m 6,9 C 7,6 C 8,0 km/h (2 Bft) 91,30 %
30.05.2020 05:21 19,0 C 7,6 C -1,1 C 14,4 C 64 % 95 % 1022,4 hPa 0,0 l/m 3,2 km/h (1 Bft) NW 315 0 min 0,000 mm 0,0 UV-I 5 W/m 6,9 C 7,6 C 4,8 km/h (1 Bft) 95,65 %
30.05.2020 05:20 19,0 C 7,6 C -1,1 C 14,4 C 64 % 95 % 1022,4 hPa 0,0 l/m 3,2 km/h (1 Bft) NW 315 0 min 0,000 mm 0,0 UV-I 5 W/m 6,9 C 7,6 C 4,8 km/h (1 Bft) 91,30 %
30.05.2020 05:19 19,0 C 7,7 C -1,1 C 14,4 C 64 % 95 % 1022,4 hPa 0,0 l/m 3,2 km/h (1 Bft) NW 315 0 min 0,000 mm 0,0 UV-I 5 W/m 7,0 C 7,7 C 4,8 km/h (1 Bft) 95,65 %
30.05.2020 05:18 19,0 C 7,7 C -1,1 C 14,4 C 64 % 95 % 1022,4 hPa 0,0 l/m 3,2 km/h (1 Bft) NW 315 0 min 0,000 mm 0,0 UV-I 5 W/m 7,0 C 7,7 C 4,8 km/h (1 Bft) 86,96 %
30.05.2020 05:17 19,0 C 7,7 C -1,1 C 14,4 C 64 % 95 % 1022,4 hPa 0,0 l/m 0,0 km/h (0 Bft) N 0 0 min 0,000 mm 0,0 UV-I 0 W/m 7,0 C 7,7 C 0,0 km/h (0 Bft) 95,65 %
30.05.2020 05:16 19,0 C 7,7 C -1,1 C 14,4 C 64 % 94 % 1022,4 hPa 0,0 l/m 0,0 km/h (0 Bft) N 0 0 min 0,000 mm 0,0 UV-I 0 W/m 6,8 C 7,7 C 0,0 km/h (0 Bft) 91,30 %
30.05.2020 05:15 19,0 C 7,7 C -1,1 C 14,4 C 64 % 94 % 1022,4 hPa 0,0 l/m 1,6 km/h (1 Bft) NW 315 0 min 0,000 mm 0,0 UV-I 0 W/m 6,8 C 7,7 C 3,2 km/h (1 Bft) 95,65 %
30.05.2020 05:14 19,0 C 7,7 C -1,1 C 14,4 C 64 % 94 % 1022,4 hPa 0,0 l/m 0,0 km/h (0 Bft) N 0 0 min 0,000 mm 0,0 UV-I 0 W/m 6,8 C 7,7 C 0,0 km/h (0 Bft) 91,30 %
30.05.2020 05:13 19,0 C 7,7 C -1,1 C 14,4 C 64 % 94 % 1022,4 hPa 0,0 l/m 0,0 km/h (0 Bft) NW 315 0 min 0,000 mm 0,0 UV-I 0 W/m 6,8 C 7,7 C 1,6 km/h (1 Bft) 91,30 %
30.05.2020 05:12 19,0 C 7,8 C -1,7 C 14,4 C 64 % 94 % 1022,4 hPa 0,0 l/m 0,0 km/h (0 Bft) NW 315 0 min 0,000 mm 0,0 UV-I 0 W/m 6,9 C 7,8 C 1,6 km/h (1 Bft) 95,65 %
30.05.2020 05:11 19,0 C 7,8 C -1,1 C 14,4 C 64 % 94 % 1022,4 hPa 0,0 l/m 1,6 km/h (1 Bft) NW 315 0 min 0,000 mm 0,0 UV-I 0 W/m 6,9 C 7,8 C 4,8 km/h (1 Bft) 100,00 %
30.05.2020 05:10 19,0 C 7,8 C -1,7 C 14,4 C 64 % 94 % 1022,4 hPa 0,0 l/m 3,2 km/h (1 Bft) NW 315 0 min 0,000 mm 0,0 UV-I 0 W/m 6,9 C 7,8 C 8,0 km/h (2 Bft) 95,65 %
30.05.2020 05:09 19,0 C 7,8 C -1,1 C 14,4 C 64 % 94 % 1022,4 hPa 0,0 l/m 3,2 km/h (1 Bft) NW 315 0 min 0,000 mm 0,0 UV-I 0 W/m 6,9 C 7,8 C 8,0 km/h (2 Bft) 95,65 %
30.05.2020 05:08 19,0 C 7,9 C -1,1 C 14,4 C 64 % 95 % 1022,4 hPa 0,0 l/m 1,6 km/h (1 Bft) NW 315 0 min 0,000 mm 0,0 UV-I 0 W/m 7,1 C 7,9 C 4,8 km/h (1 Bft) 100,00 %
30.05.2020 05:07 19,0 C 7,9 C -1,1 C 14,4 C 64 % 95 % 1022,4 hPa 0,0 l/m 3,2 km/h (1 Bft) NW 315 0 min 0,000 mm 0,0 UV-I 0 W/m 7,1 C 7,9 C 4,8 km/h (1 Bft) 95,65 %
30.05.2020 05:06 19,0 C 7,9 C -1,1 C 14,4 C 64 % 95 % 1022,4 hPa 0,0 l/m 0,0 km/h (0 Bft) N 0 0 min 0,000 mm 0,0 UV-I 0 W/m 7,1 C 7,9 C 0,0 km/h (0 Bft) 95,65 %
30.05.2020 05:05 19,0 C 7,9 C -1,1 C 14,4 C 64 % 95 % 1022,4 hPa 0,0 l/m 0,0 km/h (0 Bft) N 0 0 min 0,000 mm 0,0 UV-I 0 W/m 7,1 C 7,9 C 0,0 km/h (0 Bft) 95,65 %
30.05.2020 05:04 19,0 C 7,9 C -1,1 C 14,4 C 64 % 95 % 1022,4 hPa 0,0 l/m 0,0 km/h (0 Bft) N 0 0 min 0,000 mm 0,0 UV-I 0 W/m 7,1 C 7,9 C 0,0 km/h (0 Bft) 100,00 %
30.05.2020 05:03 19,0 C 7,9 C -1,1 C 14,4 C 64 % 95 % 1022,4 hPa 0,0 l/m 0,0 km/h (0 Bft) N 0 0 min 0,000 mm 0,0 UV-I 0 W/m 7,1 C 7,9 C 0,0 km/h (0 Bft) 95,65 %
30.05.2020 05:02 19,0 C 7,9 C -1,1 C 14,4 C 64 % 95 % 1022,4 hPa 0,0 l/m 0,0 km/h (0 Bft) N 0 0 min 0,000 mm 0,0 UV-I 0 W/m 7,1 C 7,9 C 0,0 km/h (0 Bft) 95,65 %
30.05.2020 05:01 19,0 C 7,9 C -1,1 C 14,4 C 64 % 95 % 1022,4 hPa 0,0 l/m 0,0 km/h (0 Bft) N 0 0 min 0,000 mm 0,0 UV-I 0 W/m 7,1 C 7,9 C 0,0 km/h (0 Bft) 95,65 %
30.05.2020 05:00 19,0 C 8,0 C -1,1 C 14,4 C 64 % 95 % 1022,4 hPa 0,0 l/m 0,0 km/h (0 Bft) W-NW 292 0 min 0,000 mm 0,0 UV-I 0 W/m 7,2 C 8,0 C 3,2 km/h (1 Bft) 95,65 %
30.05.2020 04:59 19,0 C 8,0 C -1,1 C 14,4 C 64 % 95 % 1022,4 hPa 0,0 l/m 1,6 km/h (1 Bft) W-NW 292 0 min 0,000 mm 0,0 UV-I 0 W/m 7,2 C 8,0 C 3,2 km/h (1 Bft) 95,65 %
30.05.2020 04:58 19,0 C 8,0 C -1,1 C 14,4 C 64 % 95 % 1022,4 hPa 0,0 l/m 0,0 km/h (0 Bft) W-NW 292 0 min 0,000 mm 0,0 UV-I 0 W/m 7,2 C 8,0 C 1,6 km/h (1 Bft) 100,00 %
30.05.2020 04:57 19,0 C 8,1 C -1,1 C 14,4 C 64 % 95 % 1022,4 hPa 0,0 l/m 3,2 km/h (1 Bft) W-NW 292 0 min 0,000 mm 0,0 UV-I 0 W/m 7,3 C 8,1 C 6,4 km/h (2 Bft) 86,96 %
30.05.2020 04:56 19,0 C 8,1 C -1,1 C 14,4 C 64 % 95 % 1022,4 hPa 0,0 l/m 3,2 km/h (1 Bft) W-NW 292 0 min 0,000 mm 0,0 UV-I 0 W/m 7,3 C 8,1 C 4,8 km/h (1 Bft) 95,65 %
30.05.2020 04:55 19,0 C 8,1 C -1,1 C 14,4 C 64 % 95 % 1022,4 hPa 0,0 l/m 1,6 km/h (1 Bft) W-NW 292 0 min 0,000 mm 0,0 UV-I 0 W/m 7,3 C 8,1 C 3,2 km/h (1 Bft) 95,65 %
30.05.2020 04:54 19,0 C 8,1 C -1,1 C 14,4 C 64 % 95 % 1022,4 hPa 0,0 l/m 3,2 km/h (1 Bft) W-NW 292 0 min 0,000 mm 0,0 UV-I 0 W/m 7,3 C 8,1 C 4,8 km/h (1 Bft) 95,65 %
30.05.2020 04:53 19,0 C 8,1 C -1,1 C 14,4 C 64 % 94 % 1022,4 hPa 0,0 l/m 3,2 km/h (1 Bft) W-NW 292 0 min 0,000 mm 0,0 UV-I 0 W/m 7,2 C 8,1 C 4,8 km/h (1 Bft) 95,65 %
30.05.2020 04:52 19,0 C 8,2 C -1,1 C 14,4 C 64 % 94 % 1022,4 hPa 0,0 l/m 3,2 km/h (1 Bft) W-NW 292 0 min 0,000 mm 0,0 UV-I 0 W/m 7,3 C 8,2 C 4,8 km/h (1 Bft) 100,00 %
30.05.2020 04:51 19,0 C 8,2 C -1,1 C 14,4 C 64 % 94 % 1022,4 hPa 0,0 l/m 3,2 km/h (1 Bft) W-NW 292 0 min 0,000 mm 0,0 UV-I 0 W/m 7,3 C 8,2 C 4,8 km/h (1 Bft) 95,65 %
30.05.2020 04:50 19,0 C 8,2 C -1,1 C 14,4 C 64 % 94 % 1022,4 hPa 0,0 l/m 4,8 km/h (1 Bft) W-NW 292 0 min 0,000 mm 0,0 UV-I 0 W/m 7,3 C 8,2 C 6,4 km/h (2 Bft) 86,96 %
30.05.2020 04:49 19,0 C 8,2 C -1,1 C 14,4 C 64 % 94 % 1022,4 hPa 0,0 l/m 4,8 km/h (1 Bft) W 270 0 min 0,000 mm 0,0 UV-I 0 W/m 7,3 C 8,2 C 6,4 km/h (2 Bft) 91,30 %
30.05.2020 04:48 19,0 C 8,2 C -1,1 C 14,4 C 65 % 95 % 1022,4 hPa 0,0 l/m 4,8 km/h (1 Bft) W 270 0 min 0,000 mm 0,0 UV-I 0 W/m 7,4 C 8,2 C 8,0 km/h (2 Bft) 95,65 %
30.05.2020 04:47 19,0 C 8,3 C -1,1 C 14,4 C 64 % 95 % 1022,4 hPa 0,0 l/m 4,8 km/h (1 Bft) W 270 0 min 0,000 mm 0,0 UV-I 0 W/m 7,5 C 8,3 C 8,0 km/h (2 Bft) 95,65 %
30.05.2020 04:46 19,0 C 8,3 C -1,1 C 14,4 C 64 % 95 % 1022,4 hPa 0,0 l/m 4,8 km/h (1 Bft) W-NW 292 0 min 0,000 mm 0,0 UV-I 0 W/m 7,5 C 8,3 C 8,0 km/h (2 Bft) 100,00 %
30.05.2020 04:45 19,0 C 8,3 C -1,1 C 14,4 C 64 % 95 % 1022,4 hPa 0,0 l/m 4,8 km/h (1 Bft) NW 315 0 min 0,000 mm 0,0 UV-I 0 W/m 7,5 C 8,3 C 8,0 km/h (2 Bft) 95,65 %
30.05.2020 04:44 19,0 C 8,3 C -1,1 C 14,4 C 64 % 95 % 1022,4 hPa 0,0 l/m 4,8 km/h (1 Bft) NW 315 0 min 0,000 mm 0,0 UV-I 0 W/m 7,5 C 8,3 C 4,8 km/h (1 Bft) 95,65 %
30.05.2020 04:43 19,0 C 8,4 C -1,1 C 14,4 C 64 % 95 % 1022,4 hPa 0,0 l/m 1,6 km/h (1 Bft) NW 315 0 min 0,000 mm 0,0 UV-I 0 W/m 7,6 C 8,4 C 4,8 km/h (1 Bft) 100,00 %
30.05.2020 04:42 19,0 C 8,4 C -1,1 C 14,4 C 64 % 95 % 1022,4 hPa 0,0 l/m 3,2 km/h (1 Bft) N-NW 337 0 min 0,000 mm 0,0 UV-I 0 W/m 7,6 C 8,4 C 4,8 km/h (1 Bft) 91,30 %
30.05.2020 04:41 19,0 C 8,4 C -1,1 C 14,4 C 64 % 95 % 1022,4 hPa 0,0 l/m 3,2 km/h (1 Bft) N-NW 337 0 min 0,000 mm 0,0 UV-I 0 W/m 7,6 C 8,4 C 4,8 km/h (1 Bft) 95,65 %
30.05.2020 04:40 19,0 C 8,4 C -1,1 C 14,4 C 64 % 95 % 1022,4 hPa 0,0 l/m 1,6 km/h (1 Bft) N 360 0 min 0,000 mm 0,0 UV-I 0 W/m 7,6 C 8,4 C 3,2 km/h (1 Bft) 95,65 %
30.05.2020 04:39 19,0 C 8,4 C -1,1 C 14,4 C 64 % 95 % 1022,4 hPa 0,0 l/m 1,6 km/h (1 Bft) N 360 0 min 0,000 mm 0,0 UV-I 0 W/m 7,6 C 8,4 C 4,8 km/h (1 Bft) 91,30 %
30.05.2020 04:38 19,0 C 8,4 C -1,1 C 14,4 C 64 % 95 % 1022,4 hPa 0,0 l/m 3,2 km/h (1 Bft) N 360 0 min 0,000 mm 0,0 UV-I 0 W/m 7,6 C 8,4 C 4,8 km/h (1 Bft) 95,65 %
30.05.2020 04:37 19,0 C 8,4 C -0,6 C 14,4 C 64 % 95 % 1022,4 hPa 0,0 l/m 3,2 km/h (1 Bft) N 360 0 min 0,000 mm 0,0 UV-I 0 W/m 7,6 C 8,4 C 3,2 km/h (1 Bft) 100,00 %
30.05.2020 04:36 19,0 C 8,4 C -0,6 C 14,4 C 64 % 95 % 1022,4 hPa 0,0 l/m 3,2 km/h (1 Bft) N-NO 22 0 min 0,000 mm 0,0 UV-I 0 W/m 7,6 C 8,4 C 4,8 km/h (1 Bft) 95,65 %
30.05.2020 04:35 19,0 C 8,4 C -0,6 C 14,4 C 64 % 95 % 1022,4 hPa 0,0 l/m 0,0 km/h (0 Bft) N 0 0 min 0,000 mm 0,0 UV-I 0 W/m 7,6 C 8,4 C 0,0 km/h (0 Bft) 95,65 %
30.05.2020 04:34 19,0 C 8,5 C -0,6 C 14,4 C 64 % 95 % 1022,4 hPa 0,0 l/m 1,6 km/h (1 Bft) N-NO 22 0 min 0,000 mm 0,0 UV-I 0 W/m 7,7 C 8,5 C 3,2 km/h (1 Bft) 100,00 %
30.05.2020 04:33 19,0 C 8,5 C -0,6 C 14,4 C 64 % 95 % 1022,4 hPa 0,0 l/m 3,2 km/h (1 Bft) N-NO 22 0 min 0,000 mm 0,0 UV-I 0 W/m 7,7 C 8,5 C 4,8 km/h (1 Bft) 95,65 %
30.05.2020 04:32 19,0 C 8,5 C -0,6 C 14,4 C 64 % 95 % 1022,4 hPa 0,0 l/m 0,0 km/h (0 Bft) N-NO 22 0 min 0,000 mm 0,0 UV-I 0 W/m 7,7 C 8,5 C 3,2 km/h (1 Bft) 95,65 %
30.05.2020 04:31 19,0 C 8,5 C -0,6 C 14,4 C 64 % 95 % 1022,4 hPa 0,0 l/m 0,0 km/h (0 Bft) N 0 0 min 0,000 mm 0,0 UV-I 0 W/m 7,7 C 8,5 C 0,0 km/h (0 Bft) 100,00 %
30.05.2020 04:30 19,0 C 8,5 C -0,6 C 14,4 C 64 % 95 % 1022,4 hPa 0,0 l/m 0,0 km/h (0 Bft) N 0 0 min 0,000 mm 0,0 UV-I 0 W/m 7,7 C 8,5 C 0,0 km/h (0 Bft) 95,65 %
30.05.2020 04:29 19,0 C 8,6 C -0,6 C 14,4 C 64 % 95 % 1022,4 hPa 0,0 l/m 0,0 km/h (0 Bft) N 0 0 min 0,000 mm 0,0 UV-I 0 W/m 7,8 C 8,6 C 0,0 km/h (0 Bft) 95,65 %
30.05.2020 04:28 19,0 C 8,6 C -0,6 C 14,4 C 64 % 95 % 1022,4 hPa 0,0 l/m 0,0 km/h (0 Bft) N 0 0 min 0,000 mm 0,0 UV-I 0 W/m 7,8 C 8,6 C 0,0 km/h (0 Bft) 100,00 %
30.05.2020 04:27 19,0 C 8,6 C -0,6 C 14,4 C 64 % 95 % 1022,4 hPa 0,0 l/m 0,0 km/h (0 Bft) N-NO 22 0 min 0,000 mm 0,0 UV-I 0 W/m 7,8 C 8,6 C 1,6 km/h (1 Bft) 91,30 %
30.05.2020 04:26 19,0 C 8,6 C -0,6 C 14,4 C 64 % 95 % 1022,4 hPa 0,0 l/m 0,0 km/h (0 Bft) N 0 0 min 0,000 mm 0,0 UV-I 0 W/m 7,8 C 8,6 C 0,0 km/h (0 Bft) 91,30 %
30.05.2020 04:25 19,0 C 8,6 C -0,6 C 14,4 C 64 % 95 % 1022,4 hPa 0,0 l/m 0,0 km/h (0 Bft) N 0 0 min 0,000 mm 0,0 UV-I 0 W/m 7,8 C 8,6 C 0,0 km/h (0 Bft) 100,00 %
30.05.2020 04:24 19,0 C 8,6 C -0,6 C 14,4 C 64 % 95 % 1022,4 hPa 0,0 l/m 0,0 km/h (0 Bft) N 0 0 min 0,000 mm 0,0 UV-I 0 W/m 7,8 C 8,6 C 0,0 km/h (0 Bft) 86,96 %
30.05.2020 04:23 19,0 C 8,6 C -0,6 C 14,4 C 64 % 95 % 1022,4 hPa 0,0 l/m 0,0 km/h (0 Bft) N 0 0 min 0,000 mm 0,0 UV-I 0 W/m 7,8 C 8,6 C 0,0 km/h (0 Bft) 91,30 %
30.05.2020 04:22 19,0 C 8,6 C -0,6 C 14,4 C 64 % 95 % 1022,4 hPa 0,2 l/m 0,0 km/h (0 Bft) N 0 0 min 0,000 mm 0,0 UV-I 0 W/m 7,8 C 8,6 C 0,0 km/h (0 Bft) 95,65 %
30.05.2020 04:21 19,0 C 8,6 C -0,6 C 14,4 C 65 % 95 % 1022,4 hPa 0,0 l/m 0,0 km/h (0 Bft) N 0 0 min 0,000 mm 0,0 UV-I 0 W/m 7,8 C 8,6 C 0,0 km/h (0 Bft) 95,65 %
30.05.2020 04:20 19,0 C 8,6 C -0,6 C 14,4 C 64 % 95 % 1022,4 hPa 0,0 l/m 0,0 km/h (0 Bft) N 0 0 min 0,000 mm 0,0 UV-I 0 W/m 7,8 C 8,6 C 0,0 km/h (0 Bft) 91,30 %
30.05.2020 04:19 19,0 C 8,6 C -0,6 C 14,4 C 64 % 95 % 1022,4 hPa 0,0 l/m 0,0 km/h (0 Bft) N 0 0 min 0,000 mm 0,0 UV-I 0 W/m 7,8 C 8,6 C 0,0 km/h (0 Bft) 95,65 %
30.05.2020 04:18 19,0 C 8,6 C -0,6 C 14,4 C 64 % 95 % 1022,4 hPa 0,0 l/m 0,0 km/h (0 Bft) N 0 0 min 0,000 mm 0,0 UV-I 0 W/m 7,8 C 8,6 C 0,0 km/h (0 Bft) 100,00 %
30.05.2020 04:17 19,0 C 8,6 C -0,6 C 14,4 C 64 % 95 % 1022,4 hPa 0,0 l/m 1,6 km/h (1 Bft) N-NO 22 0 min 0,000 mm 0,0 UV-I 0 W/m 7,8 C 8,6 C 3,2 km/h (1 Bft) 95,65 %
30.05.2020 04:16 19,0 C 8,6 C -0,6 C 14,4 C 64 % 95 % 1022,4 hPa 0,0 l/m 1,6 km/h (1 Bft) N-NO 22 0 min 0,000 mm 0,0 UV-I 0 W/m 7,8 C 8,6 C 3,2 km/h (1 Bft) 86,96 %
30.05.2020 04:15 19,0 C 8,6 C -0,6 C 14,4 C 64 % 95 % 1022,4 hPa 0,0 l/m 0,0 km/h (0 Bft) N 0 0 min 0,000 mm 0,0 UV-I 0 W/m 7,8 C 8,6 C 0,0 km/h (0 Bft) 100,00 %
30.05.2020 04:14 19,0 C 8,6 C -0,6 C 14,4 C 64 % 95 % 1022,5 hPa 0,0 l/m 0,0 km/h (0 Bft) N 0 0 min 0,000 mm 0,0 UV-I 0 W/m 7,8 C 8,6 C 0,0 km/h (0 Bft) 91,30 %
30.05.2020 04:13 19,0 C 8,7 C -0,6 C 14,4 C 64 % 95 % 1022,5 hPa 0,0 l/m 0,0 km/h (0 Bft) N 0 0 min 0,000 mm 0,0 UV-I 0 W/m 7,9 C 8,7 C 0,0 km/h (0 Bft) 95,65 %
30.05.2020 04:12 19,1 C 8,6 C -0,6 C 14,4 C 64 % 95 % 1022,5 hPa 0,0 l/m 0,0 km/h (0 Bft) N 0 0 min 0,000 mm 0,0 UV-I 0 W/m 7,8 C 8,6 C 0,0 km/h (0 Bft) 100,00 %
30.05.2020 04:11 19,1 C 8,7 C -0,6 C 14,4 C 64 % 95 % 1022,5 hPa 0,0 l/m 0,0 km/h (0 Bft) N 0 0 min 0,000 mm 0,0 UV-I 0 W/m 7,9 C 8,7 C 0,0 km/h (0 Bft) 91,30 %
30.05.2020 04:10 19,1 C 8,7 C -0,6 C 14,4 C 64 % 95 % 1022,5 hPa 0,0 l/m 0,0 km/h (0 Bft) N 0 0 min 0,000 mm 0,0 UV-I 0 W/m 7,9 C 8,7 C 0,0 km/h (0 Bft) 91,30 %
30.05.2020 04:09 19,1 C 8,7 C -0,6 C 14,4 C 64 % 95 % 1022,5 hPa 0,0 l/m 0,0 km/h (0 Bft) N 0 0 min 0,000 mm 0,0 UV-I 0 W/m 7,9 C 8,7 C 0,0 km/h (0 Bft) 95,65 %
30.05.2020 04:08 19,1 C 8,7 C -0,6 C 14,4 C 64 % 95 % 1022,5 hPa 0,0 l/m 0,0 km/h (0 Bft) N 0 0 min 0,000 mm 0,0 UV-I 0 W/m 7,9 C 8,7 C 0,0 km/h (0 Bft) 91,30 %
30.05.2020 04:07 19,1 C 8,7 C -0,6 C 14,4 C 64 % 95 % 1022,5 hPa 0,0 l/m 0,0 km/h (0 Bft) N 0 0 min 0,000 mm 0,0 UV-I 0 W/m 7,9 C 8,7 C 0,0 km/h (0 Bft) 91,30 %
30.05.2020 04:06 19,1 C 8,7 C -0,6 C 14,4 C 64 % 95 % 1022,5 hPa 0,0 l/m 0,0 km/h (0 Bft) N 0 0 min 0,000 mm 0,0 UV-I 0 W/m 7,9 C 8,7 C 0,0 km/h (0 Bft) 95,65 %
30.05.2020 04:05 19,1 C 8,7 C -0,6 C 14,4 C 64 % 95 % 1022,5 hPa 0,0 l/m 3,2 km/h (1 Bft) N-NO 22 0 min 0,000 mm 0,0 UV-I 0 W/m 7,9 C 8,7 C 4,8 km/h (1 Bft) 95,65 %
30.05.2020 04:04 19,1 C 8,7 C -0,6 C 14,4 C 64 % 95 % 1022,5 hPa 0,0 l/m 1,6 km/h (1 Bft) N-NO 22 0 min 0,000 mm 0,0 UV-I 0 W/m 7,9 C 8,7 C 6,4 km/h (2 Bft) 86,96 %
30.05.2020 04:03 19,1 C 8,7 C -0,6 C 14,4 C 64 % 95 % 1022,5 hPa 0,0 l/m 0,0 km/h (0 Bft) N 0 0 min 0,000 mm 0,0 UV-I 0 W/m 7,9 C 8,7 C 0,0 km/h (0 Bft) 100,00 %
30.05.2020 04:02 19,1 C 8,7 C -0,6 C 14,4 C 64 % 95 % 1022,5 hPa 0,0 l/m 0,0 km/h (0 Bft) N 0 0 min 0,000 mm 0,0 UV-I 0 W/m 7,9 C 8,7 C 0,0 km/h (0 Bft) 86,96 %
30.05.2020 04:01 19,1 C 8,7 C -0,6 C 14,4 C 64 % 95 % 1022,5 hPa 0,0 l/m 0,0 km/h (0 Bft) N 0 0 min 0,000 mm 0,0 UV-I 0 W/m 7,9 C 8,7 C 0,0 km/h (0 Bft) 95,65 %
30.05.2020 04:00 19,1 C 8,7 C -0,6 C 14,4 C 64 % 94 % 1022,5 hPa 0,0 l/m 0,0 km/h (0 Bft) N 0 0 min 0,000 mm 0,0 UV-I 0 W/m 7,8 C 8,7 C 0,0 km/h (0 Bft) 95,65 %
30.05.2020 03:59 19,1 C 8,8 C -0,6 C 14,4 C 64 % 94 % 1022,6 hPa 0,0 l/m 1,6 km/h (1 Bft) N-NO 22 0 min 0,000 mm 0,0 UV-I 0 W/m 7,9 C 8,8 C 3,2 km/h (1 Bft) 91,30 %
30.05.2020 03:58 19,1 C 8,8 C -0,6 C 14,4 C 64 % 94 % 1022,6 hPa 0,0 l/m 3,2 km/h (1 Bft) N-NO 22 0 min 0,000 mm 0,0 UV-I 0 W/m 7,9 C 8,8 C 6,4 km/h (2 Bft) 91,30 %
30.05.2020 03:57 19,1 C 8,8 C -0,6 C 14,4 C 64 % 94 % 1022,6 hPa 0,0 l/m 3,2 km/h (1 Bft) N-NO 22 0 min 0,000 mm 0,0 UV-I 0 W/m 7,9 C 8,8 C 6,4 km/h (2 Bft) 95,65 %
30.05.2020 03:56 19,1 C 8,8 C -0,6 C 14,4 C 64 % 94 % 1022,6 hPa 0,0 l/m 3,2 km/h (1 Bft) N-NO 22 0 min 0,000 mm 0,0 UV-I 0 W/m 7,9 C 8,8 C 4,8 km/h (1 Bft) 91,30 %
30.05.2020 03:55 19,1 C 8,8 C -0,6 C 14,4 C 64 % 94 % 1022,6 hPa 0,0 l/m 3,2 km/h (1 Bft) N-NO 22 0 min 0,000 mm 0,0 UV-I 0 W/m 7,9 C 8,8 C 4,8 km/h (1 Bft) 95,65 %
30.05.2020 03:54 19,1 C 8,8 C -0,6 C 14,4 C 64 % 94 % 1022,6 hPa 0,0 l/m 0,0 km/h (0 Bft) N-NO 22 0 min 0,000 mm 0,0 UV-I 0 W/m 7,9 C 8,8 C 3,2 km/h (1 Bft) 86,96 %
30.05.2020 03:53 19,1 C 8,8 C -0,6 C 14,4 C 64 % 94 % 1022,6 hPa 0,0 l/m 0,0 km/h (0 Bft) N 360 0 min 0,000 mm 0,0 UV-I 0 W/m 7,9 C 8,8 C 3,2 km/h (1 Bft) 86,96 %
30.05.2020 03:52 19,1 C 8,9 C -0,6 C 14,4 C 64 % 94 % 1022,6 hPa 0,0 l/m 1,6 km/h (1 Bft) N 360 0 min 0,000 mm 0,0 UV-I 0 W/m 8,0 C 8,9 C 3,2 km/h (1 Bft) 95,65 %
30.05.2020 03:51 19,1 C 8,9 C -0,6 C 14,4 C 64 % 94 % 1022,6 hPa 0,0 l/m 3,2 km/h (1 Bft) N 360 0 min 0,000 mm 0,0 UV-I 0 W/m 8,0 C 8,9 C 4,8 km/h (1 Bft) 95,65 %
30.05.2020 03:50 19,1 C 8,9 C -0,6 C 14,4 C 64 % 95 % 1022,6 hPa 0,0 l/m 1,6 km/h (1 Bft) N-NO 22 0 min 0,000 mm 0,0 UV-I 0 W/m 8,1 C 8,9 C 3,2 km/h (1 Bft) 95,65 %
30.05.2020 03:49 19,1 C 8,9 C -0,6 C 14,4 C 64 % 95 % 1022,6 hPa 0,0 l/m 4,8 km/h (1 Bft) N-NO 22 0 min 0,000 mm 0,0 UV-I 0 W/m 8,1 C 8,9 C 8,0 km/h (2 Bft) 86,96 %
30.05.2020 03:48 19,1 C 8,9 C -0,6 C 14,4 C 64 % 95 % 1022,6 hPa 0,0 l/m 3,2 km/h (1 Bft) N-NO 22 0 min 0,000 mm 0,0 UV-I 0 W/m 8,1 C 8,9 C 8,0 km/h (2 Bft) 95,65 %
30.05.2020 03:47 19,1 C 8,9 C -0,6 C 14,4 C 64 % 95 % 1022,6 hPa 0,0 l/m 1,6 km/h (1 Bft) N-NO 22 0 min 0,000 mm 0,0 UV-I 0 W/m 8,1 C 8,9 C 3,2 km/h (1 Bft) 91,30 %
30.05.2020 03:46 19,1 C 8,9 C -0,6 C 14,4 C 64 % 95 % 1022,6 hPa 0,0 l/m 1,6 km/h (1 Bft) N-NO 22 0 min 0,000 mm 0,0 UV-I 0 W/m 8,1 C 8,9 C 3,2 km/h (1 Bft) 91,30 %
30.05.2020 03:45 19,1 C 8,9 C -0,6 C 14,4 C 64 % 95 % 1022,6 hPa 0,0 l/m 1,6 km/h (1 Bft) N-NO 22 0 min 0,000 mm 0,0 UV-I 0 W/m 8,1 C 8,9 C 4,8 km/h (1 Bft) 86,96 %
30.05.2020 03:44 19,1 C 8,9 C -0,6 C 14,4 C 64 % 95 % 1022,7 hPa 0,0 l/m 0,0 km/h (0 Bft) N-NO 22 0 min 0,000 mm 0,0 UV-I 0 W/m 8,1 C 8,9 C 3,2 km/h (1 Bft) 95,65 %
30.05.2020 03:43 19,1 C 9,0 C -0,6 C 14,4 C 64 % 95 % 1022,7 hPa 0,0 l/m 0,0 km/h (0 Bft) N 0 0 min 0,000 mm 0,0 UV-I 0 W/m 8,2 C 9,0 C 0,0 km/h (0 Bft) 95,65 %
30.05.2020 03:42 19,1 C 9,0 C -0,6 C 14,4 C 64 % 95 % 1022,7 hPa 0,0 l/m 1,6 km/h (1 Bft) N-NO 22 0 min 0,000 mm 0,0 UV-I 0 W/m 8,2 C 9,0 C 3,2 km/h (1 Bft) 100,00 %
30.05.2020 03:41 19,1 C 9,0 C -0,6 C 14,4 C 64 % 95 % 1022,7 hPa 0,0 l/m 3,2 km/h (1 Bft) N-NO 22 0 min 0,000 mm 0,0 UV-I 0 W/m 8,2 C 9,0 C 4,8 km/h (1 Bft) 91,30 %
30.05.2020 03:40 19,1 C 9,0 C -0,6 C 14,4 C 64 % 95 % 1022,7 hPa 0,0 l/m 0,0 km/h (0 Bft) N-NO 22 0 min 0,000 mm 0,0 UV-I 0 W/m 8,2 C 9,0 C 1,6 km/h (1 Bft) 91,30 %
30.05.2020 03:39 19,1 C 9,0 C -0,6 C 14,4 C 64 % 95 % 1022,7 hPa 0,0 l/m 0,0 km/h (0 Bft) N-NO 22 0 min 0,000 mm 0,0 UV-I 0 W/m 8,2 C 9,0 C 3,2 km/h (1 Bft) 100,00 %
30.05.2020 03:38 19,1 C 9,1 C -0,6 C 14,4 C 64 % 95 % 1022,7 hPa 0,0 l/m 3,2 km/h (1 Bft) N-NO 22 0 min 0,000 mm 0,0 UV-I 0 W/m 8,3 C 9,1 C 8,0 km/h (2 Bft) 91,30 %
30.05.2020 03:37 19,1 C 9,1 C -0,6 C 14,4 C 64 % 95 % 1022,7 hPa 0,0 l/m 1,6 km/h (1 Bft) N 360 0 min 0,000 mm 0,0 UV-I 0 W/m 8,3 C 9,1 C 3,2 km/h (1 Bft) 95,65 %
30.05.2020 03:36 19,1 C 9,1 C -0,6 C 14,4 C 64 % 95 % 1022,7 hPa 0,0 l/m 3,2 km/h (1 Bft) N 360 0 min 0,000 mm 0,0 UV-I 0 W/m 8,3 C 9,1 C 6,4 km/h (2 Bft) 100,00 %
30.05.2020 03:35 19,1 C 9,1 C -0,6 C 14,4 C 64 % 95 % 1022,7 hPa 0,0 l/m 3,2 km/h (1 Bft) N 360 0 min 0,000 mm 0,0 UV-I 0 W/m 8,3 C 9,1 C 6,4 km/h (2 Bft) 95,65 %
30.05.2020 03:34 19,1 C 9,1 C -0,6 C 14,4 C 64 % 94 % 1022,7 hPa 0,0 l/m 4,8 km/h (1 Bft) N 360 0 min 0,000 mm 0,0 UV-I 0 W/m 8,2 C 9,1 C 6,4 km/h (2 Bft) 95,65 %
30.05.2020 03:33 19,1 C 9,1 C -0,6 C 14,4 C 64 % 94 % 1022,7 hPa 0,0 l/m 4,8 km/h (1 Bft) N 360 0 min 0,000 mm 0,0 UV-I 0 W/m 8,2 C 9,1 C 8,0 km/h (2 Bft) 100,00 %
30.05.2020 03:32 19,1 C 9,1 C -0,6 C 14,4 C 64 % 94 % 1022,7 hPa 0,0 l/m 1,6 km/h (1 Bft) NO 45 0 min 0,000 mm 0,0 UV-I 0 W/m 8,2 C 9,1 C 4,8 km/h (1 Bft) 86,96 %
30.05.2020 03:31 19,1 C 9,1 C -0,6 C 14,4 C 64 % 94 % 1022,7 hPa 0,0 l/m 3,2 km/h (1 Bft) NO 45 0 min 0,000 mm 0,0 UV-I 0 W/m 8,2 C 9,1 C 4,8 km/h (1 Bft) 95,65 %
30.05.2020 03:30 19,1 C 9,1 C -0,6 C 14,4 C 64 % 94 % 1022,7 hPa 0,0 l/m 3,2 km/h (1 Bft) NO 45 0 min 0,000 mm 0,0 UV-I 0 W/m 8,2 C 9,1 C 4,8 km/h (1 Bft) 95,65 %
30.05.2020 03:29 19,1 C 9,1 C -0,6 C 14,4 C 64 % 94 % 1022,8 hPa 0,0 l/m 0,0 km/h (0 Bft) N 0 0 min 0,000 mm 0,0 UV-I 0 W/m 8,2 C 9,1 C 0,0 km/h (0 Bft) 100,00 %
30.05.2020 03:28 19,1 C 9,1 C -0,6 C 14,4 C 64 % 94 % 1022,8 hPa 0,0 l/m 1,6 km/h (1 Bft) O-NO 67 0 min 0,000 mm 0,0 UV-I 0 W/m 8,2 C 9,1 C 4,8 km/h (1 Bft) 95,65 %
30.05.2020 03:27 19,1 C 9,1 C -0,6 C 14,4 C 64 % 94 % 1022,8 hPa 0,0 l/m 0,0 km/h (0 Bft) N 0 0 min 0,000 mm 0,0 UV-I 0 W/m 8,2 C 9,1 C 0,0 km/h (0 Bft) 100,00 %
30.05.2020 03:26 19,1 C 9,1 C -0,6 C 14,4 C 64 % 94 % 1022,8 hPa 0,0 l/m 0,0 km/h (0 Bft) N 0 0 min 0,000 mm 0,0 UV-I 0 W/m 8,2 C 9,1 C 0,0 km/h (0 Bft) 91,30 %
30.05.2020 03:25 19,1 C 9,1 C -0,6 C 14,4 C 64 % 94 % 1022,8 hPa 0,0 l/m 0,0 km/h (0 Bft) NO 45 0 min 0,000 mm 0,0 UV-I 0 W/m 8,2 C 9,1 C 3,2 km/h (1 Bft) 95,65 %
30.05.2020 03:24 19,1 C 9,1 C -0,6 C 14,4 C 64 % 94 % 1022,8 hPa 0,0 l/m 1,6 km/h (1 Bft) NO 45 0 min 0,000 mm 0,0 UV-I 0 W/m 8,2 C 9,1 C 3,2 km/h (1 Bft) 95,65 %
30.05.2020 03:23 19,1 C 9,1 C -0,6 C 14,4 C 64 % 94 % 1022,8 hPa 0,0 l/m 0,0 km/h (0 Bft) NO 45 0 min 0,000 mm 0,0 UV-I 0 W/m 8,2 C 9,1 C 1,6 km/h (1 Bft) 100,00 %
30.05.2020 03:22 19,1 C 9,1 C -0,6 C 14,4 C 64 % 94 % 1022,8 hPa 0,0 l/m 0,0 km/h (0 Bft) NO 45 0 min 0,000 mm 0,0 UV-I 0 W/m 8,2 C 9,1 C 3,2 km/h (1 Bft) 91,30 %
30.05.2020 03:21 19,1 C 9,1 C -0,6 C 14,4 C 64 % 94 % 1022,8 hPa 0,0 l/m 1,6 km/h (1 Bft) NO 45 0 min 0,000 mm 0,0 UV-I 0 W/m 8,2 C 9,1 C 4,8 km/h (1 Bft) 95,65 %
30.05.2020 03:20 19,1 C 9,1 C -0,6 C 14,4 C 64 % 94 % 1022,8 hPa 0,0 l/m 1,6 km/h (1 Bft) NO 45 0 min 0,000 mm 0,0 UV-I 0 W/m 8,2 C 9,1 C 3,2 km/h (1 Bft) 100,00 %
30.05.2020 03:19 19,1 C 9,1 C -0,6 C 14,4 C 65 % 94 % 1022,8 hPa 0,0 l/m 0,0 km/h (0 Bft) N-NO 22 0 min 0,000 mm 0,0 UV-I 0 W/m 8,2 C 9,1 C 1,6 km/h (1 Bft) 95,65 %
30.05.2020 03:18 19,1 C 9,1 C -0,6 C 14,4 C 64 % 94 % 1022,8 hPa 0,0 l/m 0,0 km/h (0 Bft) N 0 0 min 0,000 mm 0,0 UV-I 0 W/m 8,2 C 9,1 C 0,0 km/h (0 Bft) 95,65 %
30.05.2020 03:17 19,1 C 9,1 C -0,6 C 14,4 C 64 % 94 % 1022,8 hPa 0,0 l/m 1,6 km/h (1 Bft) N-NO 22 0 min 0,000 mm 0,0 UV-I 0 W/m 8,2 C 9,1 C 6,4 km/h (2 Bft) 100,00 %
30.05.2020 03:16 19,1 C 9,1 C -0,6 C 14,4 C 64 % 94 % 1022,8 hPa 0,0 l/m 3,2 km/h (1 Bft) NO 45 0 min 0,000 mm 0,0 UV-I 0 W/m 8,2 C 9,1 C 6,4 km/h (2 Bft) 95,65 %
30.05.2020 03:15 19,1 C 9,1 C -0,6 C 14,4 C 64 % 94 % 1022,8 hPa 0,0 l/m 4,8 km/h (1 Bft) NO 45 0 min 0,000 mm 0,0 UV-I 0 W/m 8,2 C 9,1 C 8,0 km/h (2 Bft) 86,96 %
30.05.2020 03:14 19,1 C 9,1 C -0,6 C 14,4 C 64 % 94 % 1022,9 hPa 0,0 l/m 4,8 km/h (1 Bft) N-NO 22 0 min 0,000 mm 0,0 UV-I 0 W/m 8,2 C 9,1 C 8,0 km/h (2 Bft) 100,00 %
30.05.2020 03:13 19,1 C 9,1 C -0,6 C 14,4 C 64 % 94 % 1022,9 hPa 0,0 l/m 3,2 km/h (1 Bft) O-NO 67 0 min 0,000 mm 0,0 UV-I 0 W/m 8,2 C 9,1 C 4,8 km/h (1 Bft) 91,30 %
30.05.2020 03:12 19,1 C 9,1 C -0,6 C 14,4 C 64 % 94 % 1022,9 hPa 0,0 l/m 1,6 km/h (1 Bft) O-NO 67 0 min 0,000 mm 0,0 UV-I 0 W/m 8,2 C 9,1 C 3,2 km/h (1 Bft) 86,96 %
30.05.2020 03:11 19,1 C 9,1 C -0,6 C 14,4 C 64 % 94 % 1022,9 hPa 0,0 l/m 4,8 km/h (1 Bft) NO 45 0 min 0,000 mm 0,0 UV-I 0 W/m 8,2 C 9,1 C 6,4 km/h (2 Bft) 100,00 %
30.05.2020 03:10 19,1 C 9,1 C -0,6 C 14,4 C 64 % 94 % 1022,9 hPa 0,0 l/m 1,6 km/h (1 Bft) N-NO 22 0 min 0,000 mm 0,0 UV-I 0 W/m 8,2 C 9,1 C 4,8 km/h (1 Bft) 95,65 %
30.05.2020 03:09 19,1 C 9,1 C -0,6 C 14,4 C 64 % 94 % 1022,9 hPa 0,0 l/m 3,2 km/h (1 Bft) N-NO 22 0 min 0,000 mm 0,0 UV-I 0 W/m 8,2 C 9,1 C 6,4 km/h (2 Bft) 86,96 %
30.05.2020 03:08 19,1 C 9,1 C -0,6 C 14,4 C 64 % 94 % 1022,9 hPa 0,0 l/m 3,2 km/h (1 Bft) N-NO 22 0 min 0,000 mm 0,0 UV-I 0 W/m 8,2 C 9,1 C 6,4 km/h (2 Bft) 95,65 %
30.05.2020 03:07 19,1 C 9,1 C -0,6 C 14,4 C 64 % 94 % 1022,9 hPa 0,0 l/m 1,6 km/h (1 Bft) N-NO 22 0 min 0,000 mm 0,0 UV-I 0 W/m 8,2 C 9,1 C 4,8 km/h (1 Bft) 95,65 %
30.05.2020 03:06 19,1 C 9,1 C -0,6 C 14,4 C 64 % 94 % 1022,9 hPa 0,0 l/m 4,8 km/h (1 Bft) N-NO 22 0 min 0,000 mm 0,0 UV-I 0 W/m 8,2 C 9,1 C 8,0 km/h (2 Bft) 95,65 %
30.05.2020 03:05 19,1 C 9,1 C -0,6 C 14,4 C 64 % 94 % 1022,9 hPa 0,0 l/m 3,2 km/h (1 Bft) NO 45 0 min 0,000 mm 0,0 UV-I 0 W/m 8,2 C 9,1 C 6,4 km/h (2 Bft) 100,00 %
30.05.2020 03:04 19,1 C 9,1 C -0,6 C 14,4 C 64 % 94 % 1022,9 hPa 0,0 l/m 1,6 km/h (1 Bft) NO 45 0 min 0,000 mm 0,0 UV-I 0 W/m 8,2 C 9,1 C 8,0 km/h (2 Bft) 91,30 %
30.05.2020 03:03 19,1 C 9,1 C -0,6 C 14,4 C 64 % 94 % 1022,9 hPa 0,0 l/m 1,6 km/h (1 Bft) NO 45 0 min 0,000 mm 0,0 UV-I 0 W/m 8,2 C 9,1 C 4,8 km/h (1 Bft) 91,30 %
30.05.2020 03:02 19,1 C 9,1 C -0,6 C 14,4 C 64 % 94 % 1022,9 hPa 0,0 l/m 3,2 km/h (1 Bft) NO 45 0 min 0,000 mm 0,0 UV-I 0 W/m 8,2 C 9,1 C 6,4 km/h (2 Bft) 100,00 %
30.05.2020 03:01 19,1 C 9,1 C -0,6 C 14,4 C 64 % 94 % 1022,9 hPa 0,0 l/m 4,8 km/h (1 Bft) NO 45 0 min 0,000 mm 0,0 UV-I 0 W/m 8,2 C 9,1 C 8,0 km/h (2 Bft) 95,65 %
30.05.2020 03:00 19,1 C 9,1 C -0,6 C 14,4 C 64 % 94 % 1022,9 hPa 0,0 l/m 4,8 km/h (1 Bft) O-NO 67 0 min 0,000 mm 0,0 UV-I 0 W/m 8,2 C 9,1 C 8,0 km/h (2 Bft) 91,30 %
30.05.2020 02:59 19,1 C 9,1 C -0,6 C 14,4 C 64 % 94 % 1023,0 hPa 0,0 l/m 4,8 km/h (1 Bft) O-NO 67 0 min 0,000 mm 0,0 UV-I 0 W/m 8,2 C 9,1 C 6,4 km/h (2 Bft) 95,65 %
30.05.2020 02:58 19,1 C 9,0 C -0,6 C 14,4 C 64 % 94 % 1023,0 hPa 0,0 l/m 0,0 km/h (0 Bft) O-NO 67 0 min 0,000 mm 0,0 UV-I 0 W/m 8,1 C 9,0 C 3,2 km/h (1 Bft) 86,96 %
30.05.2020 02:57 19,1 C 9,0 C -0,6 C 14,4 C 64 % 94 % 1023,0 hPa 0,0 l/m 4,8 km/h (1 Bft) O-NO 67 0 min 0,000 mm 0,0 UV-I 0 W/m 8,1 C 9,0 C 8,0 km/h (2 Bft) 95,65 %
30.05.2020 02:56 19,1 C 9,0 C -0,6 C 14,4 C 64 % 94 % 1023,0 hPa 0,0 l/m 3,2 km/h (1 Bft) O-NO 67 0 min 0,000 mm 0,0 UV-I 0 W/m 8,1 C 9,0 C 6,4 km/h (2 Bft) 100,00 %
30.05.2020 02:55 19,1 C 9,0 C -0,6 C 14,4 C 64 % 94 % 1023,0 hPa 0,0 l/m 3,2 km/h (1 Bft) O-NO 67 0 min 0,000 mm 0,0 UV-I 0 W/m 8,1 C 9,0 C 4,8 km/h (1 Bft) 91,30 %
30.05.2020 02:54 19,1 C 9,0 C -0,6 C 14,4 C 64 % 94 % 1023,0 hPa 0,0 l/m 0,0 km/h (0 Bft) O-NO 67 0 min 0,000 mm 0,0 UV-I 0 W/m 8,1 C 9,0 C 4,8 km/h (1 Bft) 95,65 %
30.05.2020 02:53 19,1 C 9,0 C -0,6 C 14,4 C 64 % 94 % 1023,0 hPa 0,0 l/m 0,0 km/h (0 Bft) O-NO 67 0 min 0,000 mm 0,0 UV-I 0 W/m 8,1 C 9,0 C 1,6 km/h (1 Bft) 100,00 %
30.05.2020 02:52 19,1 C 9,0 C -0,6 C 14,4 C 64 % 94 % 1023,0 hPa 0,0 l/m 0,0 km/h (0 Bft) O-NO 67 0 min 0,000 mm 0,0 UV-I 0 W/m 8,1 C 9,0 C 3,2 km/h (1 Bft) 91,30 %
30.05.2020 02:51 19,1 C 9,0 C -0,6 C 14,4 C 64 % 94 % 1023,0 hPa 0,0 l/m 3,2 km/h (1 Bft) O-NO 67 0 min 0,000 mm 0,0 UV-I 0 W/m 8,1 C 9,0 C 6,4 km/h (2 Bft) 86,96 %
30.05.2020 02:50 19,1 C 9,0 C -0,6 C 14,4 C 64 % 94 % 1023,0 hPa 0,0 l/m 3,2 km/h (1 Bft) O-NO 67 0 min 0,000 mm 0,0 UV-I 0 W/m 8,1 C 9,0 C 6,4 km/h (2 Bft) 95,65 %
30.05.2020 02:49 19,1 C 8,9 C -0,6 C 14,4 C 64 % 94 % 1023,0 hPa 0,0 l/m 3,2 km/h (1 Bft) O-NO 67 0 min 0,000 mm 0,0 UV-I 0 W/m 8,0 C 8,9 C 8,0 km/h (2 Bft) 95,65 %
30.05.2020 02:48 19,1 C 8,9 C -0,6 C 14,4 C 64 % 94 % 1023,0 hPa 0,0 l/m 1,6 km/h (1 Bft) O-NO 67 0 min 0,000 mm 0,0 UV-I 0 W/m 8,0 C 8,9 C 6,4 km/h (2 Bft) 95,65 %
30.05.2020 02:47 19,1 C 8,9 C -0,6 C 14,4 C 64 % 94 % 1023,0 hPa 0,0 l/m 1,6 km/h (1 Bft) O-NO 67 0 min 0,000 mm 0,0 UV-I 0 W/m 8,0 C 8,9 C 4,8 km/h (1 Bft) 95,65 %
30.05.2020 02:46 19,1 C 8,9 C -0,6 C 14,4 C 64 % 94 % 1023,0 hPa 0,0 l/m 1,6 km/h (1 Bft) O-NO 67 0 min 0,000 mm 0,0 UV-I 0 W/m 8,0 C 8,9 C 4,8 km/h (1 Bft) 95,65 %
30.05.2020 02:45 19,1 C 8,9 C -0,6 C 14,4 C 64 % 94 % 1023,0 hPa 0,0 l/m 1,6 km/h (1 Bft) O-NO 67 0 min 0,000 mm 0,0 UV-I 0 W/m 8,0 C 8,9 C 4,8 km/h (1 Bft) 95,65 %
30.05.2020 02:44 19,1 C 8,9 C -0,6 C 14,4 C 64 % 94 % 1023,0 hPa 0,0 l/m 0,0 km/h (0 Bft) O-NO 67 0 min 0,000 mm 0,0 UV-I 0 W/m 8,0 C 8,9 C 1,6 km/h (1 Bft) 100,00 %
30.05.2020 02:43 19,1 C 8,9 C -0,6 C 14,4 C 64 % 94 % 1023,0 hPa 0,0 l/m 0,0 km/h (0 Bft) O-NO 67 0 min 0,000 mm 0,0 UV-I 0 W/m 8,0 C 8,9 C 3,2 km/h (1 Bft) 91,30 %
30.05.2020 02:42 19,1 C 8,9 C -0,6 C 14,4 C 64 % 94 % 1023,0 hPa 0,0 l/m 1,6 km/h (1 Bft) O-NO 67 0 min 0,000 mm 0,0 UV-I 0 W/m 8,0 C 8,9 C 4,8 km/h (1 Bft) 95,65 %
30.05.2020 02:41 19,1 C 8,9 C -0,6 C 14,4 C 64 % 94 % 1023,0 hPa 0,0 l/m 1,6 km/h (1 Bft) O-NO 67 0 min 0,000 mm 0,0 UV-I 0 W/m 8,0 C 8,9 C 4,8 km/h (1 Bft) 91,30 %
30.05.2020 02:40 19,1 C 8,9 C -0,6 C 14,4 C 64 % 94 % 1023,0 hPa 0,0 l/m 1,6 km/h (1 Bft) O-NO 67 0 min 0,000 mm 0,0 UV-I 0 W/m 8,0 C 8,9 C 4,8 km/h (1 Bft) 95,65 %
30.05.2020 02:39 19,1 C 8,9 C -0,6 C 14,4 C 64 % 94 % 1023,0 hPa 0,0 l/m 1,6 km/h (1 Bft) O-NO 67 0 min 0,000 mm 0,0 UV-I 0 W/m 8,0 C 8,9 C 4,8 km/h (1 Bft) 91,30 %
30.05.2020 02:38 19,1 C 8,9 C -0,6 C 14,4 C 64 % 94 % 1023,0 hPa 0,0 l/m 0,0 km/h (0 Bft) N 0 0 min 0,000 mm 0,0 UV-I 0 W/m 8,0 C 8,9 C 0,0 km/h (0 Bft) 91,30 %
30.05.2020 02:37 19,1 C 8,9 C -0,6 C 14,4 C 64 % 94 % 1023,0 hPa 0,0 l/m 0,0 km/h (0 Bft) N 0 0 min 0,000 mm 0,0 UV-I 0 W/m 8,0 C 8,9 C 0,0 km/h (0 Bft) 95,65 %
30.05.2020 02:36 19,1 C 8,9 C -0,6 C 14,4 C 64 % 94 % 1023,0 hPa 0,0 l/m 0,0 km/h (0 Bft) N 0 0 min 0,000 mm 0,0 UV-I 0 W/m 8,0 C 8,9 C 0,0 km/h (0 Bft) 91,30 %
30.05.2020 02:35 19,1 C 8,9 C -0,6 C 14,4 C 64 % 94 % 1023,0 hPa 0,0 l/m 0,0 km/h (0 Bft) N 0 0 min 0,000 mm 0,0 UV-I 0 W/m 8,0 C 8,9 C 0,0 km/h (0 Bft) 91,30 %
30.05.2020 02:34 19,1 C 8,9 C -0,6 C 14,4 C 64 % 94 % 1023,0 hPa 0,0 l/m 0,0 km/h (0 Bft) N 0 0 min 0,000 mm 0,0 UV-I 0 W/m 8,0 C 8,9 C 0,0 km/h (0 Bft) 95,65 %
30.05.2020 02:33 19,1 C 8,9 C -0,6 C 14,4 C 64 % 94 % 1023,0 hPa 0,0 l/m 0,0 km/h (0 Bft) N 0 0 min 0,000 mm 0,0 UV-I 0 W/m 8,0 C 8,9 C 0,0 km/h (0 Bft) 91,30 %
30.05.2020 02:32 19,1 C 8,9 C -0,6 C 14,4 C 64 % 94 % 1023,0 hPa 0,0 l/m 0,0 km/h (0 Bft) O-NO 67 0 min 0,000 mm 0,0 UV-I 0 W/m 8,0 C 8,9 C 1,6 km/h (1 Bft) 91,30 %
30.05.2020 02:31 19,1 C 8,8 C -0,6 C 14,4 C 64 % 94 % 1023,0 hPa 0,0 l/m 0,0 km/h (0 Bft) O-NO 67 0 min 0,000 mm 0,0 UV-I 0 W/m 7,9 C 8,8 C 3,2 km/h (1 Bft) 91,30 %
30.05.2020 02:30 19,1 C 8,8 C -0,6 C 14,4 C 64 % 94 % 1023,0 hPa 0,0 l/m 0,0 km/h (0 Bft) O-NO 67 0 min 0,000 mm 0,0 UV-I 0 W/m 7,9 C 8,8 C 3,2 km/h (1 Bft) 95,65 %
30.05.2020 02:29 19,1 C 8,9 C -0,6 C 14,4 C 64 % 94 % 1023,0 hPa 0,0 l/m 0,0 km/h (0 Bft) O-NO 67 0 min 0,000 mm 0,0 UV-I 0 W/m 8,0 C 8,9 C 1,6 km/h (1 Bft) 91,30 %
30.05.2020 02:28 19,1 C 8,8 C -0,6 C 14,4 C 64 % 94 % 1023,0 hPa 0,0 l/m 3,2 km/h (1 Bft) O-NO 67 0 min 0,000 mm 0,0 UV-I 0 W/m 7,9 C 8,8 C 6,4 km/h (2 Bft) 91,30 %
30.05.2020 02:27 19,1 C 8,8 C -0,6 C 14,4 C 64 % 94 % 1023,0 hPa 0,0 l/m 1,6 km/h (1 Bft) O-NO 67 0 min 0,000 mm 0,0 UV-I 0 W/m 7,9 C 8,8 C 6,4 km/h (2 Bft) 91,30 %
30.05.2020 02:26 19,1 C 8,8 C -0,6 C 14,4 C 64 % 95 % 1023,0 hPa 0,0 l/m 4,8 km/h (1 Bft) NO 45 0 min 0,000 mm 0,0 UV-I 0 W/m 8,0 C 8,8 C 8,0 km/h (2 Bft) 95,65 %
30.05.2020 02:25 19,1 C 8,8 C -0,6 C 14,4 C 64 % 95 % 1023,0 hPa 0,0 l/m 4,8 km/h (1 Bft) O 90 0 min 0,000 mm 0,0 UV-I 0 W/m 8,0 C 8,8 C 6,4 km/h (2 Bft) 95,65 %
30.05.2020 02:24 19,1 C 8,8 C -0,6 C 14,4 C 64 % 95 % 1023,0 hPa 0,0 l/m 4,8 km/h (1 Bft) O 90 0 min 0,000 mm 0,0 UV-I 0 W/m 8,0 C 8,8 C 9,7 km/h (2 Bft) 86,96 %
30.05.2020 02:23 19,1 C 8,8 C -0,6 C 14,4 C 64 % 95 % 1023,0 hPa 0,0 l/m 6,4 km/h (2 Bft) O-NO 67 0 min 0,000 mm 0,0 UV-I 0 W/m 8,0 C 8,8 C 9,7 km/h (2 Bft) 95,65 %
30.05.2020 02:22 19,1 C 8,8 C -0,6 C 14,4 C 65 % 95 % 1023,0 hPa 0,0 l/m 6,4 km/h (2 Bft) O-NO 67 0 min 0,000 mm 0,0 UV-I 0 W/m 8,0 C 8,8 C 11,3 km/h (2 Bft) 86,96 %
30.05.2020 02:21 19,1 C 8,8 C -0,6 C 14,4 C 64 % 95 % 1023,0 hPa 0,0 l/m 3,2 km/h (1 Bft) N 360 0 min 0,000 mm 0,0 UV-I 0 W/m 8,0 C 8,8 C 4,8 km/h (1 Bft) 95,65 %
30.05.2020 02:20 19,1 C 8,8 C -0,6 C 14,4 C 64 % 95 % 1023,0 hPa 0,0 l/m 0,0 km/h (0 Bft) W-NW 292 0 min 0,000 mm 0,0 UV-I 0 W/m 8,0 C 8,8 C 1,6 km/h (1 Bft) 86,96 %
30.05.2020 02:19 19,2 C 8,8 C -0,6 C 14,4 C 64 % 95 % 1023,0 hPa 0,0 l/m 3,2 km/h (1 Bft) W-NW 292 0 min 0,000 mm 0,0 UV-I 0 W/m 8,0 C 8,8 C 4,8 km/h (1 Bft) 100,00 %
30.05.2020 02:18 19,2 C 8,8 C -0,6 C 14,4 C 64 % 95 % 1023,0 hPa 0,0 l/m 4,8 km/h (1 Bft) W-NW 292 0 min 0,000 mm 0,0 UV-I 0 W/m 8,0 C 8,8 C 6,4 km/h (2 Bft) 82,61 %
30.05.2020 02:17 19,2 C 8,8 C -0,6 C 14,4 C 64 % 95 % 1023,0 hPa 0,0 l/m 4,8 km/h (1 Bft) W-NW 292 0 min 0,000 mm 0,0 UV-I 0 W/m 8,0 C 8,8 C 6,4 km/h (2 Bft) 91,30 %
30.05.2020 02:16 19,2 C 8,8 C -0,6 C 14,4 C 64 % 95 % 1023,0 hPa 0,0 l/m 4,8 km/h (1 Bft) W-NW 292 0 min 0,000 mm 0,0 UV-I 0 W/m 8,0 C 8,8 C 6,4 km/h (2 Bft) 95,65 %
30.05.2020 02:15 19,2 C 8,8 C -0,6 C 14,4 C 64 % 95 % 1023,0 hPa 0,0 l/m 6,4 km/h (2 Bft) NW 315 0 min 0,000 mm 0,0 UV-I 0 W/m 8,0 C 8,8 C 11,3 km/h (2 Bft) 95,65 %
30.05.2020 02:14 19,2 C 8,8 C -0,6 C 14,4 C 64 % 95 % 1023,4 hPa 0,0 l/m 6,4 km/h (2 Bft) NW 315 0 min 0,000 mm 0,0 UV-I 0 W/m 8,0 C 8,8 C 9,7 km/h (2 Bft) 91,30 %
30.05.2020 02:13 19,2 C 8,8 C -0,6 C 14,4 C 64 % 95 % 1023,4 hPa 0,0 l/m 4,8 km/h (1 Bft) N-NO 22 0 min 0,000 mm 0,0 UV-I 0 W/m 8,0 C 8,8 C 6,4 km/h (2 Bft) 95,65 %
30.05.2020 02:12 19,2 C 8,7 C -0,6 C 14,4 C 64 % 95 % 1023,4 hPa 0,0 l/m 3,2 km/h (1 Bft) N-NW 337 0 min 0,000 mm 0,0 UV-I 0 W/m 7,9 C 8,7 C 6,4 km/h (2 Bft) 95,65 %
30.05.2020 02:11 19,2 C 8,7 C -0,6 C 14,4 C 64 % 95 % 1023,4 hPa 0,0 l/m 3,2 km/h (1 Bft) W-NW 292 0 min 0,000 mm 0,0 UV-I 0 W/m 7,9 C 8,7 C 6,4 km/h (2 Bft) 95,65 %
30.05.2020 02:10 19,2 C 8,7 C -0,6 C 14,4 C 64 % 95 % 1023,4 hPa 0,0 l/m 1,6 km/h (1 Bft) W-SW 247 0 min 0,000 mm 0,0 UV-I 0 W/m 7,9 C 8,7 C 3,2 km/h (1 Bft) 100,00 %
30.05.2020 02:09 19,2 C 8,7 C -0,6 C 14,4 C 64 % 95 % 1023,4 hPa 0,0 l/m 0,0 km/h (0 Bft) N 0 0 min 0,000 mm 0,0 UV-I 0 W/m 7,9 C 8,7 C 0,0 km/h (0 Bft) 95,65 %
30.05.2020 02:08 19,2 C 8,7 C -0,6 C 14,4 C 64 % 95 % 1023,4 hPa 0,0 l/m 3,2 km/h (1 Bft) W-SW 247 0 min 0,000 mm 0,0 UV-I 0 W/m 7,9 C 8,7 C 6,4 km/h (2 Bft) 95,65 %
30.05.2020 02:07 19,2 C 8,7 C -0,6 C 14,4 C 64 % 95 % 1023,4 hPa 0,0 l/m 6,4 km/h (2 Bft) W-SW 247 0 min 0,000 mm 0,0 UV-I 0 W/m 7,9 C 8,7 C 11,3 km/h (2 Bft) 82,61 %
30.05.2020 02:06 19,2 C 8,7 C -0,6 C 14,4 C 64 % 95 % 1023,4 hPa 0,0 l/m 6,4 km/h (2 Bft) W-SW 247 0 min 0,000 mm 0,0 UV-I 0 W/m 7,9 C 8,7 C 8,0 km/h (2 Bft) 95,65 %
30.05.2020 02:05 19,2 C 8,7 C -0,6 C 14,4 C 64 % 95 % 1023,4 hPa 0,0 l/m 8,0 km/h (2 Bft) W-SW 247 0 min 0,000 mm 0,0 UV-I 0 W/m 7,9 C 7,5 C 9,7 km/h (2 Bft) 91,30 %
30.05.2020 02:04 19,2 C 8,6 C -0,6 C 14,4 C 64 % 95 % 1023,4 hPa 0,0 l/m 6,4 km/h (2 Bft) W 270 0 min 0,000 mm 0,0 UV-I 0 W/m 7,8 C 8,6 C 9,7 km/h (2 Bft) 100,00 %
30.05.2020 02:03 19,2 C 8,6 C -0,6 C 14,4 C 64 % 95 % 1023,4 hPa 0,0 l/m 6,4 km/h (2 Bft) W 270 0 min 0,000 mm 0,0 UV-I 0 W/m 7,8 C 8,6 C 11,3 km/h (2 Bft) 91,30 %
30.05.2020 02:02 19,2 C 8,6 C -0,6 C 14,4 C 64 % 95 % 1023,4 hPa 0,0 l/m 4,8 km/h (1 Bft) W 270 0 min 0,000 mm 0,0 UV-I 0 W/m 7,8 C 8,6 C 9,7 km/h (2 Bft) 95,65 %
30.05.2020 02:01 19,2 C 8,6 C -0,6 C 14,4 C 64 % 95 % 1023,4 hPa 0,0 l/m 8,0 km/h (2 Bft) W-SW 247 0 min 0,000 mm 0,0 UV-I 0 W/m 7,8 C 7,4 C 11,3 km/h (2 Bft) 95,65 %
30.05.2020 02:00 19,2 C 8,5 C -0,6 C 14,4 C 64 % 95 % 1023,4 hPa 0,0 l/m 6,4 km/h (2 Bft) NW 315 0 min 0,000 mm 0,0 UV-I 0 W/m 7,7 C 8,5 C 9,7 km/h (2 Bft) 91,30 %
30.05.2020 01:59 19,2 C 8,5 C -0,6 C 14,4 C 64 % 95 % 1023,8 hPa 0,0 l/m 4,8 km/h (1 Bft) N 360 0 min 0,000 mm 0,0 UV-I 0 W/m 7,7 C 8,5 C 8,0 km/h (2 Bft) 91,30 %
30.05.2020 01:58 19,2 C 8,5 C -0,6 C 14,4 C 64 % 95 % 1023,8 hPa 0,0 l/m 4,8 km/h (1 Bft) N-NO 22 0 min 0,000 mm 0,0 UV-I 0 W/m 7,7 C 8,5 C 6,4 km/h (2 Bft) 95,65 %
30.05.2020 01:57 19,2 C 8,5 C -0,6 C 14,4 C 64 % 95 % 1023,8 hPa 0,0 l/m 0,0 km/h (0 Bft) N-NO 22 0 min 0,000 mm 0,0 UV-I 0 W/m 7,7 C 8,5 C 3,2 km/h (1 Bft) 91,30 %
30.05.2020 01:56 19,2 C 8,4 C -0,6 C 14,4 C 64 % 95 % 1023,8 hPa 0,0 l/m 0,0 km/h (0 Bft) N 0 0 min 0,000 mm 0,0 UV-I 0 W/m 7,6 C 8,4 C 0,0 km/h (0 Bft) 91,30 %
30.05.2020 01:55 19,2 C 8,4 C -0,6 C 14,4 C 64 % 95 % 1023,8 hPa 0,0 l/m 0,0 km/h (0 Bft) N 0 0 min 0,000 mm 0,0 UV-I 0 W/m 7,6 C 8,4 C 0,0 km/h (0 Bft) 86,96 %
30.05.2020 01:54 19,2 C 8,4 C -0,6 C 14,4 C 64 % 95 % 1023,8 hPa 0,0 l/m 0,0 km/h (0 Bft) N 0 0 min 0,000 mm 0,0 UV-I 0 W/m 7,6 C 8,4 C 0,0 km/h (0 Bft) 95,65 %
30.05.2020 01:53 19,2 C 8,4 C -0,6 C 14,4 C 64 % 95 % 1023,8 hPa 0,0 l/m 0,0 km/h (0 Bft) N 0 0 min 0,000 mm 0,0 UV-I 0 W/m 7,6 C 8,4 C 0,0 km/h (0 Bft) 95,65 %
30.05.2020 01:52 19,2 C 8,4 C -0,6 C 14,4 C 64 % 95 % 1023,8 hPa 0,0 l/m 0,0 km/h (0 Bft) N 0 0 min 0,000 mm 0,0 UV-I 0 W/m 7,6 C 8,4 C 0,0 km/h (0 Bft) 91,30 %
30.05.2020 01:51 19,2 C 8,3 C -0,6 C 14,4 C 64 % 95 % 1023,8 hPa 0,0 l/m 0,0 km/h (0 Bft) N 0 0 min 0,000 mm 0,0 UV-I 0 W/m 7,5 C 8,3 C 0,0 km/h (0 Bft) 95,65 %
30.05.2020 01:50 19,2 C 8,3 C -0,6 C 15,0 C 64 % 95 % 1023,8 hPa 0,0 l/m 0,0 km/h (0 Bft) N-NO 22 0 min 0,000 mm 0,0 UV-I 0 W/m 7,5 C 8,3 C 1,6 km/h (1 Bft) 91,30 %
30.05.2020 01:49 19,2 C 8,3 C -0,6 C 15,0 C 64 % 95 % 1023,8 hPa 0,0 l/m 3,2 km/h (1 Bft) N-NO 22 0 min 0,000 mm 0,0 UV-I 0 W/m 7,5 C 8,3 C 4,8 km/h (1 Bft) 95,65 %
30.05.2020 01:48 19,2 C 8,2 C -0,6 C 15,0 C 64 % 94 % 1023,8 hPa 0,0 l/m 3,2 km/h (1 Bft) NO 45 0 min 0,000 mm 0,0 UV-I 0 W/m 7,3 C 8,2 C 6,4 km/h (2 Bft) 95,65 %
30.05.2020 01:47 19,2 C 8,2 C -0,6 C 15,0 C 64 % 94 % 1023,8 hPa 0,0 l/m 0,0 km/h (0 Bft) O-NO 67 0 min 0,000 mm 0,0 UV-I 0 W/m 7,3 C 8,2 C 4,8 km/h (1 Bft) 95,65 %
30.05.2020 01:46 19,2 C 8,2 C -0,6 C 15,0 C 64 % 94 % 1023,8 hPa 0,0 l/m 0,0 km/h (0 Bft) O-NO 67 0 min 0,000 mm 0,0 UV-I 0 W/m 7,3 C 8,2 C 6,4 km/h (2 Bft) 82,61 %
30.05.2020 01:45 19,2 C 8,1 C -0,6 C 15,0 C 64 % 94 % 1023,8 hPa 0,0 l/m 1,6 km/h (1 Bft) O-NO 67 0 min 0,000 mm 0,0 UV-I 0 W/m 7,2 C 8,1 C 6,4 km/h (2 Bft) 100,00 %
30.05.2020 01:44 19,2 C 8,1 C -0,6 C 15,0 C 64 % 94 % 1023,8 hPa 0,0 l/m 0,0 km/h (0 Bft) N 0 0 min 0,000 mm 0,0 UV-I 0 W/m 7,2 C 8,1 C 0,0 km/h (0 Bft) 91,30 %
30.05.2020 01:43 19,2 C 8,1 C -0,6 C 15,0 C 64 % 94 % 1023,8 hPa 0,0 l/m 0,0 km/h (0 Bft) N 0 0 min 0,000 mm 0,0 UV-I 0 W/m 7,2 C 8,1 C 0,0 km/h (0 Bft) 91,30 %
30.05.2020 01:42 19,2 C 8,1 C -0,6 C 15,0 C 64 % 94 % 1023,8 hPa 0,0 l/m 0,0 km/h (0 Bft) N 0 0 min 0,000 mm 0,0 UV-I 0 W/m 7,2 C 8,1 C 0,0 km/h (0 Bft) 95,65 %
30.05.2020 01:41 19,2 C 8,1 C -0,6 C 15,0 C 64 % 94 % 1023,8 hPa 0,0 l/m 0,0 km/h (0 Bft) S-SO 157 0 min 0,000 mm 0,0 UV-I 0 W/m 7,2 C 8,1 C 1,6 km/h (1 Bft) 86,96 %
30.05.2020 01:40 19,2 C 8,0 C -0,6 C 15,0 C 64 % 94 % 1023,8 hPa 0,0 l/m 0,0 km/h (0 Bft) N 0 0 min 0,000 mm 0,0 UV-I 0 W/m 7,1 C 8,0 C 0,0 km/h (0 Bft) 95,65 %
30.05.2020 01:39 19,2 C 8,0 C -0,6 C 15,0 C 64 % 94 % 1023,8 hPa 0,0 l/m 0,0 km/h (0 Bft) N 0 0 min 0,000 mm 0,0 UV-I 0 W/m 7,1 C 8,0 C 0,0 km/h (0 Bft) 95,65 %
30.05.2020 01:38 19,2 C 7,9 C -0,6 C 15,0 C 64 % 94 % 1023,8 hPa 0,0 l/m 0,0 km/h (0 Bft) N 0 0 min 0,000 mm 0,0 UV-I 0 W/m 7,0 C 7,9 C 0,0 km/h (0 Bft) 86,96 %
30.05.2020 01:37 19,2 C 7,9 C -0,6 C 15,0 C 64 % 94 % 1023,8 hPa 0,0 l/m 0,0 km/h (0 Bft) S-SO 157 0 min 0,000 mm 0,0 UV-I 0 W/m 7,0 C 7,9 C 3,2 km/h (1 Bft) 91,30 %
30.05.2020 01:36 19,2 C 7,9 C -0,6 C 15,0 C 64 % 93 % 1023,8 hPa 0,0 l/m 1,6 km/h (1 Bft) S-SO 157 0 min 0,000 mm 0,0 UV-I 0 W/m 6,8 C 7,9 C 3,2 km/h (1 Bft) 100,00 %
30.05.2020 01:35 19,2 C 7,9 C -0,6 C 15,0 C 64 % 93 % 1023,8 hPa 0,0 l/m 0,0 km/h (0 Bft) N 0 0 min 0,000 mm 0,0 UV-I 0 W/m 6,8 C 7,9 C 0,0 km/h (0 Bft) 91,30 %
30.05.2020 01:34 19,2 C 7,9 C -0,6 C 15,0 C 64 % 93 % 1023,8 hPa 0,0 l/m 0,0 km/h (0 Bft) N 0 0 min 0,000 mm 0,0 UV-I 0 W/m 6,8 C 7,9 C 0,0 km/h (0 Bft) 91,30 %
30.05.2020 01:33 19,2 C 7,8 C -0,6 C 15,0 C 64 % 93 % 1023,8 hPa 0,0 l/m 0,0 km/h (0 Bft) N 0 0 min 0,000 mm 0,0 UV-I 0 W/m 6,7 C 7,8 C 0,0 km/h (0 Bft) 95,65 %
30.05.2020 01:32 19,2 C 7,8 C -0,6 C 15,0 C 64 % 93 % 1023,8 hPa 0,0 l/m 0,0 km/h (0 Bft) N 0 0 min 0,000 mm 0,0 UV-I 0 W/m 6,7 C 7,8 C 0,0 km/h (0 Bft) 95,65 %
30.05.2020 01:31 19,2 C 7,8 C -0,6 C 15,0 C 64 % 93 % 1023,8 hPa 0,0 l/m 0,0 km/h (0 Bft) N 0 0 min 0,000 mm 0,0 UV-I 0 W/m 6,7 C 7,8 C 0,0 km/h (0 Bft) 91,30 %
30.05.2020 01:30 19,2 C 7,8 C -1,1 C 15,0 C 64 % 93 % 1023,8 hPa 0,0 l/m 0,0 km/h (0 Bft) N 0 0 min 0,000 mm 0,0 UV-I 0 W/m 6,7 C 7,8 C 0,0 km/h (0 Bft) 95,65 %
30.05.2020 01:29 19,2 C 7,8 C -1,1 C 15,0 C 64 % 93 % 1023,9 hPa 0,0 l/m 0,0 km/h (0 Bft) N 0 0 min 0,000 mm 0,0 UV-I 0 W/m 6,7 C 7,8 C 0,0 km/h (0 Bft) 91,30 %
30.05.2020 01:28 19,2 C 7,8 C -1,1 C 15,0 C 64 % 93 % 1023,9 hPa 0,0 l/m 0,0 km/h (0 Bft) N 0 0 min 0,000 mm 0,0 UV-I 0 W/m 6,7 C 7,8 C 0,0 km/h (0 Bft) 95,65 %
30.05.2020 01:27 19,2 C 7,8 C -1,1 C 15,0 C 64 % 93 % 1023,9 hPa 0,0 l/m 0,0 km/h (0 Bft) N 0 0 min 0,000 mm 0,0 UV-I 0 W/m 6,7 C 7,8 C 0,0 km/h (0 Bft) 95,65 %
30.05.2020 01:26 19,2 C 7,8 C -1,1 C 15,0 C 64 % 93 % 1023,9 hPa 0,0 l/m 0,0 km/h (0 Bft) N 0 0 min 0,000 mm 0,0 UV-I 0 W/m 6,7 C 7,8 C 0,0 km/h (0 Bft) 86,96 %
30.05.2020 01:25 19,2 C 7,8 C -1,1 C 15,0 C 64 % 93 % 1023,9 hPa 0,0 l/m 0,0 km/h (0 Bft) N 0 0 min 0,000 mm 0,0 UV-I 0 W/m 6,7 C 7,8 C 0,0 km/h (0 Bft) 95,65 %
30.05.2020 01:24 19,2 C 7,8 C -1,7 C 15,0 C 64 % 93 % 1023,9 hPa 0,0 l/m 0,0 km/h (0 Bft) N 0 0 min 0,000 mm 0,0 UV-I 0 W/m 6,7 C 7,8 C 0,0 km/h (0 Bft) 91,30 %
30.05.2020 01:23 19,2 C 7,8 C -1,7 C 15,0 C 64 % 93 % 1023,9 hPa 0,0 l/m 0,0 km/h (0 Bft) N 0 0 min 0,000 mm 0,0 UV-I 0 W/m 6,7 C 7,8 C 0,0 km/h (0 Bft) 91,30 %
30.05.2020 01:22 19,2 C 7,8 C -1,7 C 15,0 C 64 % 93 % 1023,9 hPa 0,0 l/m 0,0 km/h (0 Bft) N 0 0 min 0,000 mm 0,0 UV-I 0 W/m 6,7 C 7,8 C 0,0 km/h (0 Bft) 91,30 %
30.05.2020 01:21 19,2 C 7,8 C -2,2 C 15,0 C 64 % 93 % 1023,9 hPa 0,0 l/m 0,0 km/h (0 Bft) N 0 0 min 0,000 mm 0,0 UV-I 0 W/m 6,7 C 7,8 C 0,0 km/h (0 Bft) 100,00 %
30.05.2020 01:20 19,2 C 7,8 C -2,2 C 15,0 C 64 % 93 % 1023,9 hPa 0,0 l/m 0,0 km/h (0 Bft) N 0 0 min 0,000 mm 0,0 UV-I 0 W/m 6,7 C 7,8 C 0,0 km/h (0 Bft) 86,96 %
30.05.2020 01:19 19,2 C 7,8 C -2,2 C 15,0 C 64 % 93 % 1023,9 hPa 0,0 l/m 0,0 km/h (0 Bft) N 0 0 min 0,000 mm 0,0 UV-I 0 W/m 6,7 C 7,8 C 0,0 km/h (0 Bft) 95,65 %
30.05.2020 01:18 19,2 C 7,8 C -2,2 C 15,0 C 65 % 93 % 1023,9 hPa 0,0 l/m 0,0 km/h (0 Bft) N 0 0 min 0,000 mm 0,0 UV-I 0 W/m 6,7 C 7,8 C 0,0 km/h (0 Bft) 95,65 %
30.05.2020 01:17 19,2 C 7,8 C -2,2 C 15,0 C 64 % 93 % 1023,9 hPa 0,0 l/m 0,0 km/h (0 Bft) N 0 0 min 0,000 mm 0,0 UV-I 0 W/m 6,7 C 7,8 C 0,0 km/h (0 Bft) 95,65 %
30.05.2020 01:16 19,2 C 7,8 C -2,8 C 15,0 C 64 % 93 % 1023,9 hPa 0,0 l/m 0,0 km/h (0 Bft) N 0 0 min 0,000 mm 0,0 UV-I 0 W/m 6,7 C 7,8 C 0,0 km/h (0 Bft) 91,30 %
30.05.2020 01:15 19,2 C 7,8 C -2,8 C 15,0 C 64 % 93 % 1023,9 hPa 0,0 l/m 0,0 km/h (0 Bft) N 0 0 min 0,000 mm 0,0 UV-I 0 W/m 6,7 C 7,8 C 0,0 km/h (0 Bft) 100,00 %
30.05.2020 01:14 19,2 C 7,8 C -2,8 C 15,0 C 64 % 93 % 1023,9 hPa 0,0 l/m 0,0 km/h (0 Bft) N 0 0 min 0,000 mm 0,0 UV-I 0 W/m 6,7 C 7,8 C 0,0 km/h (0 Bft) 82,61 %
30.05.2020 01:13 19,2 C 7,8 C -2,8 C 15,0 C 64 % 93 % 1023,9 hPa 0,2 l/m 0,0 km/h (0 Bft) N 0 0 min 0,000 mm 0,0 UV-I 0 W/m 6,7 C 7,8 C 0,0 km/h (0 Bft) 91,30 %
30.05.2020 01:12 19,2 C 7,8 C -2,8 C 15,0 C 64 % 93 % 1023,9 hPa 0,0 l/m 0,0 km/h (0 Bft) N 0 0 min 0,000 mm 0,0 UV-I 0 W/m 6,7 C 7,8 C 0,0 km/h (0 Bft) 95,65 %
30.05.2020 01:11 19,2 C 7,9 C -2,8 C 15,0 C 65 % 93 % 1023,9 hPa 0,0 l/m 0,0 km/h (0 Bft) N 0 0 min 0,000 mm 0,0 UV-I 0 W/m 6,8 C 7,9 C 0,0 km/h (0 Bft) 86,96 %
30.05.2020 01:10 19,2 C 7,9 C -2,8 C 15,0 C 64 % 92 % 1023,9 hPa 0,0 l/m 0,0 km/h (0 Bft) N 0 0 min 0,000 mm 0,0 UV-I 0 W/m 6,7 C 7,9 C 0,0 km/h (0 Bft) 91,30 %
30.05.2020 01:09 19,2 C 7,9 C -2,8 C 15,0 C 64 % 92 % 1023,9 hPa 0,0 l/m 0,0 km/h (0 Bft) N 0 0 min 0,000 mm 0,0 UV-I 0 W/m 6,7 C 7,9 C 0,0 km/h (0 Bft) 86,96 %
30.05.2020 01:08 19,2 C 7,9 C -2,8 C 15,0 C 64 % 92 % 1023,9 hPa 0,0 l/m 0,0 km/h (0 Bft) N 0 0 min 0,000 mm 0,0 UV-I 0 W/m 6,7 C 7,9 C 0,0 km/h (0 Bft) 91,30 %
30.05.2020 01:07 19,2 C 7,9 C -2,8 C 15,0 C 64 % 92 % 1023,9 hPa 0,0 l/m 0,0 km/h (0 Bft) N 0 0 min 0,000 mm 0,0 UV-I 0 W/m 6,7 C 7,9 C 0,0 km/h (0 Bft) 86,96 %
30.05.2020 01:06 19,2 C 7,9 C -2,8 C 15,0 C 64 % 92 % 1023,9 hPa 0,0 l/m 0,0 km/h (0 Bft) N 0 0 min 0,000 mm 0,0 UV-I 0 W/m 6,7 C 7,9 C 0,0 km/h (0 Bft) 86,96 %
30.05.2020 01:05 19,2 C 7,9 C -2,8 C 15,0 C 64 % 92 % 1023,9 hPa 0,0 l/m 0,0 km/h (0 Bft) N 0 0 min 0,000 mm 0,0 UV-I 0 W/m 6,7 C 7,9 C 0,0 km/h (0 Bft) 95,65 %
30.05.2020 01:04 19,2 C 7,9 C -2,8 C 15,0 C 64 % 92 % 1023,9 hPa 0,0 l/m 0,0 km/h (0 Bft) N 0 0 min 0,000 mm 0,0 UV-I 0 W/m 6,7 C 7,9 C 0,0 km/h (0 Bft) 91,30 %
30.05.2020 01:03 19,2 C 7,9 C -2,8 C 15,0 C 64 % 92 % 1023,9 hPa 0,0 l/m 0,0 km/h (0 Bft) N 0 0 min 0,000 mm 0,0 UV-I 0 W/m 6,7 C 7,9 C 0,0 km/h (0 Bft) 86,96 %
30.05.2020 01:02 19,2 C 7,9 C -2,8 C 15,0 C 64 % 92 % 1023,9 hPa 0,0 l/m 0,0 km/h (0 Bft) N 0 0 min 0,000 mm 0,0 UV-I 0 W/m 6,7 C 7,9 C 0,0 km/h (0 Bft) 95,65 %
30.05.2020 01:01 19,2 C 7,9 C -2,8 C 15,0 C 64 % 92 % 1023,9 hPa 0,0 l/m 0,0 km/h (0 Bft) N 0 0 min 0,000 mm 0,0 UV-I 0 W/m 6,7 C 7,9 C 0,0 km/h (0 Bft) 82,61 %
30.05.2020 01:00 19,2 C 8,0 C -2,8 C 15,0 C 64 % 92 % 1023,9 hPa 0,0 l/m 0,0 km/h (0 Bft) N 0 0 min 0,000 mm 0,0 UV-I 0 W/m 6,8 C 8,0 C 0,0 km/h (0 Bft) 91,30 %
30.05.2020 00:59 19,2 C 8,0 C -2,8 C 15,0 C 64 % 92 % 1023,9 hPa 0,0 l/m 0,0 km/h (0 Bft) N 0 0 min 0,000 mm 0,0 UV-I 0 W/m 6,8 C 8,0 C 0,0 km/h (0 Bft) 95,65 %
30.05.2020 00:58 19,2 C 8,0 C -2,8 C 15,0 C 64 % 92 % 1023,9 hPa 0,0 l/m 0,0 km/h (0 Bft) N 0 0 min 0,000 mm 0,0 UV-I 0 W/m 6,8 C 8,0 C 0,0 km/h (0 Bft) 91,30 %
30.05.2020 00:57 19,2 C 8,0 C -2,8 C 15,0 C 64 % 92 % 1023,9 hPa 0,0 l/m 0,0 km/h (0 Bft) N 0 0 min 0,000 mm 0,0 UV-I 0 W/m 6,8 C 8,0 C 0,0 km/h (0 Bft) 91,30 %
30.05.2020 00:56 19,2 C 8,0 C -2,8 C 15,0 C 64 % 92 % 1023,9 hPa 0,0 l/m 0,0 km/h (0 Bft) N 0 0 min 0,000 mm 0,0 UV-I 0 W/m 6,8 C 8,0 C 0,0 km/h (0 Bft) 95,65 %
30.05.2020 00:55 19,2 C 8,0 C -2,8 C 15,0 C 64 % 92 % 1023,9 hPa 0,0 l/m 0,0 km/h (0 Bft) N 0 0 min 0,000 mm 0,0 UV-I 0 W/m 6,8 C 8,0 C 0,0 km/h (0 Bft) 86,96 %
30.05.2020 00:54 19,2 C 8,0 C -2,8 C 15,0 C 64 % 92 % 1023,9 hPa 0,0 l/m 0,0 km/h (0 Bft) N 0 0 min 0,000 mm 0,0 UV-I 0 W/m 6,8 C 8,0 C 0,0 km/h (0 Bft) 91,30 %
30.05.2020 00:53 19,2 C 8,1 C -2,8 C 15,0 C 64 % 92 % 1023,9 hPa 0,0 l/m 0,0 km/h (0 Bft) N 0 0 min 0,000 mm 0,0 UV-I 0 W/m 6,9 C 8,1 C 0,0 km/h (0 Bft) 91,30 %
30.05.2020 00:52 19,2 C 8,1 C -2,8 C 15,0 C 64 % 92 % 1023,9 hPa 0,0 l/m 0,0 km/h (0 Bft) N 0 0 min 0,000 mm 0,0 UV-I 0 W/m 6,9 C 8,1 C 0,0 km/h (0 Bft) 86,96 %
30.05.2020 00:51 19,2 C 8,1 C -2,2 C 15,0 C 64 % 92 % 1023,9 hPa 0,0 l/m 0,0 km/h (0 Bft) N 0 0 min 0,000 mm 0,0 UV-I 0 W/m 6,9 C 8,1 C 0,0 km/h (0 Bft) 91,30 %
30.05.2020 00:50 19,2 C 8,1 C -2,2 C 15,0 C 64 % 92 % 1023,9 hPa 0,0 l/m 0,0 km/h (0 Bft) N 0 0 min 0,000 mm 0,0 UV-I 0 W/m 6,9 C 8,1 C 0,0 km/h (0 Bft) 95,65 %
30.05.2020 00:49 19,2 C 8,1 C -2,2 C 15,0 C 64 % 92 % 1023,9 hPa 0,0 l/m 0,0 km/h (0 Bft) N 0 0 min 0,000 mm 0,0 UV-I 0 W/m 6,9 C 8,1 C 0,0 km/h (0 Bft) 91,30 %
30.05.2020 00:48 19,2 C 8,1 C -2,2 C 15,0 C 64 % 92 % 1023,9 hPa 0,0 l/m 0,0 km/h (0 Bft) N 0 0 min 0,000 mm 0,0 UV-I 0 W/m 6,9 C 8,1 C 0,0 km/h (0 Bft) 86,96 %
30.05.2020 00:47 19,2 C 8,1 C -2,2 C 15,0 C 64 % 92 % 1023,9 hPa 0,0 l/m 0,0 km/h (0 Bft) N 0 0 min 0,000 mm 0,0 UV-I 0 W/m 6,9 C 8,1 C 0,0 km/h (0 Bft) 95,65 %
30.05.2020 00:46 19,2 C 8,1 C -2,2 C 15,0 C 64 % 92 % 1023,9 hPa 0,0 l/m 0,0 km/h (0 Bft) N 0 0 min 0,000 mm 0,0 UV-I 0 W/m 6,9 C 8,1 C 0,0 km/h (0 Bft) 91,30 %
30.05.2020 00:45 19,2 C 8,1 C -2,2 C 15,0 C 64 % 92 % 1023,9 hPa 0,0 l/m 0,0 km/h (0 Bft) N 0 0 min 0,000 mm 0,0 UV-I 0 W/m 6,9 C 8,1 C 0,0 km/h (0 Bft) 86,96 %
30.05.2020 00:44 19,2 C 8,1 C -2,2 C 15,0 C 64 % 92 % 1024,0 hPa 0,0 l/m 0,0 km/h (0 Bft) N 0 0 min 0,000 mm 0,0 UV-I 0 W/m 6,9 C 8,1 C 0,0 km/h (0 Bft) 95,65 %
30.05.2020 00:43 19,2 C 8,1 C -2,2 C 15,0 C 64 % 92 % 1024,0 hPa 0,0 l/m 0,0 km/h (0 Bft) N 0 0 min 0,000 mm 0,0 UV-I 0 W/m 6,9 C 8,1 C 0,0 km/h (0 Bft) 91,30 %
30.05.2020 00:42 19,2 C 8,1 C -2,2 C 15,0 C 64 % 92 % 1024,0 hPa 0,0 l/m 0,0 km/h (0 Bft) N 0 0 min 0,000 mm 0,0 UV-I 0 W/m 6,9 C 8,1 C 0,0 km/h (0 Bft) 86,96 %
30.05.2020 00:41 19,2 C 8,1 C -2,2 C 15,0 C 64 % 92 % 1024,0 hPa 0,0 l/m 0,0 km/h (0 Bft) N 0 0 min 0,000 mm 0,0 UV-I 0 W/m 6,9 C 8,1 C 0,0 km/h (0 Bft) 100,00 %
30.05.2020 00:40 19,2 C 8,1 C -1,7 C 15,0 C 64 % 92 % 1024,0 hPa 0,0 l/m 0,0 km/h (0 Bft) N 0 0 min 0,000 mm 0,0 UV-I 0 W/m 6,9 C 8,1 C 0,0 km/h (0 Bft) 91,30 %
30.05.2020 00:39 19,2 C 8,1 C -1,7 C 15,0 C 64 % 92 % 1024,0 hPa 0,0 l/m 0,0 km/h (0 Bft) N 0 0 min 0,000 mm 0,0 UV-I 0 W/m 6,9 C 8,1 C 0,0 km/h (0 Bft) 95,65 %
30.05.2020 00:38 19,2 C 8,1 C -1,7 C 15,0 C 64 % 92 % 1024,0 hPa 0,0 l/m 0,0 km/h (0 Bft) N 0 0 min 0,000 mm 0,0 UV-I 0 W/m 6,9 C 8,1 C 0,0 km/h (0 Bft) 95,65 %
30.05.2020 00:37 19,2 C 8,1 C -2,2 C 15,0 C 64 % 92 % 1024,0 hPa 0,0 l/m 0,0 km/h (0 Bft) N 0 0 min 0,000 mm 0,0 UV-I 0 W/m 6,9 C 8,1 C 0,0 km/h (0 Bft) 91,30 %
30.05.2020 00:36 19,2 C 8,1 C -2,2 C 15,0 C 64 % 92 % 1024,0 hPa 0,0 l/m 0,0 km/h (0 Bft) N 0 0 min 0,000 mm 0,0 UV-I 0 W/m 6,9 C 8,1 C 0,0 km/h (0 Bft) 91,30 %
30.05.2020 00:35 19,2 C 8,2 C -2,2 C 15,0 C 64 % 92 % 1024,0 hPa 0,0 l/m 0,0 km/h (0 Bft) N 0 0 min 0,000 mm 0,0 UV-I 0 W/m 7,0 C 8,2 C 0,0 km/h (0 Bft) 95,65 %
30.05.2020 00:34 19,3 C 8,2 C -2,2 C 15,0 C 64 % 92 % 1024,0 hPa 0,0 l/m 0,0 km/h (0 Bft) N 0 0 min 0,000 mm 0,0 UV-I 0 W/m 7,0 C 8,2 C 0,0 km/h (0 Bft) 95,65 %
30.05.2020 00:33 19,3 C 8,2 C -2,2 C 15,0 C 64 % 92 % 1024,0 hPa 0,0 l/m 0,0 km/h (0 Bft) N 0 0 min 0,000 mm 0,0 UV-I 0 W/m 7,0 C 8,2 C 0,0 km/h (0 Bft) 91,30 %
30.05.2020 00:32 19,2 C 8,2 C -2,2 C 15,0 C 64 % 92 % 1024,0 hPa 0,0 l/m 0,0 km/h (0 Bft) N 0 0 min 0,000 mm 0,0 UV-I 0 W/m 7,0 C 8,2 C 0,0 km/h (0 Bft) 100,00 %
30.05.2020 00:31 19,3 C 8,2 C -2,2 C 15,0 C 64 % 92 % 1024,0 hPa 0,0 l/m 0,0 km/h (0 Bft) N 0 0 min 0,000 mm 0,0 UV-I 0 W/m 7,0 C 8,2 C 0,0 km/h (0 Bft) 91,30 %
30.05.2020 00:30 19,3 C 8,2 C -2,2 C 15,0 C 64 % 92 % 1024,0 hPa 0,0 l/m 0,0 km/h (0 Bft) N 0 0 min 0,000 mm 0,0 UV-I 0 W/m 7,0 C 8,2 C 0,0 km/h (0 Bft) 95,65 %
30.05.2020 00:29 19,3 C 8,2 C -2,2 C 15,0 C 64 % 91 % 1024,1 hPa 0,0 l/m 0,0 km/h (0 Bft) N 0 0 min 0,000 mm 0,0 UV-I 0 W/m 6,8 C 8,2 C 0,0 km/h (0 Bft) 95,65 %
30.05.2020 00:28 19,3 C 8,2 C -2,2 C 15,0 C 65 % 91 % 1024,1 hPa 0,0 l/m 0,0 km/h (0 Bft) N 0 0 min 0,000 mm 0,0 UV-I 0 W/m 6,8 C 8,2 C 0,0 km/h (0 Bft) 95,65 %
30.05.2020 00:27 19,3 C 8,2 C -2,2 C 15,0 C 64 % 91 % 1024,1 hPa 0,0 l/m 0,0 km/h (0 Bft) N 0 0 min 0,000 mm 0,0 UV-I 0 W/m 6,8 C 8,2 C 0,0 km/h (0 Bft) 91,30 %
30.05.2020 00:26 19,3 C 8,2 C -2,2 C 15,0 C 64 % 91 % 1024,1 hPa 0,0 l/m 0,0 km/h (0 Bft) N 0 0 min 0,000 mm 0,0 UV-I 0 W/m 6,8 C 8,2 C 0,0 km/h (0 Bft) 95,65 %
30.05.2020 00:25 19,3 C 8,2 C -2,2 C 15,0 C 64 % 91 % 1024,1 hPa 0,0 l/m 0,0 km/h (0 Bft) N 0 0 min 0,000 mm 0,0 UV-I 0 W/m 6,8 C 8,2 C 0,0 km/h (0 Bft) 91,30 %
30.05.2020 00:24 19,3 C 8,2 C -2,2 C 15,0 C 64 % 91 % 1024,1 hPa 0,0 l/m 0,0 km/h (0 Bft) N 0 0 min 0,000 mm 0,0 UV-I 0 W/m 6,8 C 8,2 C 0,0 km/h (0 Bft) 95,65 %
30.05.2020 00:23 19,3 C 8,2 C -2,2 C 15,0 C 64 % 91 % 1024,1 hPa 0,0 l/m 0,0 km/h (0 Bft) N 0 0 min 0,000 mm 0,0 UV-I 0 W/m 6,8 C 8,2 C 0,0 km/h (0 Bft) 91,30 %
30.05.2020 00:22 19,3 C 8,2 C -2,2 C 15,0 C 64 % 91 % 1024,1 hPa 0,0 l/m 0,0 km/h (0 Bft) N 0 0 min 0,000 mm 0,0 UV-I 0 W/m 6,8 C 8,2 C 0,0 km/h (0 Bft) 91,30 %
30.05.2020 00:21 19,3 C 8,2 C -2,2 C 15,0 C 64 % 91 % 1024,1 hPa 0,0 l/m 0,0 km/h (0 Bft) N 0 0 min 0,000 mm 0,0 UV-I 0 W/m 6,8 C 8,2 C 0,0 km/h (0 Bft) 91,30 %
30.05.2020 00:20 19,3 C 8,3 C -2,2 C 15,0 C 64 % 91 % 1024,1 hPa 0,0 l/m 0,0 km/h (0 Bft) N 0 0 min 0,000 mm 0,0 UV-I 0 W/m 6,9 C 8,3 C 0,0 km/h (0 Bft) 95,65 %
30.05.2020 00:19 19,3 C 8,3 C -2,2 C 15,0 C 64 % 91 % 1024,1 hPa 0,0 l/m 0,0 km/h (0 Bft) N 0 0 min 0,000 mm 0,0 UV-I 0 W/m 6,9 C 8,3 C 0,0 km/h (0 Bft) 91,30 %
30.05.2020 00:18 19,3 C 8,3 C -2,2 C 15,0 C 64 % 91 % 1024,1 hPa 0,0 l/m 0,0 km/h (0 Bft) N 0 0 min 0,000 mm 0,0 UV-I 0 W/m 6,9 C 8,3 C 0,0 km/h (0 Bft) 91,30 %
30.05.2020 00:17 19,3 C 8,3 C -2,2 C 15,0 C 64 % 91 % 1024,1 hPa 0,0 l/m 0,0 km/h (0 Bft) N 0 0 min 0,000 mm 0,0 UV-I 0 W/m 6,9 C 8,3 C 0,0 km/h (0 Bft) 91,30 %
30.05.2020 00:16 19,3 C 8,3 C -2,2 C 15,0 C 64 % 91 % 1024,1 hPa 0,0 l/m 0,0 km/h (0 Bft) N 0 0 min 0,000 mm 0,0 UV-I 0 W/m 6,9 C 8,3 C 0,0 km/h (0 Bft) 95,65 %
30.05.2020 00:15 19,3 C 8,3 C -2,2 C 15,0 C 64 % 91 % 1024,1 hPa 0,0 l/m 0,0 km/h (0 Bft) N 0 0 min 0,000 mm 0,0 UV-I 0 W/m 6,9 C 8,3 C 0,0 km/h (0 Bft) 91,30 %
30.05.2020 00:14 19,3 C 8,3 C -2,2 C 15,0 C 65 % 91 % 1024,1 hPa 0,0 l/m 0,0 km/h (0 Bft) N 0 0 min 0,000 mm 0,0 UV-I 0 W/m 6,9 C 8,3 C 0,0 km/h (0 Bft) 91,30 %
30.05.2020 00:13 19,3 C 8,3 C -2,2 C 15,0 C 64 % 91 % 1024,1 hPa 0,0 l/m 0,0 km/h (0 Bft) N 0 0 min 0,000 mm 0,0 UV-I 0 W/m 6,9 C 8,3 C 0,0 km/h (0 Bft) 100,00 %
30.05.2020 00:12 19,3 C 8,3 C -2,2 C 15,0 C 64 % 91 % 1024,1 hPa 0,0 l/m 0,0 km/h (0 Bft) N 0 0 min 0,000 mm 0,0 UV-I 0 W/m 6,9 C 8,3 C 0,0 km/h (0 Bft) 91,30 %
30.05.2020 00:11 19,3 C 8,4 C -2,2 C 15,0 C 64 % 91 % 1024,1 hPa 0,0 l/m 0,0 km/h (0 Bft) N 0 0 min 0,000 mm 0,0 UV-I 0 W/m 7,0 C 8,4 C 0,0 km/h (0 Bft) 95,65 %
30.05.2020 00:10 19,3 C 8,4 C -2,2 C 15,0 C 64 % 91 % 1024,1 hPa 0,0 l/m 0,0 km/h (0 Bft) N 0 0 min 0,000 mm 0,0 UV-I 0 W/m 7,0 C 8,4 C 0,0 km/h (0 Bft) 95,65 %
30.05.2020 00:09 19,3 C 8,4 C -2,2 C 15,0 C 64 % 91 % 1024,1 hPa 0,0 l/m 0,0 km/h (0 Bft) N 0 0 min 0,000 mm 0,0 UV-I 0 W/m 7,0 C 8,4 C 0,0 km/h (0 Bft) 91,30 %
30.05.2020 00:08 19,3 C 8,4 C -2,2 C 15,0 C 64 % 91 % 1024,1 hPa 0,0 l/m 0,0 km/h (0 Bft) N 0 0 min 0,000 mm 0,0 UV-I 0 W/m 7,0 C 8,4 C 0,0 km/h (0 Bft) 91,30 %
30.05.2020 00:07 19,3 C 8,4 C -2,2 C 15,0 C 64 % 90 % 1024,1 hPa 0,0 l/m 0,0 km/h (0 Bft) N 0 0 min 0,000 mm 0,0 UV-I 0 W/m 6,9 C 8,4 C 0,0 km/h (0 Bft) 95,65 %
30.05.2020 00:06 19,3 C 8,4 C -2,2 C 15,0 C 64 % 91 % 1024,1 hPa 0,0 l/m 0,0 km/h (0 Bft) N 0 0 min 0,000 mm 0,0 UV-I 0 W/m 7,0 C 8,4 C 0,0 km/h (0 Bft) 95,65 %
30.05.2020 00:05 19,3 C 8,4 C -2,2 C 15,0 C 64 % 91 % 1024,1 hPa 0,0 l/m 0,0 km/h (0 Bft) N 0 0 min 0,000 mm 0,0 UV-I 0 W/m 7,0 C 8,4 C 0,0 km/h (0 Bft) 91,30 %
30.05.2020 00:04 19,3 C 8,4 C -2,2 C 15,0 C 64 % 90 % 1024,1 hPa 0,0 l/m 0,0 km/h (0 Bft) N 0 0 min 0,000 mm 0,0 UV-I 0 W/m 6,9 C 8,4 C 0,0 km/h (0 Bft) 100,00 %
30.05.2020 00:03 19,3 C 8,4 C -2,2 C 15,0 C 64 % 90 % 1024,1 hPa 0,0 l/m 0,0 km/h (0 Bft) N 0 0 min 0,000 mm 0,0 UV-I 0 W/m 6,9 C 8,4 C 0,0 km/h (0 Bft) 91,30 %
30.05.2020 00:02 19,3 C 8,4 C -2,2 C 15,0 C 64 % 90 % 1024,1 hPa 0,0 l/m 0,0 km/h (0 Bft) N 0 0 min 0,000 mm 0,0 UV-I 0 W/m 6,9 C 8,4 C 0,0 km/h (0 Bft) 95,65 %
30.05.2020 00:01 19,3 C 8,5 C -2,2 C 15,0 C 64 % 90 % 1024,1 hPa 0,0 l/m 0,0 km/h (0 Bft) N 0 0 min 0,000 mm 0,0 UV-I 0 W/m 7,0 C 8,5 C 0,0 km/h (0 Bft) 82,61 %
30.05.2020 00:00 19,3 C 8,5 C -2,2 C 15,0 C 64 % 90 % 1024,1 hPa 0,0 l/m 0,0 km/h (0 Bft) N 0 0 min 0,000 mm 0,0 UV-I 0 W/m 7,0 C 8,5 C 0,0 km/h (0 Bft) 100,00 %
_ Min-Zeit 08:12 06:07 09:54 06:21 10:21 13:00 09:45 - 00:00 - - - - - - 06:07 06:07 00:00 09:47
Minimum _ 18,8 C 7,0 C -10,0 C 13,9 C 63 % 76 % 1021,4 hPa - 0,0 km/h (0 Bft) - - - - - - 6,3 C 7,0 C 0,0 km/h (0 Bft) 78,26 %
_ Max-Zeit 00:00 12:58 10:28 00:00 00:14 07:14 00:00 01:13 02:01 - - 09:52 11:00 10:31 10:32 10:37 12:58 02:01 00:00
Maximum _ 19,3 C 12,8 C 17,8 C 15,0 C 65 % 96 % 1024,1 hPa 0,2 l/m 8,0 km/h
W-SW (2 Bft)
- - 1 min 0,127 mm 3,1 UV-I 548 W/m 10,4 C 12,8 C 11,3 km/h
W (2 Bft)
100,00 %
Durchschnitt _ 19,0 C 9,1 C 1,6 C 14,3 C 64 % 93 % 1022,3 hPa #0,6 l/m 1,1 km/h (1 Bft) W-NW - #1:49 h #0,432 mm 1,6 UV-I 122 W/m 8,0 C 9,1 C 2,4 km/h (1 Bft) 93,95 %